GFSGL_250_spd_000.txt.gz
Wind_Speed
48 49 50 52 56 60 61 63 68 72 76 82 85 88 92 96 100 99 96 92 90 92 95 96 94 94 95 93 95 99 104 112 113 109 117 121 125 126 129 132 133 128 120
52 53 55 59 62 64 68 71 75 80 84 88 91 95 99 103 102 96 93 92 94 96 97 95 94 93 94 99 104 109 114 120 123 124 123 129 131 131 126 117 112 109 105
55 59 62 65 67 70 73 77 82 86 90 94 98 102 105 104 97 93 93 96 98 98 96 93 92 96 103 109 115 119 123 126 128 131 128 126 118 113 106 104 101 96 92
60 62 65 68 71 75 78 83 88 93 96 100 104 107 105 96 94 96 97 99 98 97 93 96 102 107 113 119 124 126 127 128 128 124 117 107 101 97 95 90 90 87 84
64 66 70 73 76 79 84 89 94 97 101 105 109 104 97 96 97 98 98 98 96 94 99 105 112 118 123 127 127 126 125 119 113 108 101 97 91 88 85 83 78 76 78
68 71 75 78 81 84 89 94 98 102 106 109 101 95 98 98 98 99 98 93 97 101 107 115 122 126 129 130 127 119 113 107 99 95 90 85 83 80 77 75 71 69 69
73 76 79 82 85 89 94 98 102 106 107 99 97 98 98 98 100 97 95 100 104 112 118 124 128 131 129 121 112 106 103 101 94 85 79 78 75 72 69 69 65 63 61
77 79 81 85 90 94 98 101 106 103 96 96 98 98 98 100 96 96 100 107 115 122 126 132 132 125 117 109 101 97 95 91 85 81 75 71 68 67 66 63 60 58 54
79 82 85 89 93 96 100 104 97 94 96 96 97 98 99 96 99 103 110 117 123 128 133 133 123 113 105 100 95 90 87 83 79 74 70 67 64 61 59 59 56 52 47
81 84 88 91 95 100 100 92 92 93 94 95 97 95 96 100 106 112 118 123 129 131 130 124 114 107 100 94 88 82 79 75 73 68 63 59 56 54 51 50 47 44 41
82 86 91 95 98 92 89 90 92 92 93 94 92 96 101 108 114 121 127 133 132 127 120 113 105 100 95 88 83 78 73 68 64 61 56 53 50 45 42 40 38 35 32
86 90 93 90 86 87 87 90 90 89 88 90 95 102 109 115 121 128 133 132 125 119 112 105 97 92 87 82 79 73 65 61 57 53 49 46 41 38 35 32 30 29 27
89 87 82 82 83 84 85 85 85 85 90 95 101 107 113 121 128 132 127 122 117 112 105 98 91 85 82 77 70 64 58 55 51 45 41 37 32 31 28 25 23 21 20
78 78 79 81 81 83 81 81 85 90 95 101 106 113 120 128 128 120 117 113 106 101 97 90 84 81 77 69 61 57 52 48 43 38 34 29 27 24 23 21 17 17 17
75 76 77 77 77 77 80 85 91 97 102 106 112 119 125 121 115 113 107 101 96 93 86 82 80 75 66 59 53 50 46 41 37 33 28 24 21 20 18 18 17 16 14
73 72 70 71 73 79 85 92 97 103 108 114 121 124 117 113 110 102 99 95 90 84 80 78 74 65 58 52 48 44 39 35 31 27 25 22 19 18 16 16 16 16 13
64 65 66 72 77 84 90 96 101 110 117 123 121 114 112 106 100 96 93 88 81 79 76 71 63 56 50 47 42 38 33 30 27 26 22 20 18 17 16 14 13 14 12
59 65 70 77 84 90 95 100 106 114 119 114 111 107 102 98 94 90 86 81 77 74 70 63 56 48 45 40 36 32 29 28 25 23 21 19 18 17 16 14 11 12 12
64 71 77 84 89 95 100 107 113 118 110 104 101 97 94 93 91 84 78 75 73 69 62 54 47 44 40 36 32 30 28 24 21 20 19 18 18 17 15 14 12 10 10
71 78 84 90 95 101 108 113 117 110 102 98 94 89 89 90 85 79 73 71 67 60 53 46 44 39 36 32 31 28 25 22 21 19 18 17 17 17 15 14 13 12 8
78 84 89 95 101 108 114 116 107 99 95 93 89 87 86 82 76 72 69 65 58 51 45 42 38 35 32 31 28 25 23 23 22 21 20 18 17 16 17 15 12 10 9
85 90 96 102 109 115 114 103 97 94 92 89 88 86 80 74 70 67 62 55 49 43 40 36 33 32 30 27 25 25 25 25 24 24 23 21 20 19 19 18 17 12 10
91 96 103 108 114 112 103 98 93 91 89 88 85 79 73 69 65 59 52 46 41 39 35 32 31 29 26 26 26 26 26 25 26 27 25 25 24 21 18 20 20 18 13
97 103 109 113 111 103 99 95 91 89 87 85 77 70 67 62 56 49 43 38 36 34 32 30 28 24 26 27 28 27 26 25 25 25 24 23 21 17 13 13 14 16 16
103 109 113 113 104 100 96 91 88 86 83 75 68 64 58 52 46 40 35 32 31 30 30 29 24 24 27 27 27 26 26 24 23 22 20 17 14 11 10 10 10 12 16
110 114 112 106 102 95 89 87 84 80 73 66 62 56 49 44 38 32 28 27 26 28 27 25 23 29 31 30 30 29 26 24 21 19 16 13 12 10 8 5 4 7 11

GFSGL_250_spd_003.txt.gz
Wind_Speed
52 52 53 53 53 54 56 60 63 66 69 73 77 79 82 87 93 98 102 107 110 113 103 100 102 98 97 100 96 95 99 105 109 105 115 120 123 125 126 128 129 127 122
54 55 56 56 55 58 62 64 68 72 74 77 80 83 89 94 100 104 109 113 115 104 103 104 99 100 100 96 99 103 110 118 123 124 121 125 128 128 122 116 112 108 104
56 56 57 60 62 64 67 70 72 74 78 81 85 91 96 101 105 110 113 116 107 106 105 101 102 98 98 102 108 115 121 125 131 133 123 117 112 110 105 102 99 98 96
57 57 60 62 64 67 70 73 76 80 84 88 92 97 101 106 110 113 117 108 107 106 103 102 98 102 107 112 118 124 128 132 128 117 108 103 100 98 95 91 91 89 86
58 60 62 65 67 70 74 78 82 86 89 94 99 102 106 109 113 116 107 108 105 103 101 101 106 111 117 123 128 129 128 120 109 103 98 95 92 88 86 84 80 78 77
60 61 64 67 71 75 79 83 86 91 95 99 102 105 109 113 114 107 108 104 103 99 103 108 115 120 126 131 131 124 116 106 96 90 89 86 85 80 78 74 69 67 68
61 64 67 71 75 79 83 87 92 95 98 101 104 108 113 108 106 107 102 100 101 106 111 117 123 129 132 126 119 113 106 100 95 88 85 83 79 74 71 66 63 60 59
63 66 70 74 78 82 86 89 92 96 100 103 108 110 105 105 105 100 97 102 107 114 121 127 131 131 126 116 107 102 99 94 87 83 78 75 71 68 64 61 58 55 51
65 68 72 76 79 82 86 90 94 98 103 107 106 102 104 102 97 97 101 107 113 121 128 134 133 126 116 108 100 97 92 85 81 75 71 68 64 61 59 56 54 52 47
67 71 74 78 82 86 89 93 97 102 103 99 101 103 98 93 97 102 108 114 119 127 135 133 126 116 108 102 97 89 84 80 75 69 64 60 58 55 52 50 47 45 41
70 74 77 81 85 89 92 97 99 97 96 98 98 93 93 97 103 109 116 121 127 132 129 123 115 107 103 97 89 83 79 74 68 63 59 55 51 47 44 42 41 40 38
74 77 80 84 88 93 94 93 92 94 95 92 89 93 99 105 110 116 123 128 131 127 121 114 104 100 94 86 81 77 72 66 61 57 53 48 45 42 40 38 36 35 37
75 79 84 88 89 88 88 91 92 89 84 85 90 96 103 110 116 123 129 130 125 121 114 103 98 90 83 80 74 71 64 59 55 51 45 43 40 37 35 34 32 31 30
80 83 84 83 82 84 87 85 79 80 84 89 96 102 108 115 122 128 124 120 117 110 100 96 88 81 77 75 69 63 57 53 50 44 41 38 34 33 31 29 28 25 24
79 77 76 79 82 80 74 73 79 84 89 94 100 106 112 119 123 118 114 111 102 94 92 85 79 76 71 66 60 55 52 47 43 40 37 34 33 31 27 25 24 23 21
69 74 76 74 68 67 73 79 84 90 96 101 107 112 120 119 113 111 108 97 92 89 83 78 75 70 66 59 53 51 47 43 39 37 35 33 29 27 24 22 21 21 18
73 68 61 62 66 71 77 83 90 99 103 107 113 119 114 111 108 102 94 92 88 82 77 74 69 64 57 53 51 46 41 39 37 35 32 30 27 22 20 20 18 18 16
56 56 60 65 71 77 83 89 94 99 104 112 117 108 107 105 99 92 91 88 82 76 74 68 62 56 52 50 45 41 37 37 36 33 30 28 26 23 19 16 16 15 15
55 59 65 71 77 83 89 94 99 104 111 110 102 102 101 99 93 89 86 81 76 73 66 60 55 51 49 45 41 40 39 36 35 31 30 29 27 24 19 16 14 13 12
59 65 71 77 83 89 94 98 104 110 107 99 97 97 95 92 90 86 80 75 71 65 59 54 50 47 42 41 41 39 37 35 33 32 29 27 26 24 21 16 13 11 10
65 71 77 83 89 94 100 104 111 107 98 97 97 94 89 87 83 77 73 70 62 57 53 49 45 41 41 40 39 38 38 36 33 31 29 27 24 21 19 19 15 10 7
71 76 83 89 95 101 105 112 106 99 96 97 95 89 86 81 74 71 68 61 56 52 47 44 40 39 37 36 36 36 35 33 30 28 26 24 21 20 20 20 18 13 8
77 83 88 95 102 106 114 111 99 96 96 93 89 86 80 73 69 65 60 54 51 46 43 38 36 34 34 35 35 34 34 32 30 28 26 25 22 18 14 14 14 13 9
84 89 95 102 106 114 114 99 95 95 93 90 86 79 71 67 62 57 52 48 44 42 37 33 30 29 32 32 32 33 32 30 29 26 25 22 18 14 9 7 9 10 9
90 95 101 107 113 113 102 95 93 91 89 85 77 69 65 61 55 50 46 42 40 36 33 29 28 31 34 35 34 33 32 31 29 27 23 19 15 11 8 5 6 6 6
95 101 107 112 113 102 95 92 91 88 84 75 66 63 59 54 48 44 40 38 36 32 28 28 30 35 36 36 32 30 29 27 25 23 20 16 12 9 7 5 3 3 5

GFSGL_250_spd_006.txt.gz
Wind_Speed
53 51 51 52 53 54 55 56 58 61 62 65 68 72 75 78 82 86 90 94 98 101 106 110 115 118 120 114 112 107 104 104 104 101 110 114 118 123 125 121 116 113 113
55 53 52 53 55 57 58 60 62 64 67 70 74 77 80 83 87 91 96 100 103 107 111 115 119 119 115 111 106 104 108 113 118 117 118 124 129 125 119 113 109 106 103
55 54 53 56 58 59 61 63 64 67 71 74 76 80 84 88 92 97 101 105 109 112 115 119 116 113 109 105 106 110 116 122 127 127 125 121 116 112 103 100 97 94 92
54 53 55 58 60 62 64 66 68 70 73 76 80 84 89 94 98 101 104 108 112 115 119 114 113 108 104 107 112 119 124 128 129 125 117 109 103 98 94 88 87 84 81
53 54 57 61 64 65 67 69 70 73 76 79 84 88 92 96 100 103 107 111 115 117 112 111 105 104 109 115 120 125 131 132 121 112 106 98 95 91 87 82 79 77 72
53 55 59 64 65 68 69 70 73 76 79 84 88 92 95 99 103 107 110 115 112 111 107 103 106 111 117 122 128 132 133 120 105 99 97 94 90 85 82 76 71 67 65
54 57 62 65 68 69 70 73 75 79 83 86 90 94 99 102 106 110 113 108 108 104 102 107 113 119 124 128 132 128 118 110 102 96 94 89 85 79 73 68 62 58 58
55 59 63 65 66 68 71 75 77 81 85 90 94 97 102 105 110 108 107 105 100 102 109 114 119 126 130 130 120 116 112 105 101 94 86 82 76 70 65 59 58 52 50
57 61 62 64 67 70 73 77 81 84 88 93 97 101 105 108 103 104 97 97 103 109 116 123 128 130 131 119 114 108 103 101 93 84 78 73 66 61 59 56 51 48 43
59 61 62 65 69 73 77 81 84 88 92 96 101 104 99 100 96 91 96 102 107 113 120 129 132 129 117 114 106 102 98 90 83 77 69 63 59 55 51 48 48 46 42
59 62 65 69 73 77 79 82 87 91 96 99 98 96 96 89 91 97 103 108 113 119 128 132 127 118 113 105 101 94 84 80 75 69 62 57 53 50 47 43 43 44 43
62 65 68 72 75 78 82 86 91 96 96 91 92 87 86 92 98 102 108 113 121 128 130 124 117 109 102 98 90 82 77 72 66 60 55 52 48 45 42 42 40 40 39
63 66 70 74 78 82 87 91 92 87 87 82 79 85 91 98 103 109 113 120 127 129 123 117 105 98 93 87 81 75 70 64 58 54 50 48 45 43 40 38 38 37 36
67 70 74 78 83 87 87 84 83 79 73 78 83 89 95 102 107 112 120 124 124 120 113 101 95 89 82 79 76 68 62 56 52 49 45 42 41 39 37 36 34 33 29
70 74 78 82 81 78 79 74 68 72 77 82 88 94 99 105 111 120 120 118 113 102 94 91 85 79 76 70 64 60 54 51 47 45 42 40 38 36 35 31 30 29 27
73 74 73 72 74 70 65 66 71 77 83 88 94 100 104 110 119 117 114 110 96 91 88 82 77 74 68 62 56 50 49 46 44 42 40 38 36 33 30 30 28 26 23
65 66 68 66 62 60 65 71 78 85 90 95 100 105 112 119 114 112 106 94 89 85 80 75 72 66 61 54 49 46 43 41 40 38 35 33 31 30 28 25 25 24 21
62 60 58 56 59 64 71 76 82 87 94 101 107 113 116 113 109 100 91 88 84 77 74 71 65 59 53 49 45 43 41 39 36 35 32 30 28 25 23 22 20 21 19
52 50 53 58 64 70 76 82 87 94 99 102 109 112 109 107 99 90 84 80 77 73 69 64 58 52 48 45 44 42 39 37 35 34 33 30 27 25 21 17 16 16 17
47 52 58 63 70 76 82 87 94 98 102 109 106 103 101 95 91 86 80 74 71 68 62 55 49 46 45 44 41 39 39 38 37 34 30 27 25 22 19 14 11 11 13
53 59 64 70 76 82 87 93 98 102 108 102 100 98 91 85 83 79 74 71 66 60 53 47 44 42 41 39 40 41 40 39 36 31 26 23 20 17 14 14 10 8 8
60 65 71 76 82 87 93 98 103 108 100 96 96 90 84 80 77 72 70 66 59 51 44 42 41 38 36 37 40 40 39 36 33 27 22 18 15 13 12 11 10 8 7
66 71 77 82 87 93 98 104 107 102 94 93 87 83 79 75 70 68 65 58 51 44 40 39 37 36 37 40 41 39 36 34 28 26 22 20 17 13 10 7 5 5 8
73 78 83 88 94 98 104 108 101 92 90 85 82 78 73 68 66 62 57 50 42 39 37 35 34 36 39 41 41 36 33 30 28 25 22 19 16 12 8 4 0 3 7
79 84 89 94 99 105 107 101 91 89 85 79 77 70 66 64 59 54 47 40 37 35 34 33 34 37 40 41 36 33 30 28 27 24 22 19 16 11 7 4 3 4 7
84 90 96 100 105 107 99 92 88 84 79 74 68 63 61 56 50 44 38 34 33 33 30 31 34 37 39 36 32 30 27 26 23 22 20 19 16 11 7 6 5 6 7

GFSGL_250_spd_009.txt.gz
Wind_Speed
61 62 61 57 54 53 53 54 55 56 56 59 62 64 66 69 73 76 80 85 88 92 95 98 102 105 109 112 116 120 124 121 116 103 106 111 116 120 124 128 128 122 117
60 61 60 56 55 54 55 56 56 57 59 62 64 66 70 73 76 80 84 87 91 95 99 102 106 109 114 117 122 125 119 119 111 109 113 118 124 129 131 122 115 110 101
59 59 59 57 57 57 56 56 57 59 62 64 67 71 73 77 80 83 87 91 95 99 102 106 110 114 118 123 121 119 114 112 118 120 120 127 130 126 115 110 102 95 93
58 59 58 58 59 57 57 57 58 62 64 67 70 73 77 80 83 86 90 95 99 102 107 110 114 119 121 117 115 109 115 120 125 127 129 127 119 112 103 94 92 88 83
58 58 58 59 59 57 56 58 61 63 67 70 74 77 81 83 86 90 93 97 103 107 111 115 120 117 115 109 111 117 123 127 129 130 122 114 106 97 93 89 82 81 77
58 58 58 58 56 54 57 60 61 66 69 73 78 81 83 86 90 92 97 102 105 110 115 116 112 110 106 112 118 125 130 133 130 116 108 100 98 95 90 84 79 75 74
59 58 55 52 52 55 57 60 64 68 72 77 81 83 85 88 93 98 101 105 110 113 109 109 101 107 113 117 123 128 134 130 117 107 102 98 95 87 83 80 74 67 59
52 50 47 50 53 56 59 63 66 71 76 79 82 85 89 93 97 101 105 110 107 106 100 103 108 112 119 124 127 131 125 116 109 104 99 92 84 80 75 72 66 61 53
46 46 47 51 54 57 60 65 70 75 79 82 84 89 94 96 100 106 106 104 99 96 103 109 114 120 125 129 130 120 113 107 103 98 89 82 76 71 66 64 58 53 50
41 44 48 51 54 59 64 69 74 78 81 85 89 92 95 101 105 102 100 90 97 102 109 115 121 127 130 128 118 110 105 101 95 87 80 72 66 60 55 53 51 50 46
42 46 50 54 58 63 68 73 76 80 85 88 92 96 101 99 98 91 90 96 102 108 114 120 127 131 125 115 108 103 98 89 83 78 70 64 58 52 48 46 45 44 43
44 49 53 57 62 67 71 75 79 83 87 90 96 97 94 91 83 90 97 103 110 114 120 127 130 122 112 107 102 96 86 80 73 66 61 56 52 48 43 40 42 38 39
48 53 57 62 66 70 73 78 82 85 90 92 89 89 81 86 91 97 104 110 114 122 127 129 119 110 104 100 90 82 77 69 64 59 53 49 46 45 42 37 36 34 33
53 58 62 67 70 74 78 81 84 87 84 85 79 77 83 90 96 103 109 113 121 126 125 116 107 101 96 86 80 75 68 62 57 53 48 44 43 40 38 35 31 30 27
58 63 67 70 73 77 80 82 79 79 78 72 76 82 88 95 102 107 111 119 122 117 110 101 95 89 80 75 68 64 61 56 51 47 45 41 39 37 33 32 28 26 26
64 67 68 71 75 77 74 74 74 68 68 74 80 87 94 100 104 110 118 120 112 105 97 91 81 75 72 67 62 56 52 49 47 43 39 37 34 32 28 25 24 22 22
64 67 69 69 68 69 67 63 63 68 73 79 86 93 100 104 110 116 116 109 99 93 86 76 72 69 64 59 55 51 46 41 37 36 37 36 34 30 25 21 22 21 21
61 63 63 61 57 55 56 62 68 74 81 89 95 99 105 111 113 111 104 97 91 80 71 69 65 61 57 53 50 45 39 38 40 40 39 37 33 27 24 22 18 18 17
54 50 49 49 51 56 62 68 74 79 85 91 97 103 108 110 107 101 92 87 77 70 67 63 59 54 51 48 44 42 43 45 44 40 36 33 30 26 23 20 17 14 14
45 45 47 51 57 61 68 74 80 85 91 97 101 105 103 103 98 92 85 75 67 65 61 56 52 49 46 43 42 44 46 45 42 39 34 28 26 22 20 19 15 13 11
46 49 53 57 62 68 75 80 86 91 96 101 105 100 96 92 87 82 72 66 63 58 53 49 46 43 41 42 43 46 45 42 38 33 28 23 20 19 17 17 13 13 10
50 53 58 63 69 75 80 86 91 95 100 101 98 94 88 81 76 68 64 61 56 50 45 43 40 38 39 41 44 45 42 40 35 30 25 21 18 13 11 11 10 11 11
53 58 63 70 76 82 88 91 95 99 98 94 89 85 77 71 64 62 59 53 47 41 38 38 37 37 40 43 43 40 38 35 34 28 23 19 15 12 9 6 4 7 9
58 64 70 76 82 88 92 95 99 96 90 86 80 72 67 61 60 56 51 44 38 34 33 33 34 37 40 42 40 37 33 31 31 26 22 18 15 11 8 2 3 5 8
64 71 77 83 89 93 96 98 95 88 84 76 68 63 58 57 54 48 42 37 31 28 29 32 34 37 40 40 37 33 30 28 28 27 22 19 16 11 7 4 6 7 9
72 78 84 89 93 96 97 93 87 82 74 65 61 55 54 51 46 41 35 29 26 24 27 32 35 37 37 36 33 30 27 25 22 24 23 19 16 11 7 6 8 9 12

GFSGL_250_spd_012.txt.gz
Wind_Speed
47 52 55 58 60 61 64 66 65 63 64 65 61 60 63 64 65 67 69 73 76 78 81 84 88 91 94 98 102 104 109 114 113 116 123 120 119 115 118 122 125 127 130
45 48 53 58 61 61 63 66 67 66 65 64 62 62 64 65 67 70 73 76 79 82 85 87 91 94 99 102 106 111 114 118 121 118 116 111 117 122 125 129 132 132 122
47 47 49 56 60 62 65 68 69 67 64 63 63 64 64 67 70 73 76 79 82 84 87 91 95 99 103 108 112 115 121 123 119 112 108 118 123 128 130 134 128 118 109
49 49 49 52 59 63 66 68 69 65 62 63 63 64 67 70 73 76 79 82 85 89 93 96 100 105 109 113 118 121 119 114 110 116 119 122 128 132 132 119 111 104 97
51 49 47 51 59 64 66 67 67 64 63 61 62 66 69 72 76 78 82 85 89 94 98 102 106 110 115 119 119 115 108 113 120 122 126 129 133 127 115 104 96 92 89
51 49 48 48 55 65 65 61 63 62 61 62 64 68 72 75 78 83 86 89 95 99 103 108 112 117 119 114 107 110 117 123 127 129 132 129 119 109 102 98 89 87 84
50 52 52 52 53 60 61 59 60 60 60 61 66 71 74 78 83 86 90 95 99 104 109 113 117 115 107 105 110 118 125 132 133 132 124 114 105 99 96 93 87 83 75
48 48 50 50 51 56 59 57 55 55 58 64 68 72 77 81 85 90 94 100 104 109 115 117 111 102 106 112 118 125 131 135 134 122 111 102 96 91 88 86 80 76 68
47 47 45 46 47 51 53 51 50 54 60 65 70 75 79 84 89 93 99 103 109 113 112 107 102 107 115 120 126 129 134 133 120 109 101 96 90 86 81 76 72 67 64
41 39 39 39 41 45 46 47 50 58 63 68 72 77 83 87 93 98 104 110 111 107 100 101 107 114 121 128 130 133 128 117 107 101 94 88 84 77 71 65 63 61 57
28 26 29 33 38 41 44 50 56 61 66 72 77 81 86 92 98 104 108 106 101 95 101 107 114 121 126 129 132 123 113 106 101 94 88 81 74 68 62 56 53 49 50
22 26 31 34 38 43 49 54 60 65 71 76 82 87 91 97 102 102 99 94 95 100 107 114 121 125 129 129 118 109 104 98 92 86 77 72 66 60 55 49 46 43 43
25 30 34 38 43 48 53 59 65 70 76 81 86 92 97 98 95 91 89 95 101 107 114 121 126 129 124 113 106 102 96 89 82 75 67 61 58 54 51 48 41 41 37
30 34 39 44 50 55 60 65 70 75 81 87 91 91 90 86 82 89 95 101 106 113 119 125 127 118 110 104 99 93 88 81 74 68 61 54 49 46 43 44 42 36 33
38 43 48 52 57 61 66 71 77 82 85 85 84 80 76 81 87 94 100 105 110 116 122 121 112 106 100 95 87 82 76 69 64 58 53 47 45 45 42 43 39 36 32
45 50 55 59 64 68 72 76 79 78 77 73 70 74 80 85 91 98 104 110 115 118 114 107 101 96 90 84 79 72 65 61 55 50 46 46 46 45 44 41 37 34 29
48 52 56 61 64 68 70 72 70 65 65 67 73 80 85 91 96 102 108 114 116 108 102 97 93 86 80 75 70 64 59 53 49 47 48 48 46 43 42 39 32 30 29
49 53 57 60 61 59 58 59 61 63 70 75 79 85 92 98 103 107 111 110 102 98 94 88 81 76 71 65 60 56 50 49 49 50 49 45 41 38 35 32 28 26 25
47 51 54 54 53 54 56 59 63 68 74 80 87 94 99 105 108 110 103 97 94 89 83 77 72 67 61 57 52 49 49 50 49 45 39 36 33 32 31 26 22 21 20
49 52 54 53 53 53 57 62 67 73 80 86 92 96 101 106 107 101 94 90 83 76 71 67 62 58 53 48 46 47 49 49 45 38 35 32 28 26 25 22 18 16 13
51 52 53 49 50 54 60 66 73 79 85 92 97 100 102 98 93 89 85 77 69 66 62 58 54 50 45 43 46 48 47 45 41 37 32 28 26 21 18 15 13 10 9
47 45 43 47 52 59 66 73 79 85 90 94 99 97 93 87 83 78 70 63 60 57 54 50 46 42 40 42 45 44 43 42 37 33 28 22 19 16 13 10 7 4 5
40 44 49 55 62 69 74 80 86 89 93 95 91 86 82 77 72 64 58 55 52 49 46 43 39 39 40 43 42 41 41 40 36 33 28 26 20 13 10 7 3 0 2
47 53 58 65 71 77 82 86 89 92 90 85 81 76 71 65 58 54 51 48 45 42 39 36 36 38 41 41 39 39 38 37 36 32 28 24 17 13 11 7 5 4 3
56 62 68 73 79 84 87 89 91 87 80 77 73 67 62 54 51 49 46 42 38 35 33 32 35 38 39 37 36 36 34 33 33 31 25 20 15 12 9 7 7 7 6
65 70 75 81 85 87 89 91 85 78 74 70 64 59 51 49 47 44 41 37 32 30 30 33 36 37 35 32 33 34 31 30 30 27 23 19 15 11 7 6 7 9 10

GFSGL_250_spd_015.txt.gz
Wind_Speed
57 56 56 54 53 52 55 55 61 65 66 67 70 74 74 74 73 71 71 72 74 75 75 77 80 81 83 85 87 90 91 93 95 101 107 112 116 120 120 120 113 111 117
58 53 55 54 51 49 50 54 57 63 68 69 70 72 73 73 74 73 74 74 76 78 78 79 82 85 88 89 92 95 96 101 105 107 114 119 122 122 117 112 118 123 127
52 51 53 53 53 49 49 51 55 60 66 70 70 70 72 73 73 74 75 77 77 78 80 84 85 88 91 93 97 99 104 109 113 116 119 122 121 116 117 122 127 131 133
47 48 52 52 51 50 52 52 53 58 63 68 70 71 72 73 73 74 75 76 77 79 83 85 89 92 95 99 101 107 111 116 121 124 121 118 115 121 125 129 133 135 125
45 48 49 49 50 52 52 53 56 57 61 66 70 72 72 73 74 73 74 74 77 81 85 89 93 95 99 104 108 113 118 123 127 122 117 115 122 126 132 135 128 110 107
43 44 47 49 49 51 53 55 58 52 55 61 69 71 71 72 72 72 73 75 79 84 88 93 96 99 103 108 114 119 125 126 123 115 119 123 129 134 133 120 106 99 91
39 39 48 46 48 51 53 57 53 57 58 59 64 70 70 69 69 70 72 75 81 86 91 95 99 104 109 114 119 126 123 120 119 123 125 132 134 129 114 106 95 86 81
38 39 52 50 51 52 54 58 61 59 57 58 59 64 65 66 66 68 72 78 84 89 94 99 104 109 115 121 122 118 116 121 126 129 133 132 123 109 101 92 86 83 75
37 43 45 46 49 52 54 56 56 54 56 53 54 58 61 63 66 70 76 81 87 94 98 104 109 116 121 119 114 113 121 125 130 133 130 117 107 97 88 86 80 73 72
46 41 50 48 52 52 52 51 51 46 44 46 50 56 59 63 69 75 81 87 91 97 104 111 116 116 113 110 115 120 125 129 132 128 113 102 93 86 82 75 70 68 65
46 46 48 49 47 46 41 37 37 39 44 49 53 57 63 69 74 80 86 92 97 104 111 112 110 107 110 116 121 126 129 131 122 110 99 91 85 79 72 67 62 57 58
42 40 35 31 29 30 33 36 40 44 48 53 58 63 69 75 81 88 93 99 105 107 105 102 104 110 115 121 125 129 129 115 105 96 89 84 76 69 64 59 53 51 49
22 22 24 27 29 33 37 42 46 50 55 60 65 71 77 82 88 94 100 101 99 96 99 105 110 115 121 125 127 122 109 100 93 88 83 75 67 62 57 53 48 48 49
20 23 27 31 36 40 44 49 53 58 63 69 74 80 85 90 93 94 92 90 92 98 105 110 116 121 124 125 114 105 96 90 86 80 73 67 63 58 53 51 51 49 46
24 28 33 37 42 47 52 56 61 66 70 75 79 82 84 83 81 84 88 92 97 103 109 116 120 123 119 107 98 92 86 82 75 68 64 60 57 58 56 54 48 44 42
29 33 38 43 49 54 58 63 66 69 72 74 74 73 75 77 81 86 92 98 103 110 116 119 119 108 101 93 87 82 76 70 66 62 59 59 59 56 55 49 45 41 37
30 37 43 46 49 53 57 60 63 66 66 66 68 70 74 79 85 91 97 102 110 114 116 110 100 94 88 82 78 70 66 63 60 58 58 55 52 49 48 42 37 33 29
36 40 43 47 52 55 59 60 61 62 62 62 66 72 79 85 91 96 102 109 112 109 99 93 88 82 77 71 64 62 60 58 57 55 51 47 44 41 39 34 30 26 21
41 44 47 51 54 56 56 56 56 57 60 66 73 80 86 93 98 102 105 105 99 92 87 82 76 72 66 59 56 55 55 56 54 50 45 41 40 36 32 29 24 19 15
45 48 51 52 50 49 49 52 57 62 69 75 81 86 92 98 101 103 98 93 88 83 77 71 67 61 54 52 50 51 53 51 48 44 40 36 35 32 27 23 17 12 11
49 51 46 43 45 49 54 60 67 72 78 84 89 93 94 93 93 90 86 82 77 72 66 62 57 51 48 45 48 50 48 46 43 39 37 30 27 25 21 17 12 10 7
42 39 42 46 51 57 63 69 75 81 86 90 92 91 89 86 83 79 75 71 65 61 57 51 47 45 42 43 46 44 42 42 39 36 32 27 24 20 17 13 10 8 6
37 43 49 55 60 66 71 77 83 87 90 90 88 83 83 79 75 71 65 59 56 51 47 44 43 40 40 43 44 39 40 40 39 34 29 25 21 18 15 13 10 8 7
47 53 58 63 68 73 79 85 88 90 88 83 80 79 75 71 66 60 54 52 47 44 42 41 39 37 41 41 39 35 37 38 36 33 27 22 18 16 15 12 9 8 8
56 60 65 70 76 81 86 89 89 87 81 78 75 72 68 62 56 51 48 44 41 39 38 36 35 38 41 37 33 32 34 35 33 31 25 19 16 14 13 11 7 7 8
62 67 72 77 82 87 89 89 87 81 76 72 68 64 59 53 48 46 41 38 36 35 34 33 35 37 35 34 31 29 31 32 31 28 23 17 14 13 12 9 6 7 8

GFSGL_250_spd_018.txt.gz
Wind_Speed
76 73 72 71 65 64 62 62 61 60 59 56 57 57 58 63 70 75 76 78 80 82 84 85 86 86 86 87 87 88 89 91 91 94 96 98 100 103 108 111 115 118 120
80 80 79 73 64 61 61 62 62 59 59 57 56 56 59 62 66 71 76 78 79 81 83 85 87 88 88 88 89 90 92 96 96 95 99 103 106 110 113 116 119 119 112
72 72 66 64 59 59 60 60 60 59 59 56 55 57 59 59 63 68 72 79 81 82 82 83 85 86 87 88 89 91 94 97 99 98 102 108 112 116 118 119 116 111 115
55 52 54 53 55 56 57 59 59 58 56 55 57 59 62 62 64 67 71 76 80 83 83 83 83 84 85 87 89 92 95 97 100 104 108 112 118 121 119 113 113 119 126
40 43 45 48 50 52 55 57 56 57 53 54 60 62 64 63 67 67 69 72 76 81 81 81 81 82 83 85 88 92 96 101 106 110 114 118 121 119 112 116 121 126 131
37 37 40 44 46 50 52 52 49 51 54 59 62 66 67 67 67 68 69 70 72 74 77 78 80 81 83 86 89 95 101 106 110 114 117 118 116 112 116 123 128 129 124
30 33 35 38 38 40 43 49 50 50 56 61 65 66 68 66 65 65 67 68 65 65 70 75 79 81 84 88 94 101 108 114 117 116 114 110 112 119 124 128 126 117 107
29 30 27 24 35 43 59 53 55 58 62 61 64 67 67 68 67 66 61 58 59 64 71 76 78 83 89 95 100 107 114 117 120 116 112 116 121 125 124 119 107 100 96
21 14 25 34 33 39 52 56 63 61 60 62 63 63 64 63 58 55 56 60 65 70 74 79 85 90 96 102 108 113 119 118 113 115 120 123 125 122 109 99 92 86 82
10 26 32 29 40 47 56 57 57 60 63 63 62 57 52 52 55 59 63 66 71 75 82 88 94 99 104 109 112 114 111 112 116 122 126 125 116 104 94 85 79 74 69
21 30 41 42 46 55 56 61 64 63 58 50 49 52 54 58 61 65 69 73 78 84 91 96 102 106 109 111 108 109 112 116 120 124 122 108 99 90 84 78 70 64 60
38 48 50 54 56 58 62 59 48 46 48 50 53 56 60 64 67 72 77 82 87 92 97 102 104 105 105 107 110 113 117 121 121 111 101 92 86 81 74 69 63 58 51
40 46 49 52 52 44 40 41 44 47 51 54 58 62 66 69 74 79 83 88 91 93 96 98 99 102 105 110 112 117 119 111 101 94 86 82 76 69 64 62 61 57 52
36 35 34 33 34 38 41 43 46 50 55 59 64 67 70 74 77 80 83 85 87 90 94 98 102 106 109 114 116 111 101 93 86 81 78 72 67 63 63 63 62 56 47
24 26 28 31 33 36 39 44 50 55 59 63 67 70 73 74 75 77 80 83 87 92 97 103 108 111 113 109 100 92 86 80 77 72 66 63 63 65 63 59 53 47 39
23 24 26 30 34 39 44 50 54 58 63 67 68 67 68 69 72 77 83 89 94 99 104 107 107 105 99 92 85 79 74 72 67 62 60 62 61 58 55 46 41 35 28
22 26 30 36 41 45 50 55 58 62 62 60 60 63 67 72 78 84 90 96 101 104 104 101 97 90 85 79 73 70 66 61 58 59 61 57 55 51 44 38 32 27 22
29 34 39 42 47 49 52 56 59 56 55 58 62 69 76 82 86 92 97 101 102 99 95 89 84 79 73 67 64 60 55 54 56 58 54 51 48 42 38 33 28 23 18
40 43 45 48 50 52 54 52 50 54 59 66 73 79 84 89 94 97 98 98 94 88 84 79 73 67 62 57 53 50 50 54 55 50 48 43 40 38 34 29 23 18 13
47 48 48 47 47 45 45 50 56 63 68 74 80 86 91 96 97 96 93 89 84 78 74 69 63 58 52 48 47 48 51 53 46 46 41 37 34 31 28 22 17 14 12
33 33 34 36 40 46 53 59 64 70 76 83 88 92 94 94 92 88 84 79 75 71 65 59 54 48 44 43 45 48 50 43 41 40 36 32 27 24 20 17 14 12 13
36 38 40 44 49 54 60 66 71 77 84 89 93 93 91 88 84 80 76 73 68 62 55 50 44 40 40 41 44 46 42 37 38 34 31 27 23 20 16 14 12 14 13
40 43 46 50 56 61 67 72 78 84 90 94 93 88 85 79 76 72 69 64 58 52 48 41 36 35 38 41 43 42 37 35 35 31 29 24 20 17 14 13 14 14 14
46 48 52 58 63 68 75 80 86 91 94 93 86 82 78 73 68 65 60 53 49 44 40 35 33 32 36 39 39 38 34 32 31 27 24 21 17 13 12 13 13 13 14
52 55 60 65 69 76 81 87 93 95 94 86 79 76 70 66 61 55 50 46 41 37 33 31 32 34 37 35 36 34 32 29 29 26 23 20 16 11 11 11 11 13 15
58 62 66 70 75 81 87 94 96 94 87 79 74 68 63 57 51 47 42 38 35 32 30 29 32 34 33 33 34 32 29 26 25 23 20 18 15 10 9 8 10 13 15

GFSGL_250_spd_021.txt.gz
Wind_Speed
98 92 87 82 80 78 73 66 66 65 63 62 65 62 64 64 66 66 66 65 63 65 67 69 72 77 83 89 91 93 93 92 90 92 95 99 102 104 105 107 108 109 111
84 82 78 78 78 72 67 67 66 64 63 67 65 63 65 66 67 67 68 67 66 66 67 71 73 75 79 83 88 93 93 93 90 88 91 94 97 100 101 102 106 109 109
77 70 67 68 62 60 61 63 64 66 68 63 62 63 65 67 66 68 69 67 68 69 72 76 77 79 79 79 80 83 88 90 91 90 90 93 96 99 99 101 104 107 113
66 65 59 59 56 56 60 63 66 62 63 60 59 64 65 65 66 66 66 69 72 73 75 76 77 77 78 76 76 78 80 84 86 87 90 93 95 96 97 100 107 114 121
57 58 50 46 47 52 54 55 56 56 54 57 60 61 62 62 65 66 69 73 74 77 77 75 75 74 72 70 68 70 74 79 84 88 92 94 96 101 105 111 115 118 121
46 44 35 36 40 43 45 44 45 48 54 57 59 57 59 61 63 67 73 74 75 76 75 71 67 65 65 66 68 72 78 83 86 88 93 98 103 109 113 114 108 107 115
36 37 36 36 35 34 35 37 43 51 58 56 52 58 61 65 68 69 73 74 73 70 66 64 65 68 71 74 78 82 86 91 94 97 101 107 108 109 102 106 110 113 116
32 31 31 29 27 25 29 26 37 34 53 52 62 64 63 67 71 72 68 66 63 63 65 69 72 76 79 82 85 91 96 101 105 109 109 105 101 104 106 110 110 109 106
26 24 21 20 13 22 23 27 44 45 50 61 70 68 68 75 69 65 63 63 66 70 73 76 78 82 86 89 93 97 103 106 106 102 101 104 108 110 108 105 101 96 93
23 23 26 24 29 36 40 40 46 56 58 56 64 68 76 73 67 65 69 70 72 75 78 81 84 88 92 95 97 98 100 101 103 108 111 112 110 105 98 92 86 84 80
28 28 22 22 29 45 48 50 52 51 54 59 62 72 73 64 67 69 71 73 76 79 83 87 90 92 94 95 97 98 101 107 112 113 113 109 101 93 87 83 76 69 67
33 32 35 34 39 39 43 44 47 53 59 65 70 64 64 66 68 71 74 76 79 82 85 86 88 91 94 98 101 105 110 112 110 105 99 93 88 83 78 72 67 65 62
22 28 30 32 35 39 42 47 53 60 66 59 59 60 62 66 70 74 77 78 77 79 82 87 91 96 101 104 106 109 106 100 95 91 86 81 77 72 66 66 64 60 56
23 30 35 40 44 49 53 56 56 54 54 55 57 61 65 69 72 72 72 73 77 83 89 96 99 103 105 107 104 98 93 88 84 78 75 72 67 64 63 62 61 57 51
27 29 30 32 34 36 40 44 47 49 52 55 59 65 69 68 66 68 74 80 85 92 97 102 106 106 104 97 90 85 81 76 71 69 66 62 60 61 58 57 53 48 43
17 21 25 30 35 38 40 43 47 51 55 59 63 63 58 63 69 76 82 88 93 98 102 104 103 99 93 85 79 73 69 66 65 61 56 56 57 55 55 48 43 40 35
21 23 27 31 34 38 44 49 52 55 58 58 53 59 66 71 77 83 89 95 98 101 102 98 93 86 79 74 69 65 63 60 56 51 53 53 51 50 46 39 36 32 28
26 31 35 39 44 48 51 53 53 49 46 53 59 65 71 77 83 89 94 98 101 98 93 86 80 75 70 65 61 60 55 50 49 51 48 47 47 45 38 35 31 26 22
33 32 31 30 30 31 33 37 43 49 53 59 65 72 78 85 90 94 97 98 94 87 80 75 70 65 60 58 55 52 47 46 49 47 44 45 41 36 33 29 25 21 17
27 28 29 31 34 37 41 45 49 55 61 66 72 79 86 93 95 94 93 87 81 76 70 65 60 56 54 52 47 43 42 45 44 42 41 39 34 30 27 22 20 17 17
28 30 33 36 39 43 48 52 58 63 68 73 79 85 91 94 94 88 81 77 72 66 61 56 53 51 47 45 40 38 42 43 40 39 37 34 29 25 22 19 17 17 16
34 37 40 43 46 50 54 59 65 70 76 80 86 92 91 90 82 76 72 67 62 56 52 50 48 44 40 37 36 39 39 41 36 36 33 29 25 22 18 16 15 14 14
40 43 46 49 53 58 63 68 73 78 81 86 92 93 90 79 75 69 64 59 54 50 48 44 41 37 34 34 36 37 38 38 34 32 30 26 22 20 17 13 12 13 14
48 49 52 55 60 65 69 73 78 82 87 92 93 88 78 74 67 63 57 52 48 45 42 38 34 31 32 35 36 38 37 35 31 28 25 22 19 17 14 10 11 12 14
49 52 55 60 65 68 72 78 82 88 92 94 90 78 73 67 62 57 51 46 43 39 35 31 28 30 32 34 36 37 35 33 29 26 25 20 16 15 12 9 11 12 13
49 52 57 61 67 72 77 82 88 94 94 94 79 72 67 61 55 49 45 41 37 33 29 27 30 32 33 34 35 36 34 30 27 24 22 18 13 12 10 8 11 12 12

GFSGL_250_spd_024.txt.gz
Wind_Speed
108 106 103 99 95 91 88 81 73 75 73 71 70 69 70 70 71 69 69 71 68 70 72 74 72 74 74 73 73 76 80 80 80 81 82 84 86 88 90 95 100 102 103
96 100 99 94 93 94 90 85 82 74 67 67 67 70 69 68 68 69 71 69 69 71 75 74 73 71 72 74 77 80 83 85 85 83 84 86 85 86 86 87 89 94 98
69 72 76 81 87 84 82 77 74 74 72 71 71 68 66 66 68 70 68 68 70 73 73 70 69 73 75 78 80 83 84 83 82 80 79 78 77 79 78 80 83 88 93
55 61 69 73 76 76 72 68 67 66 64 64 60 58 62 65 70 68 67 68 70 70 69 71 73 77 80 84 84 82 78 75 73 73 75 76 78 80 81 83 87 93 96
38 42 44 50 52 56 53 50 49 49 50 51 52 55 64 67 65 64 67 70 70 65 67 72 79 82 83 79 74 73 75 78 80 81 82 84 85 88 91 94 96 101 107
26 27 26 33 38 37 36 39 40 43 44 49 51 56 58 59 61 66 71 70 68 70 74 81 78 75 72 73 76 79 82 85 86 87 89 90 92 95 97 97 96 97 100
26 28 26 28 33 32 32 32 33 37 39 43 40 41 55 63 67 71 74 69 68 69 77 80 81 77 78 80 83 86 89 91 92 93 93 95 92 94 97 101 103 103 106
24 28 33 33 29 25 23 20 18 36 35 29 38 58 66 68 66 60 59 63 71 80 85 86 82 85 86 88 89 91 94 96 96 97 97 98 101 103 103 104 104 103 102
29 27 28 27 26 23 16 22 37 36 33 45 53 53 61 66 67 66 70 76 81 85 87 84 87 89 90 92 92 91 92 95 99 102 104 105 106 106 103 100 98 94 91
27 25 23 22 22 31 26 33 41 43 37 50 56 57 58 61 67 68 72 76 81 84 84 87 90 91 92 89 89 92 97 102 107 109 110 109 106 101 97 91 87 83 81
24 24 28 29 32 33 35 39 44 46 51 51 54 57 59 62 64 71 76 79 78 82 86 91 91 87 87 92 97 100 104 107 110 110 108 102 98 93 88 82 77 72 69
24 24 26 26 31 35 36 41 47 51 53 54 55 61 65 65 70 76 73 74 79 85 89 85 83 90 95 99 102 105 109 109 107 103 97 92 89 83 77 74 68 64 62
19 24 28 32 33 33 35 37 45 48 53 57 57 60 64 69 73 70 73 79 82 81 78 85 89 94 99 103 107 108 107 102 96 92 88 83 76 72 67 66 64 62 58
16 19 23 30 33 36 39 42 45 47 50 55 62 67 66 65 68 73 76 77 73 79 83 89 94 100 104 107 106 102 97 92 88 83 77 70 66 63 62 63 60 58 54
11 17 22 28 32 34 37 40 42 46 49 52 55 58 62 66 69 70 67 73 78 85 91 96 102 106 105 102 98 92 87 83 77 69 65 61 60 60 58 54 55 51 47
14 17 20 23 26 30 34 39 43 46 49 53 58 61 61 59 60 67 73 80 85 90 96 101 103 101 97 91 85 80 75 70 64 59 55 54 55 55 51 50 48 43 38
20 22 25 27 30 34 38 42 46 49 50 46 43 47 55 59 67 73 80 86 90 96 100 99 96 91 84 78 73 68 61 58 54 51 50 51 51 47 47 45 40 36 33
24 27 29 29 28 28 28 31 34 38 41 45 50 56 61 66 72 79 85 91 96 97 94 88 82 76 71 67 61 57 53 49 47 45 47 48 46 44 43 39 35 31 29
27 26 27 30 29 30 33 37 40 43 48 52 58 63 69 74 79 84 92 95 93 87 81 75 68 64 60 56 53 49 45 42 41 42 45 45 42 41 38 34 30 29 28
29 30 31 32 36 39 41 44 48 52 55 60 65 69 74 79 86 92 91 86 78 73 66 62 57 54 51 48 45 42 39 38 39 41 43 41 38 37 33 29 26 25 24
29 32 37 40 44 47 50 52 55 58 61 64 68 73 80 88 91 89 79 72 67 61 56 53 51 47 43 41 37 34 36 37 38 39 40 35 34 32 28 25 22 24 24
36 40 45 48 49 51 53 54 57 60 64 70 74 81 88 92 83 74 70 64 59 54 51 48 44 41 38 34 32 34 35 36 37 36 36 32 30 27 23 20 20 21 21
40 43 44 44 44 47 50 55 59 65 70 75 81 87 91 88 76 70 64 58 54 50 47 43 39 34 32 31 32 34 35 36 35 33 31 29 27 24 19 15 16 18 18
42 45 48 49 51 54 58 62 66 70 74 79 86 90 91 75 69 64 59 55 51 48 43 38 32 30 31 33 34 35 35 35 33 31 27 25 23 20 15 13 14 16 16
47 51 54 56 57 58 61 65 70 75 80 86 91 94 77 72 66 60 56 51 48 43 38 33 28 29 32 35 35 36 35 34 32 29 24 23 20 16 11 10 12 14 15
52 56 59 61 62 65 68 71 76 81 85 90 92 83 73 69 62 57 52 48 44 39 35 32 29 30 33 36 37 36 35 32 30 26 21 20 16 12 7 8 10 12 12

GFSGL_250_spd_027.txt.gz
Wind_Speed
103 102 100 96 94 93 92 90 89 90 90 86 83 78 75 75 75 73 72 71 72 74 74 76 76 74 76 75 74 76 74 73 74 79 84 86 87 87 85 83 83 82 82
101 96 95 96 96 94 92 92 90 88 89 87 85 80 76 74 72 70 71 70 73 75 73 75 76 78 79 77 77 76 75 78 84 85 84 79 79 80 77 78 81 83 83
79 79 78 84 87 87 89 91 92 90 93 89 86 79 75 75 73 70 69 70 71 72 74 75 77 80 80 78 81 79 82 88 90 80 75 78 80 83 83 85 86 88 90
70 71 70 74 73 72 74 76 78 77 77 85 83 75 72 69 69 66 65 69 69 69 71 78 79 78 79 82 82 86 87 88 82 80 82 83 85 88 89 90 92 94 92
51 52 53 59 60 61 62 64 65 60 62 70 71 67 63 61 63 65 66 64 64 73 79 80 78 80 82 83 84 85 82 82 84 86 90 92 92 95 94 91 89 92 98
29 30 33 38 42 46 49 54 57 57 51 51 54 55 53 55 56 56 58 67 72 78 78 77 75 74 73 81 77 79 83 88 91 94 98 97 94 93 94 96 99 100 104
16 21 24 23 21 19 21 24 28 28 31 33 34 39 40 44 48 55 61 70 71 73 74 74 72 74 77 80 82 86 90 94 97 101 96 95 96 100 102 104 105 105 106
4 13 16 23 25 30 29 25 20 20 23 28 29 24 33 42 53 59 60 66 71 70 68 72 77 78 82 85 90 91 96 100 102 100 100 102 105 109 108 106 104 102 100
26 25 35 33 35 25 23 20 19 21 20 24 25 34 48 49 53 56 63 69 75 79 78 81 83 85 90 92 93 96 100 104 102 103 106 110 113 112 107 104 99 95 92
30 29 29 26 27 27 20 18 19 18 19 29 35 38 48 54 61 63 65 69 76 78 80 85 87 88 91 93 97 100 102 101 105 109 113 116 114 111 104 95 90 86 81
24 23 24 23 21 21 24 24 26 28 36 42 47 52 54 59 64 69 69 74 75 78 83 86 89 91 92 96 99 99 101 106 111 113 118 117 111 101 93 87 80 75 72
4 4 8 15 21 23 22 23 30 36 42 45 50 54 57 60 63 67 72 75 79 84 86 88 89 92 96 97 97 102 107 110 113 116 115 107 99 92 84 79 73 68 60
4 6 11 15 19 23 28 31 29 38 40 47 50 54 58 63 65 67 72 75 76 79 83 88 92 92 93 98 102 107 111 113 112 109 100 93 87 79 72 70 64 60 60
10 11 13 15 20 24 28 30 35 37 40 43 47 51 55 57 59 62 67 72 77 81 86 85 87 92 97 103 106 109 110 108 101 95 88 80 74 67 63 59 59 61 57
8 10 14 18 21 26 32 35 38 40 41 43 46 50 53 57 62 67 71 73 73 76 83 89 93 97 101 104 106 105 99 91 87 79 74 67 64 60 54 55 57 55 51
12 15 17 19 22 24 26 29 32 36 41 45 49 51 52 51 51 57 65 71 77 83 86 89 96 100 101 99 92 85 82 76 71 65 60 57 54 52 52 52 50 47 46
15 19 23 27 29 32 32 33 34 36 36 38 41 46 50 56 61 67 72 77 80 85 91 94 95 92 86 82 78 71 66 61 58 53 49 48 48 50 49 47 45 41 37
20 24 28 28 29 30 33 36 37 38 41 45 49 54 59 63 67 73 76 80 84 90 91 89 84 77 73 67 61 57 54 49 45 42 43 46 46 46 45 41 39 39 35
26 28 29 29 30 32 35 39 44 47 50 54 57 60 65 67 70 74 78 84 87 84 82 76 70 65 60 55 52 48 43 38 37 40 43 44 44 43 38 37 34 33 32
26 26 28 30 33 37 41 44 45 47 49 52 55 58 63 67 71 75 82 83 80 74 70 65 60 54 50 47 42 38 36 36 38 40 42 43 40 37 35 33 31 30 26
28 30 33 37 38 38 40 42 44 46 48 51 54 59 64 71 76 81 79 72 70 69 63 58 52 47 43 40 35 34 37 37 38 40 41 39 36 31 31 30 29 25 23
33 35 38 39 40 42 45 47 49 51 53 55 59 66 72 78 82 79 71 69 67 63 58 53 48 44 40 35 32 34 37 36 37 38 39 37 32 28 27 26 23 22 21
37 39 41 43 46 49 52 53 55 58 61 64 68 74 78 84 81 74 67 67 64 59 55 49 45 41 38 32 31 32 35 36 36 36 34 31 28 26 24 22 19 18 18
41 44 45 48 51 54 56 58 62 66 69 71 76 81 85 83 76 70 67 65 61 56 51 46 43 39 36 33 33 34 36 35 36 34 32 27 24 23 21 18 16 16 17
46 48 50 53 57 59 62 66 70 73 77 81 83 86 84 78 74 69 67 63 58 53 47 44 40 38 34 31 33 36 37 37 35 30 27 24 22 20 17 13 14 15 16
48 51 54 58 61 64 69 73 76 81 84 86 89 86 80 77 71 67 64 60 55 49 43 41 39 37 33 31 31 34 36 36 32 26 24 21 18 17 13 11 12 12 14

GFSGL_250_spd_030.txt.gz
Wind_Speed
101 102 100 101 100 99 96 94 92 91 90 90 91 89 87 86 83 82 79 76 76 75 76 78 77 79 80 79 78 81 83 84 79 82 83 83 82 87 90 88 91 88 83
98 99 101 101 103 101 97 94 92 89 87 86 87 85 83 83 82 79 77 77 78 78 78 77 73 82 80 80 82 82 84 85 82 83 82 80 83 83 86 90 88 87 86
82 83 81 84 87 86 86 85 83 85 85 85 87 87 85 85 83 81 80 79 79 78 79 77 74 76 81 83 85 86 85 87 86 78 75 79 84 86 86 83 88 91 90
62 61 64 69 73 74 74 79 75 74 75 77 81 82 82 83 83 84 84 83 81 78 76 75 73 68 78 80 86 88 87 88 86 82 85 85 87 85 84 88 88 90 89
46 46 47 51 53 56 62 70 69 64 65 65 67 68 67 68 68 74 79 79 75 71 68 72 72 76 81 84 84 89 90 81 78 81 89 94 87 85 90 91 89 92 98
36 32 29 29 33 38 46 51 54 54 55 56 56 52 51 55 57 64 62 63 63 62 67 72 75 78 80 83 88 85 83 83 86 93 100 94 92 94 94 95 96 98 104
31 23 18 16 17 20 25 32 38 44 49 48 48 50 53 52 49 42 45 48 51 58 61 69 73 76 82 87 80 76 86 92 96 94 96 100 97 97 98 99 104 108 113
26 25 16 8 6 12 15 15 16 18 22 26 27 27 29 26 20 28 39 49 54 59 65 70 72 78 80 79 80 86 91 93 96 102 103 100 100 101 102 106 111 116 119
16 21 17 17 19 14 20 24 24 25 22 19 16 16 18 23 26 39 42 45 51 58 63 68 77 83 83 86 90 94 98 101 106 105 103 102 104 108 110 114 119 120 121
12 11 16 18 19 25 25 24 19 15 20 18 13 17 22 30 38 44 49 54 57 60 66 75 80 84 87 90 93 98 100 102 103 104 104 106 110 115 118 120 121 119 106
13 12 15 11 12 11 8 10 8 9 10 13 22 26 32 37 43 45 48 53 58 64 71 77 82 85 90 95 96 97 97 97 100 104 109 113 116 118 122 121 109 98 90
15 15 14 13 10 7 3 3 8 9 10 14 19 23 28 34 41 47 52 58 63 71 76 81 83 87 89 90 90 92 95 100 106 110 113 117 119 120 111 100 91 85 77
13 14 16 17 15 10 10 14 15 19 23 29 27 31 38 42 49 55 60 64 68 71 75 77 80 83 85 88 92 98 103 107 109 114 117 117 109 100 93 86 79 75 68
13 11 11 11 16 19 20 21 24 28 31 33 37 40 43 46 50 53 56 60 65 68 72 73 77 84 90 95 100 103 105 108 112 112 104 96 91 83 78 74 70 63 58
12 12 13 16 19 21 22 23 26 28 30 33 36 39 42 46 50 52 55 58 63 69 74 81 87 92 94 98 102 104 106 104 96 90 85 79 75 72 66 60 56 54 55
11 11 13 16 19 22 25 28 30 32 31 34 37 39 42 46 51 55 60 65 71 77 82 86 88 91 96 100 102 99 91 87 82 75 70 68 65 60 53 50 51 52 53
10 15 20 23 26 26 24 25 28 31 33 37 41 46 50 54 59 63 68 70 72 76 80 86 90 94 96 95 86 83 78 72 67 63 60 57 53 49 49 51 51 50 46
15 21 24 24 23 24 26 29 32 35 39 42 44 46 47 50 54 59 62 66 71 78 83 87 90 90 84 78 74 68 64 60 55 51 48 48 47 48 50 49 47 44 42
21 23 25 26 26 28 31 35 37 37 38 40 43 45 48 52 58 61 66 71 75 80 83 84 80 75 72 67 62 57 53 49 45 44 46 47 47 48 47 45 42 37 35
25 27 29 31 33 35 38 39 41 43 46 49 50 52 56 60 65 68 70 76 79 79 77 74 69 66 62 58 52 49 47 43 41 43 45 46 46 46 43 41 36 33 26
30 31 33 37 37 39 43 44 47 49 51 54 56 59 62 67 69 74 76 76 75 72 68 65 64 60 55 49 46 45 43 40 40 41 45 46 45 42 38 35 31 27 22
34 36 39 42 42 44 47 50 53 55 58 61 63 66 69 73 76 76 74 72 69 64 61 61 59 55 48 44 41 40 41 39 39 40 43 45 43 38 33 29 24 20 21
40 42 44 46 48 49 53 55 57 60 63 67 69 72 77 79 77 73 71 69 63 59 59 59 56 49 43 40 38 37 37 37 37 40 41 42 37 33 29 24 19 18 18
45 47 49 51 51 53 56 59 62 64 68 70 73 78 80 81 74 69 65 62 58 58 59 56 51 44 40 38 36 36 35 35 38 38 41 38 31 28 22 18 16 16 15
49 51 52 53 54 57 60 63 66 69 71 74 79 82 83 77 71 67 63 60 59 58 56 52 46 41 38 37 36 34 33 34 38 39 36 32 27 22 16 12 12 13 13
51 52 53 54 57 61 63 67 70 73 75 80 85 85 81 75 71 68 63 61 58 58 53 47 41 38 36 35 33 32 32 34 37 36 31 27 22 16 11 9 10 11 12

GFSGL_250_spd_033.txt.gz
Wind_Speed
89 91 93 95 96 97 99 101 103 103 103 102 100 97 95 92 91 89 90 89 83 83 82 81 78 80 82 80 86 86 83 84 85 82 87 87 89 90 90 91 81 78 79
82 86 88 92 93 93 92 90 90 94 98 101 98 94 90 88 84 80 79 80 84 86 83 84 88 85 82 70 76 82 85 86 90 89 92 90 91 94 90 89 80 80 81
74 74 76 79 86 87 86 83 76 78 81 85 89 92 87 83 84 82 80 77 75 79 80 81 84 83 82 79 83 83 83 87 89 90 86 91 95 94 93 80 81 92 96
54 54 54 58 61 65 66 66 66 63 62 70 76 82 85 84 81 80 77 78 80 80 82 83 85 83 85 84 84 80 82 84 89 90 93 96 96 97 83 85 90 94 96
48 52 54 46 45 45 49 50 50 51 50 54 64 71 74 77 79 78 78 75 75 76 78 80 80 78 81 85 85 83 86 86 88 91 95 94 91 85 84 90 94 97 99
48 55 55 41 31 30 32 34 35 37 40 43 45 51 58 59 59 61 61 64 66 68 71 71 72 72 74 69 75 79 80 86 89 93 94 94 87 90 91 91 96 96 96
43 49 55 49 43 25 23 22 21 22 23 27 33 42 49 50 48 46 47 55 63 59 54 54 50 51 59 67 72 75 83 86 88 90 87 88 93 96 97 99 101 98 103
34 38 47 47 47 34 31 19 15 9 9 14 19 25 33 39 42 46 49 51 46 42 37 42 48 52 64 69 72 78 84 87 87 87 91 95 97 97 98 98 103 105 109
29 29 34 37 38 36 28 23 14 7 1 6 13 16 21 28 34 38 38 34 34 43 45 49 56 61 67 74 74 76 82 89 92 95 97 96 95 96 100 104 107 111 113
25 24 25 28 25 27 32 32 22 22 18 8 2 11 14 12 16 26 35 40 40 45 47 54 60 63 67 70 73 78 84 90 95 97 95 97 99 102 105 109 110 112 114
22 20 19 23 24 25 25 26 25 25 20 15 19 16 5 10 16 22 28 34 38 44 51 57 62 66 69 74 79 84 89 93 94 95 97 99 102 106 107 110 112 113 110
16 20 19 19 20 23 23 23 24 22 20 18 14 14 15 19 24 28 33 39 45 52 57 60 66 71 76 81 84 86 88 89 92 97 100 101 103 106 110 110 105 96 89
15 14 15 16 16 19 20 21 21 21 22 24 26 28 30 31 33 37 41 45 51 56 60 64 67 70 74 78 83 89 93 95 96 97 100 103 106 107 100 93 88 80 73
15 15 14 15 16 17 18 18 20 21 23 25 27 29 30 32 34 37 41 45 50 54 59 64 70 76 81 87 90 92 93 94 96 99 101 102 95 88 85 78 73 66 59
14 14 13 10 14 17 20 22 22 22 22 23 25 27 31 34 38 42 47 52 56 59 62 66 72 77 82 88 91 93 93 96 99 99 93 85 83 76 68 64 58 55 53
14 11 12 16 20 23 24 23 22 23 24 27 30 33 36 38 39 42 45 50 54 58 63 70 76 82 87 90 93 95 96 96 90 83 79 75 69 63 57 51 52 52 53
13 14 16 20 21 24 25 25 25 27 30 33 34 37 41 45 48 50 53 58 62 67 72 79 84 88 91 93 95 93 89 81 77 74 68 63 59 53 48 48 50 51 51
17 18 20 22 25 27 29 31 33 34 37 39 41 43 46 50 53 58 61 65 70 74 79 83 87 90 90 88 81 76 72 70 67 63 58 54 50 45 44 49 49 50 48
22 22 24 27 29 31 33 36 38 39 41 44 46 50 52 56 60 64 68 70 76 80 83 86 87 84 77 73 68 65 64 61 58 53 48 46 44 44 45 48 48 44 41
25 26 30 32 34 35 39 42 44 46 48 50 52 54 58 61 66 70 73 78 81 82 82 80 76 72 67 63 62 60 56 53 49 45 42 41 40 42 44 45 42 38 32
29 31 33 36 38 40 44 47 48 51 53 55 57 60 63 67 72 75 80 81 78 74 74 72 67 64 61 59 57 53 48 46 43 39 37 35 37 41 42 40 35 31 29
35 37 38 40 43 46 49 52 54 57 58 60 62 65 68 73 76 80 82 78 73 71 69 65 62 59 58 55 50 46 42 40 38 36 32 32 37 41 39 33 29 26 23
40 42 43 45 48 51 53 55 57 59 62 64 67 69 73 76 80 82 79 71 70 68 63 60 57 56 54 48 44 42 38 34 31 30 31 33 37 38 33 28 24 21 18
45 47 47 49 53 54 55 57 60 63 66 68 70 72 76 79 82 81 74 70 68 64 59 57 55 53 47 43 41 38 33 30 28 30 32 35 36 31 27 22 19 15 14
50 51 52 55 56 57 57 60 63 67 68 70 72 75 78 81 80 74 71 69 66 61 56 56 52 47 44 41 37 34 29 26 28 33 35 34 29 25 21 17 13 11 12
52 54 55 56 57 58 59 63 66 68 70 71 74 76 78 79 75 72 71 67 63 57 56 53 47 43 40 37 33 29 27 27 30 32 33 28 24 21 15 11 9 9 10

GFSGL_250_spd_036.txt.gz
Wind_Speed
101 98 95 94 93 93 94 95 97 99 101 103 105 106 107 108 107 106 106 104 101 97 94 91 86 86 90 91 91 91 89 85 91 87 90 93 92 97 94 96 96 95 94
90 87 84 83 85 84 82 83 85 84 86 89 94 98 101 104 106 106 104 100 99 96 90 87 88 88 89 89 92 91 89 83 84 84 95 97 98 100 97 96 104 101 99
71 72 72 70 67 64 57 62 77 86 88 90 92 90 88 91 96 100 102 101 98 91 86 81 80 81 78 79 83 86 87 88 90 95 99 96 93 95 99 101 99 100 100
64 60 52 52 54 58 56 59 70 70 67 66 68 71 74 76 78 84 93 96 94 89 83 76 76 78 79 82 84 86 86 88 91 93 96 97 100 98 97 97 101 106 100
52 48 50 44 44 46 49 45 44 46 48 50 53 57 61 65 65 71 78 83 83 82 82 77 74 75 79 80 85 85 87 87 93 95 95 97 92 96 98 99 101 100 98
45 38 39 44 45 50 48 40 32 31 32 34 36 39 42 45 52 56 60 65 67 69 73 75 75 76 78 80 87 87 87 86 88 87 89 91 91 91 91 92 91 94 95
37 29 35 42 42 42 45 38 33 28 25 21 19 22 26 31 38 41 43 44 47 54 61 61 69 73 74 70 71 71 71 73 77 78 83 84 85 86 87 88 93 95 97
31 31 30 32 32 33 34 33 31 32 26 26 19 14 12 15 22 30 34 37 42 47 51 54 58 61 61 64 66 71 75 73 71 73 74 78 81 86 91 94 99 101 101
29 28 28 30 27 28 30 32 31 31 30 30 28 31 14 1 10 16 24 31 36 40 43 45 47 54 59 65 67 66 68 72 75 78 82 85 88 93 96 98 97 96 98
32 26 24 25 26 25 25 25 27 28 28 27 28 29 25 24 19 10 8 15 23 29 33 36 44 50 53 60 62 66 70 74 78 83 87 91 94 95 94 93 96 99 101
28 27 25 24 22 20 20 22 25 24 23 23 23 23 22 19 16 14 15 19 23 27 33 39 46 52 57 62 66 72 78 82 86 89 91 92 95 96 97 97 97 96 97
26 26 25 22 21 19 21 21 20 21 23 24 23 21 20 20 18 19 21 24 28 32 38 44 50 56 61 65 70 75 79 84 89 93 96 96 95 94 94 94 95 97 96
26 24 21 20 19 19 19 22 25 27 26 24 24 24 24 24 25 26 28 30 33 37 42 47 52 58 64 69 74 80 84 88 90 92 95 95 95 96 98 96 92 85 79
23 23 23 20 18 18 22 25 26 26 25 24 24 24 25 27 29 32 34 36 38 42 46 51 56 62 68 74 81 86 90 94 95 96 97 96 94 91 85 79 75 75 71
19 19 19 18 17 19 22 22 22 22 22 24 26 28 30 31 32 35 40 44 47 50 54 59 65 71 77 82 86 89 92 95 95 93 87 82 78 74 72 72 69 63 57
21 21 20 19 19 21 22 24 25 26 29 31 32 34 36 37 40 43 46 50 53 57 63 69 74 77 82 85 88 90 90 88 84 79 76 72 68 68 66 60 56 52 48
21 21 22 22 23 24 26 28 30 31 33 35 38 40 42 45 47 49 51 56 61 64 70 75 78 82 85 85 85 85 82 77 73 70 68 67 65 60 54 50 46 43 41
25 25 25 25 26 27 29 32 35 37 39 41 44 45 48 51 53 56 58 63 67 71 77 80 83 86 81 81 81 78 74 68 65 64 63 59 54 49 45 44 40 39 42
27 28 28 29 30 30 33 36 39 41 44 47 50 51 54 56 57 61 65 69 73 77 82 85 85 78 78 79 76 69 65 62 61 57 52 49 46 43 40 39 38 38 43
30 31 32 34 34 34 36 40 43 45 48 52 55 57 59 61 63 67 70 74 78 81 85 84 76 75 75 71 65 61 60 58 53 48 43 42 40 37 36 36 37 40 39
33 35 36 37 38 39 42 45 48 50 52 56 59 61 63 66 68 70 74 78 81 86 85 76 75 74 70 64 60 58 54 49 45 43 39 37 35 33 34 38 39 38 35
37 39 40 42 43 43 45 50 53 55 56 60 62 63 66 69 70 74 78 81 85 87 77 74 73 69 62 59 56 52 46 43 41 39 37 33 30 34 38 38 36 33 31
40 42 44 46 47 48 51 54 57 59 60 62 63 65 68 70 73 77 81 84 87 80 75 73 68 62 58 54 49 46 43 40 36 35 34 30 31 34 36 33 31 29 25
38 43 46 49 51 53 55 58 59 59 60 62 64 68 70 73 75 80 82 85 83 75 72 69 63 58 52 48 46 45 41 38 34 31 30 31 33 34 31 29 26 22 19
41 42 44 46 48 50 53 54 55 58 61 64 67 69 70 73 77 80 81 83 75 72 68 66 60 53 48 45 44 41 37 34 31 30 31 33 32 29 27 23 19 17 16
44 46 48 49 50 52 53 54 58 62 64 67 69 70 72 74 77 78 81 75 72 69 65 62 56 49 47 43 39 35 32 31 31 31 31 30 29 25 20 16 14 14 14

GFSGL_250_spd_039.txt.gz
Wind_Speed
92 93 97 100 106 108 107 103 101 100 97 93 90 92 92 92 94 96 100 104 106 105 105 105 102 98 97 93 86 78 60 63 71 78 80 80 83 95 93 92 96 96 96
95 101 105 101 96 95 95 91 85 84 82 83 89 94 93 96 100 104 104 102 103 101 101 102 102 97 92 89 87 87 89 92 96 100 99 98 102 102 104 101 106 104 104
99 98 92 89 86 83 79 76 72 72 79 85 93 91 92 92 97 99 103 103 102 101 99 97 97 95 93 89 86 87 90 95 96 98 104 108 106 100 98 97 98 100 100
85 81 79 76 71 69 67 62 65 65 69 74 78 76 78 81 75 70 71 77 81 93 97 97 93 87 86 87 88 86 86 88 91 91 93 95 99 99 100 101 103 102 103
74 68 68 65 62 58 57 57 60 55 59 63 65 59 59 55 54 55 56 58 60 63 72 79 81 81 80 79 81 82 84 85 85 87 90 91 99 99 97 100 102 103 103
60 61 59 57 55 53 53 49 49 52 52 56 52 50 42 37 33 34 37 41 44 48 51 56 59 63 58 65 72 74 79 82 84 85 88 90 91 99 102 97 95 90 90
55 53 51 49 49 47 46 46 48 44 41 42 39 40 36 29 24 22 23 23 27 32 35 40 45 50 58 65 62 65 71 77 79 84 89 92 90 88 85 85 88 87 90
47 46 44 42 44 41 43 46 43 38 32 30 33 32 32 33 24 21 19 16 14 13 14 19 27 36 44 47 54 62 64 67 68 71 73 80 81 81 82 84 88 90 92
40 39 38 37 40 41 43 43 39 31 30 31 34 36 35 32 29 28 25 22 17 14 12 16 22 29 35 41 47 51 54 57 60 64 67 73 79 83 87 91 93 94 95
34 32 33 34 35 39 39 35 29 30 31 34 34 32 31 29 28 26 24 22 19 18 16 17 19 25 31 37 42 49 54 60 66 72 77 82 85 89 92 94 95 95 95
31 30 29 30 31 34 33 30 27 26 31 32 31 30 27 25 23 21 21 21 21 21 22 23 27 31 35 41 46 52 59 64 70 75 80 85 89 92 93 95 96 97 96
30 30 29 30 31 29 26 26 26 27 28 27 27 28 29 29 30 29 28 27 27 28 30 32 35 38 43 48 53 59 65 71 77 82 87 91 94 96 98 97 97 97 93
28 28 28 29 29 26 27 26 25 26 26 26 27 28 30 30 30 30 31 33 34 36 39 41 44 47 52 56 62 67 73 78 83 87 90 93 96 95 93 88 82 79 75
27 25 25 25 26 26 25 25 25 25 26 27 28 30 31 33 34 35 37 38 39 41 44 47 50 56 61 65 70 74 78 82 85 88 90 88 83 79 77 74 71 68 66
28 27 26 25 26 27 28 27 28 28 29 30 32 34 35 36 38 40 42 44 45 47 50 54 58 63 67 72 75 78 82 83 81 81 81 77 73 69 66 65 64 63 63
29 29 29 29 29 29 29 29 31 33 33 34 35 37 39 41 43 46 48 50 51 52 57 61 65 69 74 77 80 82 79 78 80 79 74 68 64 63 62 61 60 57 54
29 29 30 31 31 31 32 33 34 36 37 38 39 41 44 46 48 51 54 55 57 60 64 67 72 76 79 81 84 78 78 79 76 71 66 62 62 61 57 54 49 46 46
28 31 32 33 32 33 35 37 39 40 40 42 44 46 48 51 54 57 59 61 63 66 70 74 77 81 82 85 78 79 79 76 70 65 63 61 58 54 49 46 43 41 40
28 31 33 35 35 35 37 40 42 43 44 47 50 52 54 57 60 62 64 64 67 71 75 79 82 84 87 81 80 80 75 70 65 63 60 55 50 48 45 43 39 37 36
30 30 33 36 37 39 41 43 45 47 49 51 54 57 59 61 63 64 65 67 71 75 79 83 85 84 83 80 80 76 70 65 63 58 53 49 45 42 41 39 34 33 36
30 31 33 37 40 42 44 46 48 50 52 55 58 61 62 62 62 64 66 70 74 78 82 84 84 86 79 80 76 70 64 60 57 54 50 47 42 39 36 35 35 38 40
33 33 34 35 38 41 44 46 49 51 54 57 59 59 59 60 63 67 70 73 77 80 84 86 85 79 78 77 71 65 59 55 52 49 46 42 38 33 32 34 38 40 36
38 37 36 37 38 39 41 43 46 49 51 53 55 57 59 63 67 69 72 75 78 81 84 85 83 74 75 72 65 58 55 51 47 42 39 36 33 32 34 37 37 33 27
42 42 42 40 40 39 40 43 47 49 52 54 57 60 64 67 69 70 73 76 78 81 84 84 75 73 70 67 57 53 50 47 43 38 34 34 32 32 35 34 28 23 20
47 47 46 45 44 43 43 45 48 51 54 58 60 63 64 66 69 71 74 75 78 80 83 76 72 69 66 61 51 49 45 41 38 37 36 34 34 32 28 24 20 16 15
52 52 51 50 49 50 50 51 52 56 59 60 62 64 66 69 70 72 74 75 78 80 76 70 69 65 62 54 49 46 41 38 37 35 33 31 27 24 20 15 13 13 13

GFSGL_250_spd_042.txt.gz
Wind_Speed
107 103 97 92 93 94 96 98 100 102 107 112 103 99 97 94 93 98 103 103 102 98 97 100 98 99 96 92 89 89 88 85 77 72 74 73 73 80 82 86 87 87 89
94 91 88 93 96 96 99 99 106 112 99 94 91 86 87 86 90 96 93 91 90 93 88 94 99 106 106 98 93 88 86 82 82 73 75 73 77 94 91 94 95 94 95
86 87 93 98 99 100 105 110 98 92 87 80 79 77 76 80 83 88 82 80 78 76 72 74 82 91 100 101 98 91 86 81 79 79 84 86 91 100 102 103 104 106 109
90 93 99 101 103 107 96 87 84 77 72 71 68 68 69 72 75 77 70 66 64 62 59 58 61 67 74 79 85 86 79 79 74 75 80 87 91 96 99 99 100 104 105
95 100 104 106 90 82 79 73 69 67 63 61 60 61 62 64 60 64 62 53 49 45 42 42 46 52 55 56 63 71 69 68 70 71 74 79 85 92 94 98 102 102 103
101 95 86 78 75 67 63 62 62 60 54 54 52 51 53 50 49 51 53 49 44 33 27 26 29 33 37 40 42 50 60 64 64 67 66 70 76 80 85 90 94 97 101
81 77 75 65 60 59 59 56 56 53 50 49 46 44 46 46 47 47 44 39 35 29 24 22 19 17 18 22 26 32 38 45 50 54 54 58 63 69 77 82 87 90 93
71 66 60 58 56 53 52 50 50 49 44 40 39 39 41 40 38 40 40 39 36 31 25 22 21 16 15 15 16 20 24 28 36 45 52 59 65 69 71 71 73 78 80
56 55 56 53 48 48 45 43 42 39 34 36 36 38 37 34 34 35 37 37 36 36 35 33 31 29 26 22 21 21 26 32 38 43 49 55 60 64 69 73 77 81 84
50 53 50 46 43 42 39 36 34 32 29 31 33 34 33 32 33 35 35 34 33 31 29 29 28 28 27 27 29 32 36 41 46 52 57 62 67 72 77 82 86 89 92
47 46 43 41 38 38 37 35 32 28 28 28 30 31 30 30 32 33 33 34 35 35 36 36 36 36 36 37 38 42 45 50 55 60 66 71 77 82 86 90 94 97 98
45 40 37 35 34 34 34 33 30 29 30 29 30 30 30 31 33 34 34 36 37 38 40 40 40 40 42 44 47 50 55 59 64 68 73 77 80 84 88 92 93 91 87
45 40 36 32 30 28 29 29 27 28 28 30 31 31 32 34 35 37 38 40 41 43 45 45 45 46 48 51 54 56 60 64 67 72 75 78 80 80 78 78 78 79 79
40 39 36 31 30 28 26 27 27 29 31 33 34 35 37 38 39 40 42 44 46 48 50 50 52 53 55 58 61 65 69 71 74 75 77 74 73 75 74 73 71 70 67
37 36 34 31 30 30 29 29 30 32 34 36 38 39 41 42 43 45 47 50 52 55 57 59 59 61 62 66 69 72 75 77 77 77 74 74 74 71 67 64 62 63 63
33 32 31 31 31 31 30 30 32 34 37 40 42 44 46 48 48 49 52 55 57 61 63 64 63 65 70 73 76 79 78 78 78 74 73 72 69 66 62 60 59 59 58
31 31 31 31 31 32 33 34 35 37 39 42 45 47 49 52 54 55 57 60 63 66 66 65 67 71 75 78 80 81 79 78 74 74 73 69 67 64 60 56 54 52 52
29 30 31 31 32 33 35 38 39 41 42 44 47 50 52 55 58 60 63 65 66 66 66 67 71 75 78 80 82 79 80 75 75 74 70 67 63 61 56 52 50 48 47
28 28 29 31 32 34 36 39 42 43 45 46 49 52 54 57 60 62 64 63 64 66 68 72 75 78 80 82 79 78 75 74 74 70 66 62 58 56 53 49 46 43 41
30 30 30 31 31 33 35 37 39 42 44 46 49 51 54 57 58 58 59 62 65 69 72 74 77 79 82 80 77 76 73 74 70 66 61 58 55 50 45 43 40 38 34
33 33 33 34 34 34 34 35 37 40 42 45 46 47 49 53 56 58 61 65 67 69 72 75 78 81 81 77 78 72 74 71 66 61 58 53 47 42 39 37 36 34 33
38 38 37 39 40 40 40 39 40 40 41 42 44 47 51 54 57 60 63 66 69 72 75 77 80 80 76 77 72 73 71 67 59 57 52 44 38 38 38 37 36 35 35
42 43 43 44 46 47 46 45 46 46 47 48 50 53 56 58 61 64 67 70 72 75 77 78 78 75 75 72 70 71 67 60 56 52 45 38 37 36 34 33 33 34 33
41 43 45 47 51 53 53 52 51 51 53 54 56 59 61 63 67 70 71 72 74 76 78 78 75 74 71 68 70 66 60 56 52 45 39 35 34 34 34 34 32 29 24
46 48 50 52 53 54 55 55 55 55 56 58 61 63 64 67 71 73 72 73 75 76 76 75 73 70 66 67 66 61 55 52 45 39 35 32 31 31 29 25 22 19 17
51 52 54 55 57 57 57 56 56 57 59 62 65 67 68 71 73 72 72 73 73 74 72 71 68 65 66 65 62 55 51 45 38 33 30 29 27 23 20 19 18 17 16

GFSGL_250_spd_045.txt.gz
Wind_Speed
102 103 104 106 106 108 108 108 109 106 101 97 99 99 102 109 115 104 97 89 87 90 91 90 88 86 87 85 85 92 100 98 96 94 86 74 68 71 75 75 78 86 79
104 105 106 107 104 106 104 105 94 93 95 97 101 106 112 108 94 87 82 78 76 81 82 78 74 71 68 67 72 77 83 92 93 92 90 76 72 72 76 76 85 85 91
100 102 103 103 100 93 90 91 92 94 98 102 108 105 91 87 79 74 70 68 68 72 78 76 70 62 57 56 55 59 61 67 69 77 83 79 76 77 78 75 83 86 90
92 90 87 84 84 86 89 91 95 99 101 104 91 87 76 72 68 62 64 62 65 66 67 71 67 58 51 46 43 43 46 49 53 60 72 75 74 76 72 77 82 88 91
77 76 78 81 85 88 93 97 98 99 95 85 72 70 69 64 55 57 56 57 57 55 55 56 56 51 44 37 32 30 31 35 41 48 57 69 71 70 71 77 83 88 95
74 77 81 85 90 96 100 97 96 84 73 66 66 65 60 52 48 46 47 49 48 49 50 46 43 41 38 33 26 21 19 21 25 30 37 50 53 59 62 69 74 78 89
80 81 86 92 94 94 95 86 78 64 61 60 59 55 48 43 41 40 41 42 42 44 45 45 42 39 37 34 28 23 19 16 15 16 19 22 27 34 40 50 54 62 67
82 86 88 92 94 86 78 66 59 56 58 55 50 44 42 40 37 38 39 38 41 41 41 40 40 40 38 36 33 31 30 28 28 27 28 30 33 37 43 49 53 59 63
82 84 89 83 76 71 57 56 54 54 53 47 41 38 36 34 35 36 36 37 39 40 40 40 42 42 42 41 39 38 37 36 36 36 38 40 45 48 54 59 63 68 71
79 76 72 71 60 53 51 51 51 49 46 41 37 37 34 33 34 34 35 38 40 42 41 41 42 42 44 44 43 42 41 41 43 45 47 50 54 58 63 67 71 76 80
65 69 61 55 52 50 49 49 46 44 41 39 37 37 34 34 35 35 37 40 43 45 45 45 46 48 49 49 50 50 49 50 51 53 56 59 63 66 69 72 77 81 84
53 51 49 49 47 47 45 44 40 37 36 35 35 36 34 35 37 38 40 43 46 48 50 50 52 54 55 57 58 57 56 56 58 61 64 67 69 71 74 76 79 80 79
44 45 46 45 45 46 41 39 37 34 32 32 34 35 35 38 39 42 44 47 49 52 55 57 58 60 62 64 64 63 62 64 66 69 71 73 75 74 75 77 74 73 75
40 43 42 44 44 45 39 36 35 35 33 33 34 36 37 39 43 46 49 51 53 56 58 61 63 65 67 69 68 66 68 71 74 74 74 76 76 76 73 71 72 72 71
40 39 39 42 43 40 37 34 34 35 36 36 36 37 39 42 46 49 51 54 57 61 63 66 68 69 71 69 69 72 74 76 76 77 76 75 75 71 70 70 69 67 63
40 37 38 39 40 37 35 34 34 36 37 38 39 41 43 45 47 50 53 56 60 63 66 68 69 69 69 71 73 75 76 77 77 78 75 73 69 69 69 66 63 60 60
39 37 37 38 35 33 34 34 34 36 39 41 43 44 46 47 49 51 54 58 61 63 64 65 66 69 72 74 76 78 78 77 77 74 72 69 69 68 66 61 57 56 55
38 36 37 37 34 33 30 31 31 33 35 37 40 42 44 47 50 53 55 57 58 59 61 65 68 72 75 78 79 78 77 76 74 72 69 69 67 66 60 57 53 49 47
39 39 38 37 35 34 34 34 33 33 33 34 36 39 41 43 46 49 51 53 56 59 63 67 72 75 77 79 79 78 77 73 70 70 70 68 64 59 57 51 47 43 42
40 39 39 39 38 36 37 38 38 38 39 39 41 43 45 47 49 52 54 57 61 64 68 72 76 78 78 79 77 76 72 68 69 70 69 65 60 57 52 46 42 41 40
42 40 40 41 41 41 42 44 45 45 46 46 47 49 51 52 54 56 58 62 65 67 72 75 79 80 78 76 74 70 66 67 69 68 65 59 57 51 46 43 41 40 39
41 41 42 43 45 46 46 46 47 48 48 50 51 53 54 55 58 59 62 64 68 72 76 79 80 79 76 74 71 65 66 69 68 65 60 57 50 45 42 38 36 36 36
43 43 44 45 46 45 44 45 47 49 49 50 52 55 57 59 60 62 64 68 72 75 78 81 78 75 72 70 64 63 68 68 65 60 57 49 45 42 38 36 35 32 30
46 47 47 48 47 48 49 51 53 53 53 55 57 58 61 63 64 65 68 71 74 78 80 77 74 72 70 65 60 64 64 64 59 56 49 44 40 37 34 31 29 27 25
49 50 51 50 50 53 55 57 58 58 58 60 62 65 66 66 66 69 71 74 79 79 76 74 72 70 66 61 61 64 62 58 54 49 44 39 34 32 30 28 26 25 23
53 54 53 52 54 58 61 63 64 64 64 64 67 69 69 69 70 72 75 79 76 74 72 70 68 64 61 59 61 60 57 53 48 42 38 34 29 27 25 23 21 21 20

GFSGL_250_spd_048.txt.gz
Wind_Speed
103 103 102 103 104 103 104 104 104 107 108 110 112 114 113 110 98 93 98 102 107 103 94 85 83 80 80 85 88 83 76 73 72 68 68 71 75 81 83 83 83 77 76
104 103 103 103 105 105 105 106 108 110 111 113 113 111 100 94 93 98 103 105 97 86 82 78 72 71 74 77 84 82 72 65 57 55 59 64 61 69 77 83 84 79 82
105 106 106 106 106 106 106 108 109 109 110 109 99 93 91 93 98 102 101 90 80 77 74 66 61 63 65 65 69 75 66 57 50 44 45 48 48 50 63 77 78 78 78
104 105 106 106 105 107 104 104 103 100 94 90 88 89 93 97 99 94 80 75 71 67 61 55 56 56 56 58 59 60 61 54 44 37 32 33 38 43 53 62 69 71 76
99 99 97 96 92 93 92 89 85 83 85 86 89 94 97 96 84 74 70 68 63 55 50 51 52 51 51 53 54 53 48 46 43 34 28 27 26 35 47 57 63 70 73
89 88 84 82 84 78 76 75 80 84 88 91 93 95 88 76 68 64 63 59 53 46 46 47 48 48 49 50 50 47 44 42 38 32 29 26 22 22 24 29 37 41 48
77 76 76 72 69 70 74 80 86 90 90 90 88 76 67 64 60 60 56 52 45 44 44 45 47 47 49 51 52 52 50 49 45 42 39 35 31 28 27 29 31 34 39
69 66 71 67 70 75 83 82 84 87 87 78 68 61 60 57 57 53 51 44 42 42 44 45 47 49 51 52 54 55 54 53 53 52 50 47 43 41 41 42 44 47 51
66 67 65 71 79 79 80 84 87 83 71 60 57 57 55 55 52 47 47 43 43 43 44 46 49 51 52 55 57 59 59 58 58 57 54 51 49 49 51 54 56 60 63
69 70 71 74 74 76 82 84 82 65 54 53 56 54 51 49 45 46 45 43 45 45 46 49 51 53 55 58 61 62 63 63 64 62 59 56 55 55 56 60 63 65 68
71 69 70 75 78 78 85 75 61 53 51 52 50 48 46 44 42 43 44 45 46 47 50 53 54 56 58 62 65 66 67 69 68 67 65 64 64 66 67 67 68 71 74
59 61 66 68 72 69 68 57 51 50 50 46 44 43 42 41 40 41 44 44 47 49 52 55 57 60 63 65 67 69 70 70 70 69 70 71 71 71 72 73 74 77 78
63 64 59 58 59 58 53 51 48 49 45 42 41 40 40 40 41 42 43 45 48 50 54 56 59 61 63 66 68 69 70 70 72 73 75 76 75 74 75 76 77 75 74
50 54 56 52 51 49 48 46 44 45 42 40 39 40 40 41 43 44 45 47 49 52 55 57 58 61 64 66 66 67 69 72 75 78 78 77 75 75 76 75 73 71 72
47 47 47 48 47 44 44 43 43 42 41 39 38 39 41 43 45 46 48 50 51 53 56 58 60 61 62 63 66 69 73 76 80 81 78 75 74 74 72 70 70 72 72
43 48 48 49 46 42 40 41 40 39 36 35 36 37 38 39 42 45 47 49 51 54 54 55 56 57 60 64 69 73 77 81 84 81 75 74 73 69 69 71 71 69 65
47 48 50 48 46 42 40 41 40 40 37 35 34 33 35 36 37 39 41 44 46 48 51 54 57 60 65 69 73 77 81 85 83 77 73 72 69 70 72 70 65 60 57
49 50 52 50 46 44 42 42 41 41 40 38 38 38 39 40 42 44 47 49 51 53 56 59 62 65 68 72 76 80 84 84 77 74 72 69 69 72 70 63 58 53 49
49 47 49 50 49 45 43 43 43 42 43 44 45 44 47 49 50 51 52 53 54 57 60 63 65 67 70 75 79 84 86 80 74 71 69 68 69 69 64 58 52 46 44
49 50 50 50 49 48 47 46 46 45 45 46 48 50 50 49 49 50 52 54 57 60 63 65 68 71 74 78 82 87 84 75 71 68 66 68 67 64 60 52 47 44 41
51 51 53 52 51 50 49 49 48 48 48 49 49 48 48 52 52 53 55 58 60 63 66 68 70 74 78 81 86 87 78 70 65 64 65 66 63 60 52 47 43 40 38
50 50 50 51 51 51 50 50 49 50 50 50 50 53 55 56 58 59 61 63 66 68 70 71 73 76 80 84 86 79 70 66 62 62 64 63 57 52 48 42 39 36 34
49 49 50 50 51 52 51 51 51 51 54 55 55 57 60 62 64 65 67 67 69 71 73 75 78 80 83 83 77 69 66 62 60 62 63 59 52 45 41 37 34 32 31
49 48 49 50 51 53 53 53 54 56 58 59 60 62 64 67 69 71 71 72 73 75 77 78 79 80 79 75 68 64 59 58 60 61 59 56 46 39 37 32 28 27 25
50 49 50 51 52 54 54 54 56 59 61 62 64 66 68 71 74 75 74 76 77 77 75 74 75 74 72 69 64 59 58 59 60 57 54 47 40 32 30 25 23 21 22
50 50 51 52 53 54 54 55 59 62 64 65 67 69 73 75 75 76 77 76 75 75 73 71 69 67 63 60 58 58 58 59 57 52 43 38 34 28 22 18 17 20 22

GFSGL_250_spd_051.txt.gz
Wind_Speed
104 103 102 101 101 100 100 100 100 101 102 103 104 105 107 109 110 112 113 112 105 98 95 95 100 100 88 84 78 73 67 67 66 70 76 77 66 54 47 50 57 68 66
103 104 104 103 103 103 103 104 104 104 105 105 105 106 109 111 113 112 103 98 92 91 93 99 96 85 79 76 68 62 62 61 61 63 69 71 63 48 39 36 38 50 59
102 103 102 102 102 103 103 103 103 104 104 106 107 108 111 110 102 97 92 90 91 94 96 92 80 75 72 65 58 57 57 57 58 60 62 65 60 49 40 32 28 35 45
101 101 101 101 103 104 104 104 105 105 104 105 106 106 100 96 92 87 87 91 94 93 86 77 73 69 62 56 54 55 55 57 57 58 57 56 55 53 49 42 34 30 37
96 98 100 100 100 99 100 101 98 99 99 95 94 90 89 84 82 86 90 90 89 78 74 70 67 61 55 55 54 54 55 56 58 59 60 58 55 49 43 41 37 32 29
94 95 96 95 95 94 94 92 91 88 87 85 82 79 78 82 86 85 89 79 71 69 67 64 60 55 52 53 54 55 57 58 59 60 61 61 61 56 51 44 39 36 35
90 91 90 90 87 86 86 83 82 79 77 76 76 78 82 86 83 83 72 67 65 65 62 61 55 54 52 52 55 58 59 60 61 64 64 65 63 59 56 53 49 46 43
83 84 82 81 75 74 74 72 71 68 71 74 78 82 84 81 80 68 65 64 62 61 58 56 53 54 53 54 56 58 60 62 65 66 67 67 64 60 57 54 53 53 54
71 69 65 67 68 67 67 63 65 69 72 77 83 86 83 81 66 63 63 58 56 55 54 54 54 54 55 57 59 60 63 65 66 68 68 67 63 59 59 59 60 60 61
61 64 67 67 65 61 62 63 67 71 78 84 79 81 74 63 58 58 55 52 51 51 51 52 52 54 56 58 59 61 63 65 67 68 68 65 63 65 65 67 69 69 68
62 62 58 57 59 63 62 67 73 68 70 75 74 67 59 56 54 51 49 48 48 48 50 50 51 52 55 58 59 62 64 66 67 66 65 66 68 70 72 75 76 74 73
60 57 54 55 59 65 67 72 64 64 69 69 64 56 52 51 49 46 45 46 46 47 48 49 51 53 55 57 59 62 64 66 64 64 67 69 72 75 78 81 79 76 73
56 53 58 61 66 63 55 59 63 61 60 65 54 50 48 46 44 43 45 45 47 47 49 50 52 54 57 59 61 61 61 61 64 68 71 74 77 79 83 83 77 74 72
47 52 49 49 53 56 58 57 53 57 57 55 50 44 42 42 41 40 42 43 45 47 48 50 51 52 53 54 55 57 61 66 69 72 74 77 80 83 85 78 75 74 72
51 53 54 52 53 54 52 52 53 55 52 51 47 42 40 39 38 37 36 37 38 40 42 45 47 50 53 56 60 63 67 69 71 73 77 80 83 86 81 76 74 72 71
53 54 55 56 54 53 50 51 53 54 51 48 46 43 42 42 41 39 40 41 43 46 49 51 54 55 57 59 62 65 68 71 73 77 79 82 85 83 76 72 70 69 72
54 56 57 55 51 48 47 53 57 55 50 48 47 44 44 45 45 44 45 48 50 51 51 53 54 56 58 61 64 67 70 73 76 79 82 84 84 77 71 69 67 69 67
48 52 52 50 51 52 54 57 57 55 53 49 49 47 48 49 49 48 49 51 51 51 54 56 59 61 64 67 69 72 73 76 80 82 84 83 76 69 67 64 66 66 60
47 49 53 52 53 54 54 57 54 53 52 50 50 51 51 51 51 51 52 51 51 55 57 60 63 66 69 71 74 77 79 81 83 84 81 76 68 66 63 63 66 60 53
50 52 53 56 56 54 51 53 55 55 53 53 53 53 53 54 55 54 55 54 56 58 61 65 69 72 74 76 79 80 82 83 83 80 75 70 65 62 62 64 62 56 47
46 46 47 48 50 51 52 54 54 55 55 54 54 55 56 57 57 58 59 59 61 63 67 69 73 76 78 80 81 81 82 82 78 74 71 66 62 63 63 62 58 49 43
46 49 50 51 51 52 53 54 54 53 52 53 54 55 57 59 60 61 62 63 66 68 71 73 78 80 80 80 81 81 80 75 72 69 65 63 64 63 62 58 51 45 37
41 44 46 48 50 51 51 53 53 53 53 53 54 57 60 63 64 64 64 66 69 71 74 78 81 81 80 79 78 75 72 70 67 65 64 64 63 61 56 50 44 40 32
46 47 47 49 52 53 54 54 53 53 53 53 56 59 62 63 64 65 67 68 71 74 78 80 80 80 79 76 73 69 66 66 65 63 63 64 63 56 48 43 36 30 24
50 50 50 51 53 54 54 53 53 53 53 55 58 60 62 63 64 65 68 71 74 78 78 78 78 77 74 70 66 65 64 62 61 62 62 60 54 45 39 34 28 21 15
55 54 52 51 52 53 53 53 54 53 55 57 60 62 63 65 67 70 73 75 77 77 77 76 75 68 62 61 61 60 60 60 59 58 57 50 43 38 31 23 18 15 18

GFSGL_250_spd_054.txt.gz
Wind_Speed
109 109 109 108 105 102 101 100 100 100 102 102 103 103 103 103 105 105 105 107 107 108 107 105 101 97 93 94 94 93 83 75 72 64 60 59 61 64 66 68 67 62 58
100 102 103 104 104 104 104 105 104 104 103 104 102 102 105 103 101 103 104 104 103 101 98 95 92 90 91 94 91 80 74 70 67 60 59 59 61 64 67 68 64 58 55
94 95 97 97 98 99 99 101 100 100 98 99 100 100 99 99 100 101 100 98 96 92 90 87 86 89 91 89 79 73 69 67 61 58 57 57 61 64 65 64 64 60 51
85 86 88 88 88 89 92 92 92 94 93 94 94 95 96 96 95 95 94 90 88 86 84 84 89 88 87 76 70 69 66 62 56 57 57 58 60 63 65 64 60 56 52
81 81 84 85 85 86 86 87 87 87 89 89 92 92 95 92 92 88 86 84 82 81 83 88 85 83 72 68 68 65 62 56 55 58 58 60 63 65 65 63 60 56 50
85 85 83 82 83 86 87 86 88 89 90 94 92 92 90 85 83 80 79 78 79 82 88 83 77 69 68 67 65 62 55 55 57 58 60 62 66 66 65 63 59 53 52
81 81 80 80 83 84 84 88 88 94 91 87 84 79 77 75 73 73 76 78 81 84 79 70 66 66 65 62 60 55 53 56 58 59 61 64 66 67 66 63 57 54 54
74 75 76 76 76 78 81 82 83 83 78 71 66 69 70 66 70 74 77 81 78 74 66 64 64 62 58 56 53 51 53 56 57 59 61 64 66 66 66 62 58 59 60
70 70 71 70 69 70 71 65 63 60 57 63 65 62 61 67 73 76 73 74 68 63 62 61 58 55 52 48 48 49 52 54 56 60 62 65 66 66 64 62 64 65 66
65 66 66 63 54 49 56 56 50 54 61 61 59 62 64 70 77 75 73 63 60 60 58 54 52 50 49 48 48 50 52 54 57 61 63 64 63 62 64 68 70 71 71
56 56 53 54 55 57 52 53 58 59 60 54 60 62 68 72 69 71 63 57 57 55 51 49 49 49 48 49 50 52 54 56 56 57 59 61 64 68 70 71 73 74 76
53 53 52 49 46 47 51 57 59 55 53 55 59 62 65 64 69 63 54 53 50 45 45 44 44 45 46 47 48 48 49 52 56 59 62 65 67 69 71 74 76 78 80
52 54 51 47 52 52 53 54 55 53 53 58 59 59 64 64 62 58 53 48 45 43 40 39 39 39 41 45 49 52 55 57 59 61 63 66 70 73 76 78 79 81 82
46 48 49 55 57 57 54 47 49 52 55 55 57 63 61 61 57 56 54 49 45 45 44 44 44 46 49 51 52 53 55 58 61 64 68 71 75 78 79 81 81 81 79
47 48 51 52 47 47 45 48 53 53 55 57 59 60 61 59 56 52 54 52 47 47 48 49 50 51 53 52 54 56 58 62 66 70 73 76 79 82 82 83 80 77 73
41 40 40 41 43 45 49 53 55 58 54 56 59 62 60 60 56 54 54 53 52 50 51 51 51 54 54 55 57 59 63 67 72 76 78 80 83 84 85 81 76 71 70
40 40 41 43 45 48 52 55 57 60 59 57 60 60 61 59 58 57 57 55 54 55 54 54 54 56 58 60 62 64 68 73 77 81 83 85 86 86 84 78 71 68 66
47 48 51 55 56 55 55 58 60 62 62 61 60 59 60 60 57 58 59 58 58 57 56 57 57 59 62 65 68 71 73 77 81 85 86 87 87 84 78 70 67 64 63
44 46 50 52 53 53 52 52 54 56 59 60 60 60 61 56 58 61 60 59 60 59 59 59 60 63 66 68 71 74 76 80 83 86 88 87 82 75 69 66 65 64 65
47 48 47 47 48 50 52 54 55 56 60 60 61 60 58 57 59 60 60 60 60 59 59 59 61 65 68 71 74 76 79 82 85 87 85 79 72 67 67 67 66 65 63
46 47 48 48 49 49 49 50 52 53 54 55 55 56 58 58 59 59 59 60 60 60 60 61 64 67 70 73 75 79 82 84 83 79 74 69 67 66 67 66 64 62 59
42 43 46 48 49 50 51 51 51 51 53 55 56 57 58 57 57 60 61 60 60 61 62 64 67 70 72 75 79 81 82 81 75 69 68 68 68 66 65 63 60 56 49
44 43 41 42 43 44 45 46 47 49 52 53 54 56 57 57 59 61 61 60 62 62 63 67 70 73 75 78 79 79 78 73 68 66 68 68 66 63 61 59 54 46 40
48 48 46 44 44 44 45 47 49 52 54 55 57 58 58 59 60 61 61 63 64 65 68 71 73 76 78 78 77 75 71 65 66 66 65 66 65 62 58 54 45 38 31
55 54 53 53 52 51 51 51 52 53 55 56 58 59 59 61 62 62 62 64 68 69 71 73 74 76 77 75 73 68 62 63 62 63 64 61 59 57 52 44 36 29 22
53 55 57 58 59 58 58 59 58 58 57 57 57 57 59 60 61 62 65 67 69 71 72 73 74 73 71 66 62 62 60 61 61 61 58 57 56 53 45 37 28 21 19

GFSGL_250_spd_057.txt.gz
Wind_Speed
111 109 109 110 110 110 109 107 107 105 105 104 104 103 104 102 103 103 104 105 104 105 102 102 101 99 96 95 92 90 89 86 86 86 80 70 68 64 58 55 56 57 61
106 107 108 108 109 109 109 108 108 105 104 102 102 100 101 100 101 102 102 102 101 98 97 96 96 91 89 90 88 86 85 85 83 77 70 68 64 60 55 55 56 58 61
100 100 99 101 103 103 102 101 97 97 97 96 95 98 98 99 97 95 95 93 90 92 92 90 88 85 86 85 84 84 84 81 74 67 67 64 61 55 54 55 56 59 61
91 88 89 89 88 89 91 91 91 94 94 92 91 89 87 88 87 84 86 86 86 86 88 85 81 80 81 81 83 84 79 69 64 64 62 60 56 53 53 55 58 59 61
96 98 93 88 87 83 82 83 84 87 84 84 82 80 79 81 84 85 81 84 84 87 82 76 77 77 79 81 81 74 66 62 61 58 57 55 52 52 52 56 58 61 61
87 85 82 81 78 76 74 75 76 75 74 74 76 86 83 83 79 82 78 83 79 77 74 74 74 76 78 77 69 62 59 58 55 54 53 51 51 51 52 55 59 61 61
83 82 80 77 74 71 70 72 74 73 76 81 79 81 78 73 73 77 76 75 71 72 69 72 75 78 74 67 61 59 57 53 50 49 50 49 50 52 54 57 60 60 58
75 75 74 75 72 72 73 72 72 72 75 78 72 68 70 69 73 70 62 66 68 66 68 73 75 71 65 60 58 55 53 51 49 49 48 49 51 54 56 58 57 57 60
66 66 66 66 66 65 67 68 69 68 67 68 64 65 66 63 57 54 60 63 62 67 71 70 68 61 58 56 52 49 48 48 48 47 48 49 51 53 54 56 59 61 62
61 61 62 62 62 62 62 62 61 59 60 60 58 60 52 51 54 59 63 58 62 68 70 68 61 53 53 49 46 45 44 44 43 44 45 48 51 54 55 57 60 63 66
58 58 59 59 59 58 58 56 55 53 52 51 55 51 49 56 59 64 61 60 65 68 67 63 56 53 50 45 41 40 40 42 46 48 49 50 52 54 56 60 64 67 69
53 54 54 53 53 51 48 46 47 47 48 53 50 50 58 60 63 57 56 62 66 66 65 61 54 53 53 49 47 47 48 49 50 50 51 53 55 58 62 66 70 73 75
47 48 48 48 47 48 48 48 49 51 53 45 48 55 61 62 55 54 59 65 66 68 64 57 57 53 53 53 52 53 52 53 54 54 56 58 61 65 68 72 76 80 81
44 47 47 49 49 48 48 49 47 45 48 54 57 58 56 50 53 58 61 65 67 65 64 59 56 56 55 54 54 54 55 56 57 59 62 65 69 72 74 78 81 84 85
40 43 46 48 47 48 51 52 48 49 55 59 60 52 51 52 57 59 63 64 66 67 62 57 58 59 59 59 58 58 59 60 62 62 65 69 72 74 78 81 84 87 85
35 35 39 42 45 48 49 49 52 56 58 54 52 51 52 54 58 62 65 66 68 66 65 61 60 60 61 61 60 61 62 63 65 67 70 72 74 77 81 84 87 86 83
35 34 34 35 36 38 42 46 45 48 49 49 51 53 56 61 63 68 67 68 68 64 65 65 62 63 64 63 61 61 60 63 66 70 73 74 77 81 84 86 85 83 79
41 38 38 38 39 40 41 41 43 46 48 52 55 58 61 65 67 62 63 64 65 66 68 65 65 65 64 61 60 60 62 65 69 71 74 77 81 84 86 84 81 75 68
43 41 44 46 48 50 51 53 54 58 60 62 63 64 65 64 62 61 61 62 64 66 66 66 66 66 63 60 60 62 64 67 70 72 76 81 83 84 83 77 70 65 64
41 40 40 43 46 50 53 54 56 58 59 60 60 59 59 59 61 63 66 67 66 64 65 67 66 64 62 62 62 65 68 69 72 77 81 83 82 80 73 67 65 65 63
44 44 44 46 48 49 50 52 53 55 56 58 60 60 59 59 59 59 58 58 61 64 65 65 65 63 63 63 65 69 71 74 78 81 81 80 78 71 64 65 64 63 63
43 43 43 45 47 49 50 52 54 55 56 56 57 57 57 58 58 57 58 60 61 62 65 67 66 65 65 67 69 72 75 79 80 79 79 77 71 64 65 64 63 61 58
46 47 47 47 46 46 46 47 48 49 50 51 52 53 52 52 53 54 55 58 61 64 66 67 67 68 68 70 72 76 78 78 77 76 74 68 65 64 64 63 60 55 52
51 51 52 52 52 52 51 50 49 48 48 48 49 49 50 52 53 55 57 59 61 63 63 65 67 68 70 73 74 75 75 75 74 69 64 65 65 64 62 59 54 51 45
51 52 53 56 57 57 57 57 56 54 54 54 54 54 55 55 57 59 61 62 61 62 62 63 65 68 70 71 73 74 72 69 64 63 64 64 64 63 57 53 51 45 38
49 51 53 55 55 55 55 55 56 58 60 60 60 60 61 62 63 64 64 64 64 63 62 63 65 67 69 70 71 68 63 60 60 61 61 62 62 58 54 52 46 37 30

GFSGL_250_spd_060.txt.gz
Wind_Speed
114 114 114 112 110 109 110 109 109 109 107 108 107 106 107 107 106 106 107 108 107 107 105 106 104 101 104 98 93 94 88 86 83 84 84 83 83 79 72 65 64 60 56
102 109 114 115 115 115 114 114 114 114 113 112 112 111 110 110 110 111 109 107 103 104 106 102 98 98 89 92 87 85 86 83 82 82 82 81 78 71 65 64 60 57 52
98 97 99 105 111 112 114 115 115 114 115 113 113 114 112 112 110 108 102 103 100 102 98 96 90 87 85 84 84 83 80 81 81 81 80 77 70 65 64 60 57 54 51
102 97 94 93 93 97 102 105 108 109 109 106 107 107 104 103 101 98 97 98 95 92 93 88 87 79 81 85 82 79 79 80 80 78 73 67 64 60 58 56 54 52 51
98 97 98 97 88 86 85 87 92 94 93 91 89 88 89 90 89 88 86 87 86 80 83 80 76 78 77 80 75 76 77 78 75 69 64 61 56 55 54 52 50 49 50
91 92 94 97 100 97 87 85 85 83 83 83 77 80 82 83 83 81 80 77 84 82 74 73 75 75 78 73 72 74 74 72 67 61 59 55 53 51 51 49 49 50 51
86 86 86 85 86 85 86 87 86 87 84 81 82 80 76 75 75 73 75 74 67 72 69 72 70 71 70 68 68 71 72 65 59 56 54 52 51 50 50 49 48 47 48
80 82 82 81 81 79 77 79 80 81 78 74 77 75 73 70 70 70 71 68 65 67 68 69 63 65 67 67 69 70 65 57 54 52 49 48 47 45 44 45 47 49 50
70 70 70 72 73 72 74 75 75 73 71 72 73 72 70 68 65 64 61 65 64 64 62 57 61 63 67 67 69 69 62 55 53 51 48 46 45 47 48 49 50 51 52
64 63 62 63 64 65 66 67 66 66 66 67 66 65 64 61 58 60 60 61 62 56 56 59 61 67 68 68 67 68 62 57 55 55 54 53 53 52 52 52 53 55 57
60 60 60 60 61 62 62 60 60 61 60 61 60 57 56 57 58 57 57 57 53 54 60 63 66 63 63 68 67 65 61 59 55 57 59 59 57 56 55 57 58 61 64
53 55 57 58 58 58 58 58 58 58 57 56 56 56 56 56 55 55 54 53 57 59 62 64 63 63 66 68 69 65 59 60 58 57 59 60 60 60 61 61 63 65 67
48 49 50 51 52 53 54 55 55 53 53 52 52 49 50 51 52 53 56 57 57 60 62 61 61 64 67 68 68 64 62 63 59 58 61 62 62 64 66 66 68 69 70
42 44 45 46 47 48 49 49 49 49 49 50 50 50 52 52 55 59 55 58 60 62 64 62 63 65 67 70 71 69 65 64 63 62 63 63 64 65 66 67 67 70 73
39 40 42 45 46 47 48 48 48 49 49 50 53 55 56 55 52 57 59 59 62 60 56 61 64 68 71 74 73 69 66 66 65 65 65 64 64 65 66 67 68 71 76
36 36 37 38 38 41 43 48 48 49 50 52 53 54 54 58 58 59 60 63 63 59 62 68 68 71 74 74 70 66 67 68 66 66 65 65 65 66 67 68 70 75 79
38 37 36 35 35 36 38 38 40 47 52 53 57 56 57 61 62 63 65 61 60 63 66 69 73 74 75 70 67 67 68 68 67 68 67 67 67 67 69 71 75 79 84
43 42 42 41 40 39 38 39 41 42 43 44 45 47 47 49 51 55 59 62 65 68 70 73 75 71 69 68 69 69 68 68 68 68 68 68 69 71 73 75 79 83 82
41 45 46 46 42 41 45 45 46 46 48 49 50 52 53 55 59 61 64 67 70 71 72 70 68 69 70 66 65 66 68 68 68 69 69 70 72 74 76 80 82 81 79
36 38 41 43 44 44 48 50 51 52 54 55 57 59 59 62 64 66 67 68 67 66 66 69 67 65 64 63 65 67 68 69 70 70 71 72 74 77 79 81 80 79 71
38 39 40 42 42 42 43 46 48 49 51 52 54 56 57 59 61 62 64 65 66 66 64 64 64 63 63 63 65 67 68 68 68 69 70 72 75 77 78 78 75 68 65
40 40 41 42 43 44 45 46 48 51 53 55 56 57 58 59 61 62 63 62 63 63 61 61 59 60 61 63 65 66 67 67 67 69 70 73 75 76 75 71 66 66 64
45 44 45 46 46 46 47 48 49 50 51 52 53 54 54 55 56 56 56 57 56 57 58 59 60 61 63 66 67 68 68 68 70 71 73 74 74 72 67 65 64 63 61
50 50 50 49 50 52 53 54 55 55 56 57 57 56 55 56 56 56 56 57 58 59 61 63 64 67 68 68 68 69 70 72 73 73 72 72 69 65 64 63 62 60 57
53 53 52 54 55 55 56 58 59 59 58 58 58 58 60 61 62 62 61 62 63 65 66 66 68 68 68 68 68 69 70 71 70 70 68 65 64 63 61 60 58 56 53
51 50 51 53 53 54 55 57 57 57 59 57 55 54 56 57 58 59 60 62 64 65 66 67 66 65 66 67 68 68 69 68 67 64 62 63 62 60 58 56 54 52 51

GFSGL_250_spd_063.txt.gz
Wind_Speed
104 106 107 108 110 110 110 111 111 112 112 112 111 111 110 110 110 112 112 111 110 110 112 112 112 112 115 116 118 114 111 112 111 99 98 90 90 88 85 81 78 72 66
104 103 103 103 105 107 110 112 115 116 115 115 113 114 115 115 116 113 114 114 113 115 115 115 115 112 116 114 113 102 108 105 95 89 85 84 86 83 80 77 71 66 62
102 102 102 102 103 104 104 104 107 111 115 118 117 116 116 116 117 117 116 117 118 117 116 114 115 114 108 102 105 102 96 87 86 81 83 83 83 79 76 70 64 59 56
103 103 104 105 104 105 104 100 100 101 103 106 109 113 116 116 114 116 116 116 115 113 106 107 104 97 99 98 92 90 82 83 80 78 81 78 78 76 69 63 58 54 50
103 104 105 105 103 103 101 100 97 96 95 95 94 93 94 96 97 97 101 99 98 95 94 90 88 89 85 83 78 79 81 74 73 77 74 76 74 69 61 56 54 52 50
96 99 100 102 101 100 97 97 91 90 88 87 86 84 80 82 81 84 86 85 82 84 84 85 81 79 76 77 73 75 73 72 74 71 74 75 72 64 57 54 50 46 45
89 91 92 92 93 94 94 94 92 92 93 98 99 94 91 90 89 88 85 82 81 81 81 78 77 79 75 70 70 69 69 68 67 68 73 75 69 61 56 54 53 51 51
81 83 85 86 87 87 89 89 89 88 87 87 86 87 86 88 87 85 82 82 81 79 75 74 73 70 64 66 66 66 64 65 67 71 72 70 69 61 57 56 56 57 57
75 76 78 79 80 81 81 81 82 82 82 83 81 80 78 78 79 75 75 77 79 77 71 68 65 63 62 62 64 62 63 65 70 69 69 69 68 66 60 58 58 59 59
71 72 72 72 73 75 74 74 74 75 76 77 75 75 74 73 71 70 71 72 72 70 61 59 61 59 59 65 58 62 66 70 69 69 70 69 67 63 62 61 60 61 61
63 64 66 66 66 66 66 66 66 66 66 66 66 66 65 64 63 62 62 63 62 58 57 57 59 59 59 57 61 62 66 69 69 69 72 69 68 63 60 60 62 63 64
53 54 56 57 57 59 59 59 59 60 60 60 58 59 59 58 58 59 59 58 57 56 58 59 57 54 58 62 64 66 68 69 69 71 73 73 72 69 64 64 64 65 65
51 51 51 50 50 50 50 51 53 54 55 56 55 55 56 56 57 56 56 55 55 56 57 54 55 56 57 61 65 66 70 69 69 72 74 76 75 69 65 66 65 66 65
49 49 46 45 46 47 47 49 49 49 51 51 51 52 54 54 52 52 51 49 46 50 51 55 56 58 62 65 66 69 69 68 70 74 77 75 71 68 67 67 66 67 67
48 47 44 43 44 42 43 45 47 46 46 46 46 46 47 48 49 51 49 50 52 53 56 59 57 59 63 66 70 71 73 72 74 75 76 71 69 70 69 67 68 68 69
46 47 45 42 39 38 38 38 40 43 42 45 46 47 49 49 52 53 55 55 57 56 58 59 62 63 66 66 71 73 73 73 75 76 69 70 70 65 68 70 69 70 71
41 44 43 41 39 38 38 38 38 38 41 41 43 47 52 51 52 55 58 56 57 58 63 66 68 70 74 72 71 71 72 76 74 71 70 65 65 67 69 70 72 72 72
36 37 42 43 43 41 39 37 37 38 40 42 42 44 46 49 53 56 59 59 60 63 65 66 66 65 67 69 71 74 74 70 70 66 66 66 67 67 69 70 70 69 70
37 35 37 41 44 45 45 43 42 41 43 44 44 46 48 50 51 53 54 57 58 60 62 63 65 66 70 72 69 68 69 68 66 65 64 65 66 68 69 69 69 69 71
39 38 37 37 40 43 47 47 45 45 46 48 50 51 52 52 55 57 58 60 63 64 65 67 67 66 66 68 68 67 66 65 62 63 65 66 69 72 72 72 73 74 74
41 40 39 40 39 38 39 41 42 42 44 47 50 52 54 56 57 58 58 59 60 61 63 64 66 66 66 66 65 63 60 61 63 64 67 71 73 73 73 74 74 74 74
45 43 41 41 40 41 42 43 44 44 45 46 48 50 52 53 55 58 58 59 59 59 59 59 59 59 60 60 60 61 62 64 66 69 72 73 73 73 73 73 74 73 69
49 47 45 45 44 44 44 46 46 46 46 49 50 52 52 54 55 56 57 58 58 59 59 60 61 61 62 64 65 66 67 69 72 74 74 74 73 73 72 72 70 67 65
53 51 49 48 48 48 50 50 49 51 53 53 55 56 58 59 60 61 62 60 60 61 63 64 65 66 68 69 70 71 73 73 73 73 72 72 72 71 69 68 64 63 61
53 54 54 53 54 54 55 54 54 56 57 58 59 60 61 60 61 61 57 55 56 58 59 59 62 63 65 67 68 68 68 67 68 67 67 69 68 66 63 61 60 59 58
54 53 53 54 55 56 57 57 56 56 56 56 57 58 60 61 62 59 56 54 55 56 57 57 58 58 60 61 61 62 63 63 63 64 65 65 63 60 59 58 57 57 55

GFSGL_250_spd_066.txt.gz
Wind_Speed
102 102 103 104 107 110 109 109 108 107 108 108 109 109 109 110 111 110 111 111 112 113 115 114 115 113 114 114 112 114 113 114 119 118 116 115 110 109 97 93 87 82 78
104 101 102 104 104 106 107 109 111 109 109 108 108 109 109 110 110 110 111 113 115 114 115 115 117 116 116 116 113 110 113 113 112 115 113 107 99 88 88 76 80 80 74
103 103 104 101 103 105 106 107 108 108 107 109 108 108 109 109 109 110 110 111 112 112 113 115 116 114 109 114 106 110 105 107 102 93 94 89 87 80 74 76 79 75 71
102 102 103 102 103 103 104 105 106 107 108 108 108 108 107 107 107 106 105 104 104 103 102 102 101 99 102 98 97 97 102 89 88 87 85 81 76 71 72 76 73 73 69
99 101 103 104 104 104 105 103 104 106 105 103 104 103 104 105 105 104 102 99 97 97 95 92 94 90 87 86 85 85 88 87 80 81 77 73 70 69 71 70 71 71 68
99 100 101 103 104 105 105 106 106 105 105 104 105 105 104 104 101 100 98 93 92 91 91 89 90 94 92 84 85 88 82 80 79 74 67 68 66 66 68 68 71 68 67
87 88 90 92 94 96 97 99 100 102 103 102 101 100 100 99 95 96 93 88 88 89 91 93 94 90 91 89 84 76 75 74 71 67 64 63 65 65 65 70 68 68 65
82 82 82 83 85 87 88 90 92 94 95 96 96 95 93 94 94 92 91 89 89 89 88 89 87 86 85 83 80 72 68 64 64 60 62 65 67 66 67 68 69 68 65
77 77 78 79 80 82 84 85 86 86 87 88 87 88 88 87 87 85 84 85 85 84 82 81 79 76 75 74 69 64 58 61 59 58 61 65 65 65 67 70 69 69 67
68 69 72 74 75 77 78 79 79 79 79 80 80 80 80 79 80 78 79 80 79 76 75 73 70 67 65 61 58 53 54 56 58 61 61 66 67 69 69 70 71 70 70
60 63 64 64 65 67 69 71 72 73 73 74 74 74 74 73 72 72 72 70 67 65 63 61 60 58 56 54 52 51 54 59 58 59 65 67 66 68 69 70 71 71 71
56 56 56 56 57 56 56 57 58 59 61 62 61 62 62 63 64 64 62 61 60 59 58 57 54 52 51 51 55 60 60 56 59 62 66 65 66 69 71 72 72 73 75
57 56 54 53 53 50 48 48 48 48 49 50 51 52 53 54 55 55 53 54 53 52 52 52 53 54 52 52 55 55 52 56 61 63 67 68 69 73 75 75 72 74 72
55 54 55 54 53 49 47 47 45 44 44 45 45 46 47 47 47 49 50 50 50 51 52 53 53 53 51 50 51 52 55 60 65 68 69 71 72 72 74 72 75 73 70
50 50 51 52 53 49 48 47 41 41 40 40 40 42 43 44 46 46 48 48 47 48 48 49 48 48 51 54 55 57 60 64 67 68 70 71 73 76 73 75 73 69 65
44 44 46 47 48 47 47 46 42 39 38 38 39 40 40 41 42 43 43 45 47 48 50 53 54 57 58 59 62 65 68 68 69 72 74 75 71 74 77 72 68 65 64
41 41 42 42 42 42 44 44 40 38 37 37 37 40 43 44 45 46 45 48 49 50 53 57 59 62 63 65 66 67 70 72 72 70 67 71 74 75 70 68 64 62 62
41 41 41 40 39 39 42 43 42 40 37 37 38 38 38 40 41 43 47 51 52 54 55 56 57 60 63 65 66 65 65 66 67 69 73 74 72 70 67 64 61 62 64
45 42 41 40 40 39 40 44 46 45 44 42 39 40 39 40 41 43 44 46 48 50 51 54 55 57 59 61 62 65 67 71 73 72 70 70 69 66 62 61 63 65 69
50 46 43 42 41 40 38 40 42 45 45 44 43 43 43 45 47 48 50 52 54 56 56 58 61 64 65 67 67 66 66 67 66 66 65 63 62 61 62 64 67 71 73
51 50 46 44 44 42 41 40 39 40 41 41 41 42 43 47 51 52 52 53 54 55 57 59 61 62 62 62 61 61 61 62 63 63 61 62 62 64 67 69 72 74 73
51 51 50 48 45 45 43 42 42 43 43 43 42 42 43 44 45 47 50 52 53 54 55 56 58 60 60 60 60 62 63 65 66 66 67 67 68 70 71 72 71 70 68
54 51 50 51 49 47 46 44 44 43 43 44 45 45 45 46 49 50 51 54 56 58 60 61 61 61 61 61 61 62 63 64 66 68 68 68 69 68 68 67 67 67 66
55 53 51 50 51 50 48 48 46 46 46 47 46 47 49 51 52 55 57 60 62 61 60 58 57 57 57 58 59 60 61 62 63 64 64 65 66 66 65 65 65 64 62
55 53 51 51 50 51 50 49 48 48 49 49 50 52 53 54 57 57 59 60 61 61 59 56 54 55 55 56 57 58 58 58 58 59 60 61 62 62 61 62 62 60 58
54 53 53 53 52 50 49 49 51 53 53 53 54 54 53 54 56 58 59 59 60 60 59 57 54 53 54 53 54 54 54 53 54 55 57 58 59 59 59 58 56 56 55

GFSGL_250_spd_069.txt.gz
Wind_Speed
106 105 103 102 104 106 109 110 112 113 113 113 112 113 112 111 111 109 110 109 109 109 109 108 108 110 109 110 110 113 112 111 110 103 101 103 102 101 97 98 92 88 83
104 105 106 107 109 106 104 103 107 107 108 109 109 111 109 109 108 108 108 107 106 106 106 106 109 108 107 108 108 104 103 102 100 100 97 94 93 86 84 86 81 76 73
105 105 106 106 107 107 108 108 107 106 104 105 107 108 107 108 108 106 105 106 105 105 106 107 104 105 104 104 102 101 100 98 98 96 95 88 90 87 87 79 73 70 68
102 102 103 104 104 105 106 107 109 107 107 107 104 102 104 106 108 108 106 106 106 104 104 104 103 104 104 103 102 100 99 95 97 91 91 89 86 82 78 74 68 64 66
97 98 99 101 102 102 103 104 105 105 105 105 105 104 103 103 103 103 102 102 103 103 102 101 100 99 99 99 97 96 94 90 87 87 87 86 84 80 74 69 62 66 61
97 98 98 99 99 100 101 102 104 104 105 106 106 107 106 105 105 104 103 103 103 102 102 101 99 99 98 96 94 94 87 87 83 83 83 80 79 73 73 62 61 59 63
92 95 96 97 99 100 102 103 103 103 104 105 105 106 106 106 106 105 104 103 101 100 99 97 95 93 92 89 86 86 82 80 81 79 76 75 71 66 59 58 60 61 64
86 86 87 87 88 89 90 92 94 95 96 97 98 98 98 97 96 95 94 94 93 93 92 90 88 87 85 82 80 80 78 77 76 73 70 67 62 54 55 55 58 63 63
79 81 83 85 86 87 87 88 89 89 90 91 91 91 91 90 91 90 89 89 87 85 83 82 83 81 79 77 75 73 75 73 68 62 61 56 51 53 52 57 62 63 64
69 70 73 76 80 82 83 83 84 85 85 85 85 84 84 84 84 83 82 80 78 77 76 75 73 72 72 69 68 67 64 61 58 54 52 48 49 53 55 57 60 62 66
59 60 61 65 69 72 73 75 75 75 75 75 75 76 77 78 77 76 74 74 71 69 70 70 68 66 65 64 61 59 56 52 49 49 47 47 52 55 59 61 63 65 66
54 53 54 55 56 57 59 60 60 60 60 61 61 61 62 64 64 63 63 62 62 62 62 61 60 59 57 56 55 53 50 47 48 49 51 53 57 58 60 63 66 68 68
53 53 52 53 54 53 53 53 54 52 51 49 47 45 46 47 47 48 50 53 54 54 55 55 55 53 50 51 50 49 47 50 52 51 54 57 56 61 63 67 68 69 69
56 56 55 54 52 52 51 50 50 51 50 48 42 42 41 40 40 41 41 43 44 46 48 49 49 49 49 50 51 52 53 55 54 58 59 58 61 64 67 70 70 70 71
55 53 53 53 51 50 50 49 50 48 48 46 41 40 39 37 37 37 38 39 40 41 42 43 45 45 45 46 48 51 52 55 57 58 61 64 66 68 70 70 70 71 67
53 51 51 49 46 47 46 45 45 47 46 44 41 39 37 35 35 36 36 36 36 38 39 39 42 44 46 48 49 50 53 56 59 62 66 68 70 71 70 69 67 67 69
52 51 50 46 44 44 43 42 43 43 43 42 39 34 33 34 34 34 34 37 40 42 43 45 46 47 50 51 54 55 58 63 65 65 66 67 66 65 66 66 67 71 72
51 50 49 47 45 42 42 41 39 39 40 40 40 38 37 34 33 33 35 39 40 41 42 45 50 53 55 55 53 53 55 58 60 61 62 63 65 68 70 70 69 69 68
52 51 49 48 46 44 42 40 39 38 38 41 42 43 40 38 36 36 37 39 40 42 43 44 46 48 50 52 55 58 60 61 63 65 67 69 68 67 69 68 66 64 63
53 51 50 50 48 46 44 41 41 40 40 41 42 43 44 43 43 43 44 44 45 46 47 49 51 54 57 57 56 58 59 61 63 63 63 64 64 66 66 66 65 65 65
56 54 50 50 51 49 47 45 43 42 42 42 41 40 37 38 42 45 47 49 50 51 50 51 53 55 56 57 57 59 60 62 63 65 65 67 68 68 69 70 69 68 67
60 57 53 53 52 51 50 48 47 45 44 42 41 41 39 39 39 39 41 41 44 47 48 49 51 53 56 58 59 61 62 61 61 62 64 65 65 65 66 67 65 65 65
61 59 58 56 55 54 52 52 49 48 46 44 42 42 41 42 42 42 42 44 46 47 49 51 54 58 59 60 60 59 58 58 58 59 61 62 62 62 62 62 62 61 61
57 58 58 56 56 55 55 53 51 50 48 47 46 44 43 44 44 44 46 47 48 50 52 55 57 60 61 59 58 57 59 58 57 57 56 56 56 57 57 57 57 57 57
56 57 58 56 55 55 55 55 52 50 50 50 50 48 47 46 46 47 48 49 51 53 54 56 58 59 61 61 58 58 59 58 57 57 56 55 55 55 55 55 54 55 56
54 54 54 56 57 57 57 55 54 52 51 52 51 50 49 48 49 50 51 50 50 52 54 57 60 61 60 59 60 58 58 57 54 54 53 52 51 50 51 52 52 52 52

GFSGL_250_spd_072.txt.gz
Wind_Speed
118 119 115 113 112 110 112 113 114 114 113 116 117 117 117 118 119 119 118 117 116 114 112 110 109 107 107 106 104 102 101 100 100 100 100 98 97 97 97 94 92 90 90
116 116 117 120 122 122 123 121 116 113 112 111 111 112 112 113 113 113 114 113 112 110 109 105 105 105 105 102 101 102 99 100 100 101 99 98 97 95 92 90 87 86 82
114 116 117 117 117 117 117 118 118 118 116 113 111 109 107 106 104 106 108 109 107 106 105 103 102 101 100 99 100 99 98 98 97 96 95 94 93 92 92 91 88 83 78
105 109 112 113 113 115 116 117 116 115 115 114 113 112 111 111 111 111 111 110 109 107 106 105 103 100 98 98 96 97 97 97 96 95 94 93 92 92 91 88 80 77 75
103 104 105 105 106 109 112 114 113 113 114 115 114 114 113 112 111 110 110 109 108 107 107 106 104 102 101 100 99 97 98 98 98 98 95 93 90 87 85 79 74 71 69
98 100 102 103 103 104 105 106 107 108 108 109 110 110 110 111 110 110 110 110 109 107 106 105 104 103 102 100 98 98 96 94 93 91 88 83 81 78 77 74 71 71 66
88 91 95 98 101 102 103 103 104 105 106 107 107 108 108 108 108 108 108 109 109 108 108 106 105 102 100 97 93 92 89 86 83 82 79 77 75 73 73 71 69 66 61
85 86 88 90 91 93 95 96 98 100 101 103 104 105 105 105 105 105 106 105 103 100 98 95 92 91 90 89 86 83 83 80 77 76 74 72 71 69 65 63 62 57 51
83 85 88 88 87 87 88 88 90 92 94 94 96 96 96 96 96 96 97 96 95 93 91 89 87 86 85 82 78 77 75 73 70 67 68 65 62 59 57 57 53 48 45
77 78 79 81 81 80 81 84 87 88 89 90 89 89 89 88 88 89 90 90 88 88 87 86 83 81 79 77 73 71 69 66 65 64 62 57 54 55 51 48 47 47 48
70 70 71 72 73 72 73 74 74 75 75 76 75 75 75 74 75 76 77 78 76 75 73 71 70 69 67 65 64 63 61 59 58 55 53 52 50 47 45 45 47 51 54
63 63 62 62 63 62 61 61 62 64 64 61 60 59 59 57 57 57 60 62 62 61 60 60 58 56 56 55 54 54 53 52 51 50 49 48 46 44 45 48 52 56 61
58 57 57 56 56 55 54 52 52 52 52 54 54 54 53 50 48 49 50 50 50 50 50 49 48 48 47 47 47 47 47 47 46 46 46 45 45 47 50 55 60 63 64
56 55 54 53 52 52 52 53 52 50 50 49 49 47 47 42 44 46 44 43 42 43 42 41 40 39 39 40 41 41 42 43 44 46 47 49 53 55 58 62 64 64 61
59 58 58 57 57 57 56 54 53 51 50 48 46 45 44 41 42 44 42 40 38 37 36 36 35 36 36 37 38 38 38 39 41 43 46 49 52 54 55 56 58 60 63
65 64 62 62 60 59 57 53 51 51 48 46 46 45 43 41 41 41 41 38 35 35 34 33 33 33 34 36 37 39 41 44 46 46 47 50 54 57 59 63 65 66 67
65 65 62 62 60 58 56 53 50 51 47 45 43 42 41 41 40 38 38 36 34 33 33 32 33 35 37 39 41 43 44 47 49 52 56 55 55 58 59 61 62 64 65
62 62 60 60 58 56 55 52 51 49 45 42 41 39 39 39 39 38 39 36 33 33 33 33 34 37 37 39 40 41 42 44 47 49 51 54 57 60 62 63 65 67 68
61 59 58 57 56 56 55 51 49 47 44 42 41 39 38 38 38 39 39 39 37 37 38 38 38 39 41 43 44 46 48 51 53 55 55 57 59 62 64 65 66 66 68
62 59 57 56 53 52 53 51 49 47 44 42 41 39 39 39 39 41 42 43 43 43 43 44 45 46 47 47 50 51 51 53 55 58 61 62 64 67 69 70 70 72 73
65 62 58 54 52 51 51 50 48 48 46 44 43 41 40 40 39 40 41 43 45 47 47 48 50 51 50 49 50 52 53 54 56 59 62 65 65 67 68 68 69 69 69
67 65 62 59 56 53 53 50 49 48 48 47 44 42 42 43 43 42 41 40 41 42 43 44 45 46 48 49 49 52 54 57 59 61 62 61 62 65 65 65 65 65 65
66 67 67 64 62 60 56 54 52 50 49 47 46 46 44 44 45 45 44 42 43 44 43 45 46 47 48 50 52 54 57 60 62 63 62 60 61 64 62 62 62 61 60
61 64 67 67 66 65 63 60 57 54 51 51 50 48 47 46 46 46 46 46 46 45 46 47 48 50 51 53 55 57 60 62 63 61 59 59 61 61 59 58 57 57 57
53 59 61 64 65 67 67 65 61 58 56 54 52 51 48 47 48 48 47 48 47 48 49 50 51 52 54 55 57 59 62 63 61 60 60 60 57 56 55 54 53 52 53
45 52 57 58 60 65 67 66 64 62 60 56 55 53 51 49 48 49 49 49 50 51 51 53 54 53 54 56 58 61 62 62 60 60 57 53 51 51 51 49 48 48 48

GFSGL_250_spd_075.txt.gz
Wind_Speed
120 125 128 129 130 129 126 127 127 125 124 126 125 127 127 123 122 123 125 125 125 127 128 125 123 122 120 118 116 111 108 104 102 100 97 95 93 91 89 89 86 86 86
128 129 130 126 123 123 126 130 134 136 136 138 139 139 138 137 136 135 131 128 125 122 122 121 119 116 114 111 110 107 105 104 102 98 95 93 93 90 90 89 88 86 84
123 122 123 125 130 133 130 127 126 127 125 125 125 125 126 125 125 123 121 119 120 121 120 117 115 112 112 111 111 109 108 105 102 100 97 95 94 92 90 90 89 90 88
116 119 123 124 124 126 128 129 129 130 130 130 129 129 129 130 129 128 126 124 123 123 121 120 119 117 115 114 113 110 107 105 101 99 96 96 94 94 92 91 90 87 84
112 115 117 118 120 123 125 125 125 124 124 124 125 125 126 126 126 125 125 124 121 120 120 119 118 117 114 111 109 108 106 105 101 98 100 98 94 90 88 83 80 78 77
98 102 106 111 115 118 118 118 119 120 121 121 121 121 121 121 120 119 117 116 116 116 115 114 114 113 112 111 108 106 104 104 99 95 95 91 87 83 80 77 75 71 71
90 92 93 96 100 103 107 111 114 116 116 115 115 115 114 114 114 114 112 112 112 113 113 113 113 111 110 108 105 102 99 95 90 87 85 84 81 77 74 71 70 66 63
85 87 88 88 89 90 92 95 99 101 103 104 105 107 108 109 109 110 109 108 108 109 108 108 107 106 104 102 98 96 92 89 85 83 80 77 72 69 66 63 61 58 54
84 84 84 84 83 84 87 89 90 89 91 92 93 95 96 98 98 99 99 99 99 100 100 100 101 99 97 95 91 90 86 81 77 75 73 70 67 63 62 58 55 51 50
81 82 82 83 84 87 88 87 88 88 89 90 91 92 93 92 93 92 94 93 91 92 92 91 91 90 86 83 79 76 73 69 66 64 63 61 59 58 54 50 49 48 47
79 80 80 80 82 85 85 84 86 86 86 87 84 83 84 84 83 83 82 79 78 76 75 75 73 71 67 63 60 59 58 56 55 54 53 52 51 49 46 47 47 45 43
76 76 77 78 79 79 79 80 79 79 79 78 75 74 72 71 70 69 67 64 63 63 62 62 61 60 56 54 53 52 50 48 47 45 43 42 43 43 44 44 44 44 45
77 77 76 75 76 74 73 71 71 70 69 68 65 64 62 59 58 58 58 59 58 58 57 55 53 53 50 49 47 45 43 41 40 40 39 39 39 39 39 41 44 46 50
75 74 71 69 69 67 65 63 62 62 61 60 59 56 54 54 54 52 53 53 51 50 49 47 46 45 45 43 39 39 38 36 35 35 35 34 36 39 42 44 46 47 49
76 74 70 67 65 64 62 60 58 58 56 56 54 52 51 50 48 49 50 48 47 47 45 41 42 42 40 39 38 36 36 36 36 36 36 36 38 40 40 43 46 50 52
78 76 73 69 67 65 62 60 60 58 55 55 53 52 50 48 47 46 45 45 44 44 42 39 38 37 36 34 33 32 32 33 35 36 38 39 40 42 44 45 48 53 56
80 79 76 74 71 68 65 64 63 60 58 57 54 53 51 48 47 45 43 42 41 42 40 36 36 35 34 33 33 34 36 36 36 37 39 40 42 44 47 48 51 53 56
78 77 76 75 73 71 68 66 64 61 58 56 53 53 51 49 46 43 41 40 40 41 39 38 38 36 35 35 35 35 35 36 38 40 41 43 45 49 51 52 54 56 58
74 75 74 73 71 69 66 63 62 60 57 54 52 52 49 48 45 42 40 39 39 40 41 40 38 38 38 39 39 39 41 42 44 45 47 50 50 51 54 57 59 62 65
69 70 71 71 69 67 63 61 58 56 54 52 51 51 49 48 45 42 38 38 37 38 39 38 38 39 40 42 45 46 47 47 49 51 50 52 54 57 59 62 65 67 69
61 66 66 67 67 65 63 61 57 55 53 51 49 49 48 47 45 42 39 37 37 38 37 37 40 43 45 46 47 49 50 49 49 50 54 55 56 60 63 66 66 65 66
54 59 62 63 65 65 63 60 56 54 53 50 49 47 46 46 45 42 40 39 39 39 40 39 41 43 45 45 45 47 49 50 50 52 55 58 61 63 66 65 64 64 62
49 53 57 59 62 63 62 60 57 55 55 51 48 46 44 45 44 43 42 43 42 42 42 43 43 45 45 46 47 49 50 52 53 55 59 61 63 66 65 63 63 62 62
46 48 52 54 57 61 61 62 61 58 56 53 50 47 44 43 44 44 45 45 46 46 46 45 45 46 46 47 49 49 52 54 56 59 60 62 65 64 62 61 60 58 56
43 46 47 51 53 57 58 60 61 62 59 57 54 52 49 47 46 46 46 46 48 49 49 49 49 48 49 51 51 53 54 57 57 59 61 64 63 61 60 56 52 51 49
39 42 43 44 49 53 56 58 60 62 62 61 59 56 54 52 50 49 49 49 49 49 49 49 50 51 53 52 52 55 56 55 56 60 63 64 61 59 54 49 46 47 47

GFSGL_250_spd_078.txt.gz
Wind_Speed
114 108 106 107 104 104 100 97 96 106 110 111 109 111 118 117 113 115 121 123 123 118 119 120 120 122 128 134 136 138 139 137 121 119 115 111 109 105 101 99 95 92 88
135 131 131 132 129 129 125 123 120 118 113 116 120 123 122 121 122 125 128 130 131 134 136 135 135 138 140 139 137 131 128 127 121 115 113 110 107 105 101 96 94 91 88
126 126 128 133 135 135 137 136 137 137 136 139 137 134 134 135 134 134 135 137 140 141 145 145 141 136 133 132 136 130 126 123 120 117 112 109 104 100 98 96 94 91 89
135 132 129 130 132 133 133 135 137 139 140 143 145 146 146 146 146 147 148 148 143 141 139 138 138 139 136 131 129 127 126 123 117 113 109 107 103 100 98 97 93 89 85
130 134 137 142 145 143 141 138 136 136 137 137 137 140 141 142 144 145 147 147 145 143 142 139 136 133 133 133 130 124 119 116 114 111 109 106 103 98 96 93 89 83 80
110 118 125 131 135 141 144 147 149 149 147 145 146 146 146 147 150 147 143 141 139 138 137 135 132 128 126 122 121 120 116 113 110 108 105 101 97 93 88 85 82 78 75
94 100 106 112 120 126 130 133 135 136 138 137 137 137 137 136 135 134 133 132 130 129 128 127 124 122 121 118 114 111 109 106 104 101 99 96 91 87 83 84 80 74 72
89 91 95 99 102 106 110 113 116 118 119 120 121 122 124 124 123 122 123 123 122 120 118 115 113 111 108 106 104 104 103 100 99 96 92 88 83 77 73 72 68 66 65
89 90 93 94 95 96 97 99 101 102 103 103 104 105 106 107 107 107 107 107 107 105 103 101 100 100 99 98 98 99 94 90 86 79 73 68 64 61 59 59 59 58 57
87 89 89 90 91 92 94 94 94 93 94 94 95 97 98 98 98 96 96 96 96 95 93 94 91 91 91 91 89 85 79 73 67 62 58 55 52 50 49 49 51 49 49
88 88 88 87 87 88 88 88 89 88 89 90 91 93 93 93 92 90 90 89 90 88 86 86 83 81 80 77 74 70 66 62 58 55 50 47 45 42 40 41 42 42 42
88 89 88 88 87 87 87 87 87 87 87 88 88 88 86 84 82 81 81 80 79 77 73 71 68 67 68 66 65 64 60 56 52 48 46 42 39 37 36 36 36 37 37
89 89 89 88 88 87 85 85 84 83 83 83 81 80 78 76 74 72 69 67 66 65 63 62 60 60 60 60 59 56 52 48 45 44 42 39 36 33 32 32 33 33 34
90 92 91 90 89 87 85 83 81 81 80 78 75 74 71 69 66 62 59 59 59 57 57 58 57 54 55 54 54 51 46 44 42 40 39 38 37 36 36 36 37 37 38
87 89 91 93 92 89 86 84 81 80 77 73 70 66 63 60 57 56 56 55 53 53 53 53 52 51 51 51 50 47 42 41 40 38 37 36 36 37 36 36 36 37 38
79 83 86 88 90 89 87 84 81 77 71 67 63 61 58 56 55 54 53 53 50 49 48 47 47 48 48 47 46 43 41 40 36 34 34 34 33 33 35 37 39 41 42
74 76 79 81 84 86 85 81 78 74 69 65 63 59 58 56 55 55 54 52 49 48 46 44 44 46 45 43 40 39 39 39 37 36 36 36 35 34 34 36 38 40 42
62 68 71 74 77 81 82 81 77 74 71 66 64 62 61 58 57 57 54 53 49 46 45 43 43 45 43 42 39 39 39 38 36 36 36 37 37 39 40 40 43 45 47
53 57 62 66 70 73 77 79 78 75 72 69 67 65 63 59 58 58 54 52 48 46 45 42 42 42 41 40 40 41 40 39 39 39 39 40 42 42 44 44 46 48 52
49 50 53 56 61 64 69 73 75 74 72 69 66 64 62 59 58 55 53 50 46 45 44 43 40 39 39 41 42 42 41 41 41 42 42 43 44 45 45 47 51 54 56
46 48 49 50 52 55 59 64 69 69 67 64 62 60 57 55 55 53 51 48 45 44 45 43 40 39 39 40 40 41 41 41 40 41 43 45 45 46 49 52 54 57 62
45 46 46 48 48 49 51 54 60 63 61 58 57 56 54 53 53 51 49 46 44 44 45 45 43 41 39 38 38 39 42 42 41 44 47 47 48 50 52 55 57 61 63
43 44 44 45 46 46 46 49 54 58 58 57 55 53 51 51 52 50 47 46 45 44 45 45 44 43 41 41 41 42 43 44 46 48 49 49 50 52 54 57 59 61 65
41 41 43 43 44 45 45 45 49 54 56 55 53 52 50 50 51 50 48 47 45 45 45 45 44 44 44 45 45 45 46 47 48 48 49 50 53 54 56 57 60 65 64
39 38 39 40 41 44 44 44 46 50 54 55 54 53 51 49 50 50 49 48 47 47 45 45 45 46 47 48 48 49 50 51 52 52 52 53 54 54 55 59 63 65 63
35 36 36 37 38 40 44 43 44 48 51 53 55 53 52 51 51 51 51 49 48 47 46 45 46 47 48 48 49 50 50 51 51 51 53 53 52 53 57 62 63 62 60

GFSGL_250_spd_081.txt.gz
Wind_Speed
124 121 122 112 110 111 114 111 112 115 113 116 114 111 107 111 114 117 116 120 121 126 123 117 116 121 126 118 118 119 123 127 131 129 137 140 142 141 139 129 122 119 112
114 121 118 110 118 117 112 112 111 113 116 121 112 114 114 117 115 124 128 128 125 120 116 117 122 124 117 121 117 124 129 131 143 146 142 140 142 134 126 123 120 111 107
123 126 126 116 122 128 124 124 127 130 125 125 131 131 132 130 122 122 129 127 126 122 125 129 135 126 130 135 139 143 146 150 149 141 144 146 135 131 126 119 113 108 101
128 125 117 124 131 129 130 129 130 122 120 125 127 128 133 130 130 133 130 130 132 136 140 141 142 142 144 149 154 150 145 142 146 149 143 135 128 122 116 109 102 99 95
131 128 129 128 135 134 129 135 131 130 134 135 139 138 139 136 139 135 139 142 146 146 145 149 152 156 157 148 145 147 152 151 145 139 133 125 118 109 104 103 97 93 91
140 137 136 137 141 139 138 142 141 144 147 143 148 149 148 150 149 149 152 154 154 154 156 152 148 149 147 150 157 150 145 141 135 125 116 110 105 103 100 96 93 89 87
144 146 142 144 146 148 151 151 150 150 153 156 157 157 161 160 159 155 150 150 149 149 149 152 156 158 158 151 144 137 129 120 114 110 106 103 99 96 94 89 81 73 70
140 152 150 153 151 150 152 155 158 158 155 155 156 157 156 154 157 157 158 157 155 156 156 157 156 148 140 131 124 117 112 108 105 102 100 97 90 86 78 69 63 58 57
105 115 130 143 150 156 159 159 160 160 159 159 160 161 159 158 159 157 151 149 146 142 137 134 130 124 118 113 109 106 102 99 96 95 91 84 76 69 61 57 54 51 47
98 102 106 111 116 120 125 129 132 135 136 137 139 137 133 132 129 124 121 121 118 118 115 112 110 105 101 101 99 94 93 90 86 81 74 68 63 58 54 51 47 44 41
91 96 103 105 107 108 110 111 113 113 114 114 115 115 113 113 112 110 108 107 107 104 102 101 100 98 96 91 87 82 77 73 71 67 63 59 55 51 47 44 40 38 36
84 88 94 97 101 104 104 105 105 106 106 105 105 105 103 102 101 100 97 98 99 96 93 92 90 86 81 77 72 67 62 62 62 60 57 53 49 46 43 39 37 34 32
81 84 88 92 95 97 98 102 103 102 102 100 99 98 97 97 93 92 92 92 90 88 84 80 76 74 69 64 61 58 57 59 58 56 53 49 45 43 40 38 36 33 32
80 81 83 87 89 93 94 96 97 98 99 98 98 96 94 91 89 87 86 83 81 75 71 70 68 62 57 57 56 56 55 56 55 51 48 45 42 40 38 36 34 33 32
80 81 81 82 85 88 90 94 94 95 95 94 92 90 88 85 82 78 78 74 70 69 65 63 59 55 55 55 55 53 52 51 51 46 44 42 38 37 34 32 32 32 31
75 78 78 78 80 84 86 88 91 94 93 93 90 87 84 80 77 73 71 68 65 62 61 58 55 53 53 52 51 49 47 47 46 44 42 37 36 37 35 33 33 31 32
61 67 69 71 73 77 80 83 86 86 89 90 89 89 86 81 73 70 67 63 60 58 58 55 54 52 50 49 48 45 44 44 43 42 38 36 37 37 36 35 34 34 35
51 56 61 63 63 66 71 74 76 79 81 83 86 86 83 78 72 69 64 61 58 56 56 55 52 51 50 48 46 43 41 41 41 40 39 37 36 37 38 37 38 40 40
46 49 52 55 57 58 61 64 67 68 72 75 79 80 79 73 66 64 61 59 58 57 57 56 52 50 49 47 46 42 40 40 40 40 38 37 40 43 43 43 42 40 41
43 45 47 49 52 52 53 57 59 61 62 65 68 71 71 68 63 62 61 60 59 57 58 57 52 50 49 46 44 41 40 42 42 41 41 42 43 44 41 40 39 39 41
42 44 44 44 47 48 49 51 53 55 56 58 62 65 64 61 61 61 62 60 59 59 59 58 53 50 48 45 43 42 43 43 42 42 43 42 42 40 41 41 42 43 45
42 43 44 44 45 46 46 47 49 52 52 52 56 58 58 57 60 60 59 57 57 57 56 55 52 49 46 43 42 42 42 41 41 42 43 42 41 43 45 45 46 47 49
42 41 44 44 44 45 44 44 45 48 49 48 50 54 54 54 56 56 55 53 53 52 52 52 50 47 45 43 42 42 43 43 43 44 44 44 45 46 47 48 49 51 53
43 39 41 42 42 43 42 41 42 44 46 46 47 50 52 53 54 53 51 50 50 50 50 50 48 46 44 44 42 43 43 43 44 45 46 47 48 49 50 51 52 54 55
38 38 38 39 39 40 40 40 40 42 43 44 46 48 51 52 52 52 51 49 49 50 49 48 47 46 46 45 44 44 45 46 47 47 48 49 49 50 50 50 52 54 55
34 34 34 36 35 36 38 39 39 40 42 44 45 47 50 51 51 51 51 50 49 50 49 48 47 47 47 46 46 47 46 47 48 49 49 49 50 52 53 53 54 55 56

GFSGL_250_spd_084.txt.gz
Wind_Speed
101 102 114 103 106 100 97 92 93 97 98 95 95 95 96 100 100 98 100 98 94 100 101 101 112 118 111 119 119 119 122 122 123 123 131 128 122 133 136 137 140 144 144
104 99 100 109 102 104 99 98 92 87 89 94 96 95 93 93 97 98 96 94 92 104 109 110 118 118 124 125 116 120 131 132 137 141 128 133 138 136 145 144 150 146 141
118 120 114 105 109 107 108 104 107 105 102 99 101 105 104 100 103 104 102 114 108 107 112 114 120 119 124 128 130 135 137 138 131 134 136 138 140 144 150 148 145 138 141
121 121 124 126 123 116 110 109 106 104 104 103 105 111 110 112 114 121 118 114 115 124 130 135 131 132 133 137 140 143 138 136 138 143 143 143 151 153 147 147 145 131 117
129 127 130 125 131 134 130 124 120 121 118 120 122 123 125 125 125 127 127 132 134 135 137 138 142 144 145 147 140 142 144 146 148 149 149 158 159 152 159 140 124 112 104
132 135 136 137 136 136 135 138 138 141 139 137 139 141 137 135 136 134 137 141 142 142 145 150 147 148 144 140 145 147 149 151 150 158 161 155 156 153 129 119 109 105 101
136 135 138 139 141 142 139 138 143 144 145 147 147 146 139 141 142 146 145 145 149 154 156 154 159 156 155 150 151 154 158 160 161 160 159 153 138 125 115 108 105 100 90
148 149 150 146 142 143 144 147 148 148 149 146 147 148 147 147 151 153 151 149 152 154 157 158 156 155 159 157 160 157 161 160 159 156 144 128 116 109 105 101 94 81 71
156 151 152 159 153 149 150 151 152 152 155 156 152 154 156 156 158 157 157 157 151 157 159 164 166 163 163 165 159 163 160 166 155 135 120 109 103 99 96 86 73 66 58
108 124 151 167 166 158 159 167 165 160 158 161 164 161 162 158 164 162 158 162 161 165 162 163 164 164 167 170 162 169 156 135 121 111 105 99 93 88 79 67 60 57 52
90 99 111 123 131 143 159 173 172 168 169 169 168 171 170 167 166 163 163 169 170 160 159 162 165 161 159 164 152 133 121 112 105 100 94 88 80 72 64 56 54 51 47
89 94 101 105 109 119 126 133 137 144 156 167 176 177 175 174 170 163 166 166 166 161 156 157 161 148 136 126 118 112 105 100 94 88 81 73 64 59 56 53 48 46 40
87 93 96 97 101 108 110 114 120 128 132 134 136 138 140 144 148 150 147 144 139 136 136 132 124 118 111 108 103 98 93 85 80 74 66 59 55 54 53 50 45 40 37
76 84 92 96 96 97 100 108 111 114 116 123 127 127 126 125 125 125 124 123 119 116 114 112 105 101 100 96 92 86 78 73 67 63 56 54 53 51 49 46 43 38 37
69 73 78 86 91 92 92 95 99 104 106 107 110 116 118 117 115 114 110 107 105 105 100 96 94 92 89 85 77 70 65 63 58 55 53 53 50 48 46 43 40 37 36
62 66 69 72 77 82 85 86 88 89 93 95 98 101 104 106 107 104 101 99 98 96 92 91 86 81 75 69 64 62 59 56 53 52 51 50 49 45 42 41 38 35 35
56 59 62 65 67 70 74 78 79 79 81 84 87 91 94 97 98 97 96 93 90 86 85 80 73 70 65 60 58 57 54 51 50 49 47 46 44 41 40 39 37 36 36
51 54 55 58 60 64 66 67 69 71 72 76 79 84 87 89 90 91 90 88 85 84 82 75 67 64 58 56 55 54 52 50 49 47 46 43 42 41 41 39 39 38 38
49 50 52 53 54 56 58 61 63 63 64 65 70 75 78 81 83 83 83 82 81 80 77 71 63 60 57 55 53 52 52 50 48 45 44 42 42 42 42 41 40 40 42
46 45 45 47 50 51 52 54 54 58 59 57 60 65 67 71 73 74 75 76 78 77 74 68 59 56 56 55 53 53 52 50 48 45 44 43 43 43 44 45 44 45 48
44 44 42 43 45 46 49 50 49 50 52 54 55 57 60 62 64 67 68 69 70 72 72 64 58 55 56 54 52 52 52 50 48 46 45 43 44 43 44 46 47 47 48
43 42 41 41 42 43 44 46 46 46 47 48 53 54 55 56 58 61 62 63 65 65 62 59 57 56 56 55 53 53 52 50 48 45 42 42 43 44 45 46 46 46 48
43 42 40 39 39 42 42 42 44 44 44 45 47 50 51 53 54 57 55 56 58 58 56 56 56 57 57 55 54 52 51 50 47 45 44 43 44 44 46 47 48 49 50
41 40 39 38 36 39 42 40 42 43 42 43 44 45 48 50 51 50 51 52 53 53 53 54 54 55 55 53 51 49 48 48 48 46 45 45 46 47 48 49 49 50 50
39 38 36 35 34 35 39 37 39 40 40 40 42 43 45 46 47 48 50 50 51 49 51 51 51 51 50 48 48 47 47 48 48 47 47 47 47 47 48 48 48 50 50
37 35 34 32 31 32 34 35 36 36 37 38 39 40 41 43 47 47 48 49 48 47 48 47 46 47 47 47 46 46 46 47 47 47 46 47 48 50 49 49 50 51 53

GFSGL_250_spd_090.txt.gz
Wind_Speed
113 102 112 100 89 90 89 95 106 104 102 101 93 101 95 91 89 89 88 85 91 92 93 93 94 96 96 94 95 95 95 97 97 100 102 103 104 102 102 104 102 104 101
103 102 90 93 101 93 91 90 93 92 93 98 100 97 98 97 97 96 97 96 90 90 95 96 94 97 96 100 100 98 100 102 104 106 108 107 109 104 108 106 105 108 113
93 93 95 100 95 100 98 91 96 98 96 100 97 97 94 100 105 103 103 96 98 102 102 102 103 103 106 106 103 107 109 109 109 108 112 111 110 113 112 112 113 112 109
93 95 95 93 100 106 102 100 99 98 98 97 98 99 100 100 99 99 99 99 99 104 103 106 105 106 106 107 109 107 107 110 111 112 113 117 115 117 114 115 116 113 118
104 107 110 107 107 107 103 104 105 106 105 101 105 105 104 106 104 105 104 109 104 104 106 106 108 106 110 109 113 112 112 109 115 114 116 119 119 123 119 120 119 123 131
100 107 116 118 111 111 111 112 110 113 110 109 109 111 109 113 112 115 115 113 111 108 109 107 105 109 114 117 114 114 117 113 118 123 120 123 124 124 127 125 129 136 138
105 112 114 117 121 123 122 122 124 119 118 120 121 123 118 118 123 120 122 120 116 115 117 116 116 116 116 119 120 118 118 119 118 127 127 126 127 131 136 138 141 139 141
106 111 116 113 119 124 129 132 131 131 132 134 129 127 124 126 126 128 129 127 125 122 123 124 123 123 122 124 124 123 124 131 131 131 134 134 134 137 141 139 147 151 151
111 117 116 121 124 128 131 133 135 134 137 137 141 142 140 138 140 146 142 134 134 129 131 133 131 129 129 126 130 129 135 133 135 139 137 137 142 142 145 151 155 150 146
116 123 129 132 135 142 141 139 140 142 147 151 155 154 151 150 150 146 144 142 140 140 143 139 137 136 135 137 137 138 141 143 146 144 141 145 145 151 153 156 151 158 153
111 126 134 140 145 150 150 150 152 157 158 157 155 158 156 153 156 156 155 154 154 153 148 147 146 143 144 141 143 143 141 141 141 147 148 145 154 159 158 153 149 143 140
94 109 128 145 152 159 156 159 172 169 168 167 164 166 167 166 164 161 159 157 158 157 154 155 155 153 153 151 149 151 154 155 158 157 160 159 160 164 160 152 112 135 137
92 101 112 119 127 133 137 137 162 175 170 170 171 166 180 173 167 168 165 167 170 164 162 159 157 160 157 161 157 159 162 160 165 168 160 158 163 148 160 162 150 117 102
88 96 102 112 123 134 136 135 135 137 140 139 134 135 164 169 169 172 179 174 180 170 171 170 172 172 166 169 176 176 175 170 164 161 148 154 137 133 123 108 102 95 85
82 82 81 80 82 86 94 105 116 126 134 138 137 134 131 133 144 147 149 154 164 168 158 152 153 170 178 180 173 156 142 136 127 118 113 108 106 107 97 90 84 77 68
71 69 67 65 65 67 71 76 81 87 92 100 109 120 128 131 133 134 133 133 137 136 135 136 133 134 134 135 133 132 126 120 112 106 96 91 90 81 77 71 67 59 55
64 62 60 58 57 58 60 63 67 69 74 78 83 89 97 104 111 117 123 131 134 134 130 131 132 133 131 128 127 121 115 107 97 89 81 79 73 70 63 58 53 50 47
62 59 58 57 56 55 56 58 60 63 63 66 68 72 76 80 85 91 97 102 107 111 112 116 116 116 112 109 108 103 90 80 79 74 70 66 63 57 53 50 47 45 43
61 58 56 55 54 54 53 54 56 58 60 60 59 62 65 67 70 74 77 81 85 89 89 96 96 99 99 93 87 83 75 70 68 64 61 56 54 50 50 48 48 43 41
59 56 55 52 52 50 50 51 53 54 55 57 57 56 57 60 62 64 65 67 70 74 73 78 80 80 81 75 72 72 72 64 60 57 53 50 50 47 47 47 47 41 41
57 55 52 50 49 48 47 47 48 50 51 53 54 54 50 52 56 58 60 59 61 62 63 66 65 65 67 64 60 61 64 60 55 52 50 49 49 46 45 46 45 42 42
55 52 49 47 45 44 44 44 45 45 46 49 50 50 45 45 50 52 55 54 54 54 55 58 58 57 58 59 58 59 58 56 54 52 50 51 50 46 46 46 45 44 43
52 49 46 44 41 41 41 41 41 41 41 42 44 44 40 43 46 47 49 47 47 46 48 52 54 56 57 57 60 59 56 56 57 55 55 55 54 49 49 47 46 45 45
48 46 43 41 39 38 38 38 39 40 39 38 39 38 39 42 42 42 41 41 41 40 44 49 51 52 53 55 56 54 55 57 57 57 58 55 54 47 48 47 47 46 46
45 42 40 38 38 37 36 34 34 35 35 34 33 34 38 39 38 36 36 36 37 40 45 46 47 49 50 50 51 52 53 56 58 58 55 50 50 47 46 47 46 47 47
41 38 37 36 34 32 30 29 28 29 30 29 29 31 35 36 32 32 32 34 37 40 41 42 44 47 48 48 46 46 48 50 51 52 51 49 48 46 46 46 47 49 49

GFSGL_250_spd_093.txt.gz
Wind_Speed
79 84 87 90 91 87 93 91 91 94 99 96 96 92 92 94 99 102 98 96 94 99 97 91 93 93 97 88 86 87 90 94 93 93 94 96 93 98 102 102 97 101 101
84 84 95 93 103 94 92 99 100 102 100 92 95 101 98 97 93 103 107 109 103 100 102 105 101 105 99 105 101 98 97 98 99 96 97 102 102 105 108 103 102 102 103
66 79 88 87 91 102 108 96 98 94 100 104 101 98 104 100 103 100 104 105 111 109 107 112 111 112 107 102 103 101 101 99 99 98 101 104 105 106 105 103 107 104 107
75 72 84 87 92 93 102 104 102 95 92 94 102 110 107 111 108 105 103 101 103 106 110 103 106 108 104 103 108 112 107 99 98 102 105 107 105 108 105 103 110 111 110
76 86 81 90 100 105 105 102 105 106 104 111 102 99 103 115 118 110 106 106 105 104 108 110 103 102 106 102 101 103 98 100 99 104 104 105 109 108 108 111 109 114 113
80 82 92 97 96 105 105 107 111 114 112 109 108 107 110 110 106 109 114 108 107 107 105 104 97 102 101 104 102 103 98 99 103 105 105 108 112 110 110 113 118 110 119
94 92 91 96 98 103 106 115 110 111 112 114 117 118 114 117 115 116 110 109 109 110 112 109 109 108 105 107 108 105 106 106 107 108 113 108 110 114 117 119 115 122 123
87 96 100 100 103 105 109 113 121 130 131 125 124 125 124 124 124 125 121 117 115 116 117 117 118 118 112 110 112 114 114 110 110 112 113 112 116 119 122 128 123 130 128
84 88 94 99 107 104 113 115 119 123 130 132 135 133 133 134 134 130 131 131 130 133 129 129 126 127 127 124 122 117 123 118 112 119 120 126 128 130 131 131 134 137 134
88 89 96 104 109 114 119 124 127 129 132 140 141 147 144 145 143 145 146 145 145 141 143 142 139 140 135 135 133 131 127 129 135 128 132 134 135 130 134 133 137 137 134
63 70 74 82 102 115 125 127 133 140 149 153 150 151 151 155 159 158 156 156 154 150 146 147 145 139 138 139 142 136 139 135 137 135 134 138 137 136 136 135 136 136 141
73 74 80 85 98 98 106 117 137 149 150 145 149 158 159 163 157 158 157 151 156 159 159 154 158 151 145 147 147 149 144 140 142 141 145 141 142 139 139 145 142 141 145
84 88 86 86 98 104 116 121 117 118 129 131 127 133 148 153 163 160 164 167 165 165 157 158 156 151 152 153 156 157 151 149 152 147 150 149 148 148 145 144 146 147 151
97 91 89 87 89 93 98 104 112 118 127 129 124 126 130 129 143 153 155 160 169 177 173 170 164 161 163 159 159 160 149 153 154 155 159 154 157 147 154 150 146 133 116
100 95 88 83 80 80 80 82 86 91 94 100 108 114 117 125 132 134 135 139 142 142 140 137 141 148 153 147 142 150 158 156 150 146 144 145 148 145 133 117 107 102 99
98 91 82 75 72 71 70 71 71 73 74 77 80 83 89 97 103 108 116 128 135 137 135 134 134 131 127 124 122 117 121 123 125 126 124 118 113 109 108 103 96 87 79
93 84 77 71 67 66 66 65 67 64 66 67 68 70 74 77 81 85 88 92 97 104 112 123 129 133 127 120 120 114 114 116 114 113 112 109 107 105 98 90 78 66 59
84 77 71 69 65 62 59 60 60 62 59 61 63 63 65 68 69 71 73 74 78 80 84 88 95 102 107 110 108 108 109 113 113 110 108 104 98 92 83 72 59 53 50
81 75 70 65 62 60 56 54 56 57 58 56 55 58 59 60 63 63 63 64 65 68 70 72 75 79 85 89 91 95 96 99 97 93 92 94 89 79 74 63 55 49 45
77 72 67 63 59 56 54 51 50 52 54 53 53 51 53 54 57 59 59 58 58 60 60 60 63 66 70 73 77 80 82 84 83 85 83 79 75 66 64 56 52 46 44
75 67 63 58 55 52 50 48 47 47 49 49 49 48 47 49 52 54 53 54 54 55 56 55 56 58 60 63 66 66 67 69 74 75 71 68 64 60 55 51 48 44 44
71 68 60 57 53 50 47 45 43 43 43 43 44 45 45 45 46 47 50 51 51 51 51 51 52 53 54 55 55 55 56 59 60 61 61 59 56 52 49 49 46 47 45
67 64 60 54 51 48 44 42 40 39 39 40 39 39 40 40 41 41 44 47 48 48 48 48 48 49 50 49 48 48 50 52 52 52 53 53 51 48 49 49 48 49 49
64 60 57 53 48 45 41 39 37 36 36 37 36 35 35 37 38 39 39 44 44 45 45 44 44 45 45 45 45 45 46 47 48 50 51 51 50 49 50 49 50 49 51
62 57 52 49 44 41 37 35 33 32 31 31 32 31 32 34 35 35 37 38 38 39 40 39 41 42 43 43 43 44 45 47 49 50 50 51 51 51 52 52 52 55 56
60 55 48 44 42 38 33 29 27 26 26 26 27 27 29 30 31 31 31 32 32 33 35 37 39 40 40 41 42 43 45 47 47 47 49 52 53 56 57 54 56 55 56

GFSGL_250_spd_096.txt.gz
Wind_Speed
58 65 66 67 66 70 71 75 80 89 93 88 92 88 95 90 97 95 97 98 97 97 97 89 92 93 96 98 94 90 97 97 96 94 92 92 95 91 98 99 102 103 100
65 66 64 55 62 61 68 76 82 89 96 97 102 102 92 91 94 92 98 102 98 94 100 98 95 101 97 101 103 101 99 99 97 101 100 101 103 101 103 104 94 99 99
64 62 60 59 56 60 64 62 71 83 98 101 111 109 108 105 100 99 104 99 100 104 105 109 104 105 108 106 108 103 103 104 101 103 103 101 99 104 105 108 101 101 97
66 63 69 71 69 72 72 72 70 74 83 95 110 112 107 100 105 107 103 102 103 103 103 103 102 106 106 106 106 105 105 105 107 108 106 108 107 105 107 110 106 99 96
59 52 51 55 64 72 74 82 83 82 87 90 92 97 103 108 109 111 108 105 105 106 105 105 107 115 116 113 114 116 116 116 114 112 120 115 109 107 111 105 103 104 103
63 67 68 70 71 74 78 83 87 92 96 95 104 109 112 108 107 107 113 115 112 113 114 116 116 115 112 110 113 121 117 116 125 122 119 122 111 98 101 107 102 98 100
65 61 67 69 70 71 77 81 88 94 100 108 108 107 114 117 115 115 120 116 116 112 113 115 115 120 121 114 112 112 117 116 118 111 106 106 102 106 92 102 99 104 104
65 68 68 73 74 80 87 91 92 93 97 101 108 115 119 121 124 122 118 116 116 120 122 123 121 124 123 122 118 116 115 111 112 111 108 109 102 101 102 97 109 107 111
56 66 77 75 81 88 88 91 94 98 109 111 112 115 124 125 126 129 131 132 128 124 128 129 127 122 118 121 122 123 125 121 113 117 113 114 112 111 110 108 109 113 119
39 41 51 61 62 77 96 100 105 107 116 114 118 129 130 131 136 140 139 139 140 140 139 138 136 133 133 135 127 126 122 121 126 124 122 115 114 115 116 118 121 123 127
47 53 61 65 70 75 78 86 95 108 119 129 133 135 135 142 146 146 146 144 144 145 145 146 144 142 141 136 137 136 135 138 131 128 129 130 126 128 126 124 125 127 126
62 66 71 76 77 79 84 91 96 106 111 116 125 137 146 152 154 154 157 159 158 156 153 153 154 155 153 148 150 150 149 140 139 134 133 136 132 133 136 128 126 129 128
72 76 80 85 90 89 88 92 98 117 120 123 128 125 133 138 141 142 146 145 149 144 146 152 158 157 154 154 153 147 146 146 145 146 145 140 139 136 136 136 135 139 132
83 87 93 96 96 97 95 92 91 95 102 114 122 127 135 138 141 145 144 143 143 144 139 136 139 142 145 151 154 154 153 154 153 152 149 147 146 141 140 139 141 137 128
91 97 100 99 95 92 90 86 82 80 79 81 85 88 95 103 111 118 124 128 132 136 134 134 128 126 128 126 132 144 151 151 150 151 152 153 152 140 135 131 125 119 117
101 103 103 98 92 87 82 78 74 70 69 68 71 73 76 80 85 89 92 97 103 110 114 121 124 126 123 123 125 126 125 126 128 134 133 132 133 129 124 123 119 116 111
108 107 100 92 84 78 73 70 67 65 63 62 64 66 67 70 72 74 74 77 80 83 86 90 95 100 103 107 113 113 121 126 126 126 122 122 119 118 116 116 115 109 106
110 104 93 86 79 74 68 65 61 62 59 56 57 59 61 62 63 65 64 64 67 69 70 73 75 77 81 86 94 101 109 116 119 119 117 116 115 111 111 110 105 102 97
108 97 90 83 74 70 67 64 59 56 55 53 50 52 54 54 55 57 56 57 60 60 61 62 63 64 66 68 73 78 85 90 96 103 106 106 103 101 100 97 95 89 83
102 92 84 78 73 70 65 61 56 52 50 48 47 44 44 50 50 50 51 51 53 54 55 56 56 57 56 58 61 63 65 70 74 78 79 80 82 85 86 84 81 80 76
95 90 83 76 73 69 64 58 52 48 46 43 42 40 38 41 45 43 46 47 47 47 48 49 51 51 51 52 53 54 56 58 59 60 64 65 68 68 69 69 66 62 58
90 84 79 75 72 65 59 54 49 43 40 38 36 35 35 35 39 41 41 42 43 44 44 44 45 45 45 45 46 47 48 47 50 53 52 53 55 56 59 59 54 51 46
86 80 76 72 67 61 54 49 45 39 35 33 31 30 31 32 34 36 37 38 38 39 39 39 40 41 41 40 39 40 40 42 45 43 42 47 50 51 51 50 48 46 42
81 76 72 66 60 57 52 44 39 36 32 29 28 28 29 31 31 31 32 33 34 34 36 36 37 37 37 36 35 35 36 39 41 43 44 45 47 48 47 45 44 44 46
79 73 67 61 58 53 47 42 36 32 30 27 26 25 27 27 27 27 28 29 29 31 32 33 32 32 33 33 32 33 36 39 39 40 41 43 43 43 43 43 44 47 48
75 70 63 59 53 47 42 36 33 30 26 24 23 22 22 23 22 21 22 23 26 26 27 26 27 28 29 30 31 34 36 36 37 38 39 40 42 44 44 46 48 49 49

GFSGL_250_spd_099.txt.gz
Wind_Speed
46 48 53 56 61 60 59 60 63 69 68 69 67 71 73 74 79 83 79 78 78 79 81 86 85 85 85 86 88 87 87 89 83 78 80 79 79 80 88 87 91 93 94
41 45 49 53 53 55 56 60 64 66 68 69 68 67 70 79 88 85 93 89 89 90 90 95 96 93 93 93 92 94 86 88 87 87 88 85 89 85 93 91 90 98 96
38 39 44 48 51 53 57 60 62 63 68 67 70 71 71 80 83 91 94 93 90 92 95 97 104 109 102 98 97 98 100 94 92 91 96 96 94 94 98 102 106 103 99
43 45 46 50 49 48 51 55 59 62 63 69 68 72 72 86 89 88 96 99 99 99 96 97 100 99 99 97 93 97 95 97 98 102 103 109 103 108 107 107 102 100 102
38 42 47 46 48 49 53 53 51 64 64 62 65 72 74 88 96 98 96 100 104 106 104 110 111 110 107 110 110 107 109 108 105 105 109 111 113 109 109 105 108 109 112
34 43 47 54 56 57 59 64 66 70 71 63 72 73 74 79 89 101 105 113 109 106 106 112 112 115 120 119 117 115 110 117 117 109 108 114 117 110 110 118 120 115 112
21 27 36 53 56 62 64 69 75 76 78 79 81 79 78 86 88 89 94 97 103 111 114 116 116 104 107 108 105 108 110 109 111 105 107 108 108 115 111 106 111 112 109
18 26 40 51 54 61 66 69 75 79 85 84 90 93 96 102 105 105 105 107 109 108 113 116 114 113 116 115 114 112 113 107 100 97 100 103 105 101 106 109 109 108 108
27 31 33 39 50 59 66 69 75 84 87 87 90 95 103 108 112 117 119 120 120 119 121 122 124 123 120 116 113 114 115 117 114 114 115 115 111 109 109 111 115 109 110
34 38 41 46 52 56 62 69 76 82 89 95 102 109 110 115 120 124 121 122 123 128 127 128 128 133 137 139 137 127 121 117 123 122 119 117 116 115 113 114 114 114 114
41 46 50 54 58 60 64 73 75 80 91 98 104 109 115 120 125 128 137 138 140 135 134 134 135 132 131 133 136 134 134 137 136 130 126 123 122 120 118 116 114 116 117
48 53 57 58 60 67 73 77 81 87 94 101 115 122 128 131 135 137 137 141 145 141 143 148 147 145 146 145 140 138 140 139 141 139 136 135 136 136 135 132 129 128 126
62 64 68 69 74 77 81 86 90 94 98 102 106 111 114 120 128 137 144 146 148 147 150 150 147 148 144 146 147 147 152 152 149 143 142 139 136 135 133 132 129 130 134
72 70 75 78 81 84 90 96 99 103 102 98 96 96 97 99 104 106 113 122 132 138 141 144 142 142 143 148 151 145 147 147 146 144 145 148 149 146 145 145 141 139 136
80 80 84 87 88 91 99 103 103 99 96 93 89 86 87 87 90 91 91 96 102 111 116 124 133 141 141 137 134 134 139 142 143 146 148 148 147 144 144 145 143 143 136
88 88 93 92 94 99 104 106 100 93 87 83 79 78 80 78 81 82 81 84 87 90 94 98 103 109 118 124 128 135 134 131 137 133 136 137 135 136 134 135 133 133 131
91 96 95 96 101 106 106 97 91 87 80 73 71 70 69 72 72 73 70 72 74 77 81 84 87 90 92 95 98 103 109 123 126 126 131 129 128 129 127 126 125 125 125
96 98 99 100 105 107 97 91 84 77 74 72 65 63 64 64 64 64 64 64 65 66 69 72 74 76 78 79 79 80 84 90 96 106 114 121 125 124 123 121 120 121 117
98 104 98 103 108 99 91 84 78 73 68 65 62 55 56 59 58 57 55 56 56 58 60 62 64 66 68 68 67 66 68 71 77 80 88 93 105 104 111 113 115 113 111
102 98 100 107 101 91 85 79 73 68 62 57 54 51 48 52 52 50 48 49 49 50 51 55 56 59 60 59 59 57 57 60 62 62 69 75 81 85 91 97 102 102 97
101 96 103 105 94 86 81 75 70 64 57 51 47 46 45 44 46 43 42 42 43 44 46 48 50 52 52 51 51 51 52 53 54 54 57 62 68 69 70 77 80 82 81
91 96 102 95 86 82 77 71 65 58 53 47 43 42 41 40 40 39 35 36 37 38 41 43 44 45 45 45 45 46 46 46 46 47 50 54 57 60 63 63 63 63 61
89 97 98 89 81 77 72 67 60 55 51 44 40 37 36 35 35 34 30 30 33 33 35 37 37 38 40 40 41 42 42 42 42 44 48 50 52 53 53 54 54 52 48
90 95 91 83 77 72 66 61 57 50 46 41 36 33 31 29 29 28 28 26 27 28 30 30 31 32 34 36 37 38 38 39 40 42 43 44 45 46 46 44 43 42 41
91 92 84 77 72 68 62 57 51 46 41 36 32 28 26 24 23 22 22 21 22 23 25 26 27 27 29 31 32 33 34 35 36 37 38 39 41 40 39 41 42 42 42
88 87 78 72 67 62 58 52 46 42 37 32 27 24 21 19 16 15 15 16 17 19 21 21 23 24 26 28 29 30 31 32 33 34 35 35 36 39 42 42 41 40 43

GFSGL_250_spd_105.txt.gz
Wind_Speed
40 45 50 53 56 60 63 67 70 72 76 82 86 89 90 89 86 80 79 75 75 75 76 77 76 75 73 72 72 76 78 81 86 85 88 87 88 87 91 90 89 90 89
33 36 40 45 49 53 56 60 62 65 68 69 72 74 74 72 71 72 73 75 75 77 78 76 75 76 75 79 77 80 85 89 88 90 92 92 91 93 94 96 94 95 88
30 33 37 40 43 47 50 53 56 58 60 62 64 64 64 66 67 68 70 72 71 69 70 66 74 77 77 82 83 85 86 88 94 97 96 96 96 94 88 82 82 84 82
22 25 29 33 37 41 44 48 50 53 55 57 57 57 58 58 57 57 60 59 64 64 63 69 72 75 78 81 90 88 89 84 84 86 91 84 83 85 87 85 88 89 85
25 24 26 29 28 31 33 37 41 43 47 48 48 49 51 53 54 59 61 63 65 66 67 70 75 77 83 88 87 87 84 79 80 85 87 89 92 92 90 90 92 93 94
17 22 25 26 29 36 34 31 34 41 43 48 47 48 47 52 57 57 60 62 70 73 73 73 76 80 81 83 85 89 91 92 87 88 89 91 93 95 93 93 94 95 100
2 4 7 12 18 21 25 29 31 35 41 42 46 53 55 55 59 64 68 72 74 78 80 83 86 83 83 86 86 89 90 91 96 97 98 96 95 97 97 98 99 99 100
12 14 16 17 20 22 24 29 33 38 40 44 47 49 55 59 61 65 69 72 79 84 83 84 87 88 90 93 96 98 99 101 100 99 102 104 105 111 110 106 107 108 108
21 23 25 28 30 32 34 37 40 43 45 49 53 57 61 64 67 70 72 77 80 80 85 94 101 99 99 102 99 99 102 105 104 108 103 103 101 96 95 97 97 97 103
31 32 35 37 39 41 44 45 47 48 51 55 58 63 64 68 71 74 81 82 85 83 91 96 100 103 106 116 118 113 114 115 116 114 114 117 115 113 109 105 99 92 88
36 37 39 41 44 47 51 53 54 57 60 64 67 69 73 73 79 82 85 90 95 99 98 100 107 111 116 119 123 124 127 128 127 128 126 122 119 119 117 118 117 111 109
44 46 48 51 51 55 56 59 63 66 70 75 79 82 84 86 90 96 97 100 103 106 111 118 120 123 123 127 130 131 131 132 132 136 136 136 135 131 127 126 123 120 120
51 53 55 57 59 62 65 68 72 74 77 80 83 85 88 91 94 97 98 103 112 119 122 121 119 125 131 134 133 133 135 134 134 136 135 135 141 143 139 135 134 132 128
65 65 66 69 70 72 74 77 80 82 84 87 88 91 92 94 100 102 103 106 107 106 105 104 106 108 110 113 115 116 120 125 129 131 139 142 142 140 140 142 143 141 136
75 77 78 78 79 82 84 84 87 90 91 94 93 94 95 98 101 102 104 104 106 105 101 97 96 95 94 96 97 98 97 98 101 106 110 118 130 140 144 142 141 139 135
85 85 87 87 87 88 91 93 96 97 98 96 96 96 97 96 97 98 101 101 98 94 88 87 86 85 83 83 83 83 83 82 83 85 90 96 101 110 118 133 138 141 134
90 91 93 93 95 96 97 97 96 100 100 98 97 95 94 92 95 95 90 88 87 83 80 78 77 75 73 71 70 69 70 71 72 74 76 79 84 90 96 101 113 136 138
88 92 95 96 95 95 93 93 94 95 96 99 97 94 93 92 90 86 83 80 78 74 70 68 67 65 62 59 58 58 59 61 62 64 66 68 71 75 81 85 94 94 110
80 81 84 86 87 87 89 91 92 92 93 87 88 93 91 86 82 79 74 69 67 66 61 60 58 55 53 51 50 49 49 51 53 55 57 60 62 65 68 72 76 79 92
73 74 77 80 83 84 87 89 88 88 82 84 89 86 83 80 75 68 62 60 60 57 54 51 49 46 44 43 41 41 41 43 45 47 50 51 53 55 58 61 63 66 73
72 74 76 79 81 83 85 85 83 79 80 85 83 79 75 70 65 60 54 52 52 49 46 43 40 38 36 34 34 34 35 36 39 41 44 45 46 48 52 54 56 59 62
68 71 73 77 81 82 82 80 76 78 81 80 77 73 67 61 57 53 49 47 45 41 38 36 33 31 28 28 29 29 30 32 34 36 37 38 41 44 46 46 48 52 51
66 69 71 74 77 77 74 71 74 75 74 73 69 65 59 55 51 47 44 42 39 35 32 30 26 24 23 22 23 23 25 26 27 30 32 34 36 37 39 42 43 44 47
64 65 67 68 69 67 66 69 72 69 67 65 61 56 52 49 45 42 39 36 31 27 25 23 21 19 19 18 18 18 21 22 24 27 29 30 32 34 36 39 42 43 45
59 60 61 62 62 62 67 70 67 62 61 58 52 49 46 43 41 38 34 31 26 22 19 17 16 15 14 14 15 17 18 20 23 24 24 26 29 32 34 36 38 40 41
54 54 55 55 56 62 67 63 60 58 55 51 47 44 41 38 36 32 30 27 23 19 16 14 12 11 11 11 13 15 15 19 21 21 23 26 29 31 32 35 37 40 41

GFSGL_250_spd_108.txt.gz
Wind_Speed
31 36 40 43 47 52 58 63 68 72 74 77 79 81 85 88 93 99 101 103 103 106 106 106 104 101 97 94 93 85 80 81 80 76 75 72 72 72 72 73 79 83 81
23 28 32 36 39 43 48 53 60 66 71 75 79 81 84 86 88 90 92 95 97 99 98 97 96 93 88 81 79 81 81 82 82 79 78 78 78 78 76 82 83 84 86
19 22 25 28 32 36 40 44 49 53 58 62 66 69 72 75 78 81 83 84 85 85 85 82 81 79 76 78 81 82 82 83 81 80 80 81 83 83 83 87 90 91 90
16 19 21 25 29 32 34 37 41 45 48 52 55 58 61 64 66 68 69 71 72 71 73 71 75 76 73 75 79 79 79 80 84 82 83 84 86 86 89 92 90 90 91
18 19 19 21 24 27 31 35 38 42 45 49 51 52 53 56 57 59 60 61 61 65 67 70 73 70 72 76 76 78 79 79 82 86 91 89 88 92 95 95 94 95 93
12 17 21 25 27 27 32 34 36 37 37 41 44 46 48 49 52 52 52 54 54 59 62 66 67 67 71 74 73 74 72 81 84 85 94 93 93 94 102 104 101 95 98
7 9 11 16 18 19 22 26 28 35 39 40 42 42 44 45 48 50 53 54 55 59 61 65 71 75 78 79 77 75 80 80 81 85 89 91 94 98 99 99 97 97 96
18 18 19 20 22 23 24 25 27 30 33 37 39 41 43 45 46 49 52 55 59 62 64 67 68 73 78 81 83 87 89 89 89 91 93 91 88 91 97 97 99 98 97
29 30 30 31 32 33 35 35 37 38 40 43 45 48 50 53 55 57 59 62 65 68 70 75 76 80 81 83 84 88 93 94 99 101 103 102 100 100 101 98 94 97 97
38 38 39 40 42 43 44 45 46 48 50 52 54 55 57 60 63 65 67 70 73 76 80 84 85 86 90 93 97 99 99 103 107 107 107 109 108 107 108 109 109 108 107
49 49 48 47 47 47 48 49 51 52 55 57 60 64 67 69 73 77 80 83 87 90 92 93 97 97 100 101 103 106 110 113 112 112 112 115 118 117 116 115 114 114 111
55 56 55 56 56 57 58 60 61 63 66 68 71 74 77 80 82 86 89 93 97 99 99 101 104 105 110 113 117 118 118 119 121 122 121 121 122 121 124 127 125 124 123
64 64 64 66 67 68 69 71 73 74 77 79 80 81 84 89 91 93 96 98 102 104 103 105 107 110 114 118 122 127 130 134 132 134 134 130 133 131 131 128 127 129 132
75 75 76 76 77 77 79 80 82 84 85 83 84 87 90 92 94 97 99 101 102 100 100 101 104 107 110 113 114 114 114 114 116 120 126 130 140 141 136 138 135 130 133
80 81 82 83 83 84 85 88 89 88 87 87 92 92 91 92 94 94 94 95 97 98 97 98 100 99 97 98 101 104 108 110 110 109 109 110 115 122 124 132 131 136 130
73 77 78 77 81 84 85 84 83 88 90 86 81 81 83 86 89 91 94 95 96 97 95 93 93 95 93 93 94 95 94 94 95 94 92 93 96 99 104 110 114 121 125
65 66 70 72 72 72 75 78 80 81 78 80 81 83 85 87 89 92 94 93 92 89 90 91 88 86 85 85 83 82 81 79 79 79 79 79 81 83 86 91 95 98 104
59 61 62 62 64 67 69 71 73 77 81 84 84 84 86 88 88 87 86 84 87 86 82 81 79 77 76 74 73 72 70 68 68 68 69 69 71 73 75 78 79 82 88
55 56 56 57 58 60 63 67 69 73 76 80 83 85 85 85 82 78 79 77 76 74 73 71 68 67 66 63 60 59 59 58 58 58 59 60 61 62 64 67 70 72 76
51 52 53 54 55 58 61 65 69 72 76 78 79 78 77 76 77 75 70 67 66 65 65 62 58 56 53 52 51 50 49 48 48 50 51 52 54 55 57 58 60 63 67
51 51 53 54 56 59 62 66 69 71 73 73 72 70 73 72 69 66 64 61 58 55 53 51 48 47 46 45 43 41 41 41 41 42 43 45 46 47 49 51 53 55 59
53 53 55 56 57 59 61 64 65 66 67 64 67 69 67 63 62 59 56 53 49 46 44 43 42 41 38 36 36 35 35 34 34 35 36 37 38 39 41 43 45 48 52
52 52 52 53 55 56 58 59 61 58 60 63 64 64 61 58 55 51 48 44 41 38 38 37 34 31 30 29 28 27 27 26 27 27 28 30 32 34 35 37 40 43 45
52 50 49 50 51 52 55 54 54 59 60 60 60 57 54 50 47 44 40 37 34 33 31 29 26 24 23 22 21 21 21 21 22 22 23 24 26 28 29 31 33 37 41
50 49 47 47 49 49 49 51 57 58 57 56 54 51 47 44 41 37 35 32 31 29 26 22 20 19 17 16 16 16 17 17 17 18 19 21 23 25 27 29 31 33 35
49 46 46 45 44 47 49 55 56 55 53 51 49 46 42 39 36 33 31 29 27 25 21 17 14 13 12 11 11 11 11 12 12 14 16 17 20 22 24 26 29 32 33

GFSGL_250_spd_111.txt.gz
Wind_Speed
19 25 29 33 39 44 47 51 55 61 66 68 70 72 74 76 79 82 86 90 93 98 101 103 108 109 110 111 109 106 106 104 102 102 103 102 101 98 96 88 84 79 78
16 18 22 26 30 35 40 43 47 50 54 58 64 69 73 75 78 81 83 86 89 91 91 93 97 97 98 100 103 106 106 105 106 106 104 101 103 98 88 83 80 78 76
17 18 19 21 24 28 32 35 37 41 45 49 52 56 61 66 71 75 77 81 83 85 86 88 91 91 92 92 92 94 95 96 97 98 95 93 89 88 82 81 80 79 76
17 18 20 23 25 25 27 29 31 33 36 40 43 47 52 56 60 66 69 73 75 77 79 82 83 83 84 85 86 85 84 85 82 80 78 79 80 77 79 81 83 82 82
16 19 20 22 23 25 27 30 31 32 34 36 38 41 44 48 52 55 58 62 64 66 69 71 73 74 73 73 74 73 72 73 74 74 75 76 78 80 81 84 85 84 83
19 18 17 21 25 28 30 31 32 32 34 35 37 39 42 44 47 49 52 55 58 60 62 63 64 64 64 66 68 67 72 72 71 68 72 76 75 76 78 79 83 86 84
26 25 23 23 23 27 30 32 34 36 36 40 42 45 47 45 47 48 50 53 55 57 59 60 60 62 63 65 68 70 74 74 76 72 73 74 77 72 76 81 86 86 85
31 32 32 32 33 33 33 33 34 35 35 36 38 40 43 46 49 51 50 51 54 55 55 56 60 63 64 66 70 73 74 76 78 80 81 84 82 84 84 83 82 86 87
43 42 42 41 41 43 43 43 44 45 45 45 45 45 46 47 49 52 54 55 57 60 63 66 66 69 72 74 75 76 78 80 82 83 88 90 91 94 94 92 91 93 89
51 50 50 50 50 51 50 51 52 52 53 54 54 55 56 58 60 62 63 65 67 69 71 73 74 78 79 80 81 83 83 86 88 89 90 91 95 98 99 99 99 100 101
62 62 61 61 61 61 61 61 61 62 62 62 63 62 62 64 67 69 71 73 75 77 80 81 83 85 87 88 91 93 93 94 96 98 100 100 100 103 103 106 109 107 107
64 68 70 72 74 73 73 73 73 72 71 71 73 75 77 79 79 81 83 85 87 87 89 91 93 95 97 99 101 102 104 105 107 108 110 112 115 114 115 116 117 116 115
61 65 67 69 73 78 81 83 85 85 84 84 84 85 87 89 90 91 94 96 96 96 97 100 103 104 106 107 109 112 116 118 117 116 116 116 117 118 118 121 123 121 118
63 64 66 69 72 74 76 78 81 83 87 90 92 95 96 97 98 99 100 100 99 102 104 105 108 109 110 113 113 112 113 112 112 110 109 109 112 114 117 119 123 128 127
64 66 67 68 70 72 74 76 76 77 79 83 85 86 89 93 95 97 98 98 97 95 94 94 94 94 96 100 102 103 104 106 106 106 105 106 106 106 109 113 114 118 120
68 68 67 67 69 72 72 73 72 72 73 74 76 80 82 84 86 88 89 89 90 93 91 91 92 95 97 98 99 99 99 98 97 95 95 97 98 100 102 104 107 109 109
68 70 69 66 66 66 66 67 70 67 67 67 68 71 73 75 78 81 83 85 88 90 91 91 92 92 91 88 87 88 89 90 88 87 88 89 90 91 91 92 94 96 98
68 67 67 63 59 59 58 59 60 61 64 64 64 65 69 72 75 79 81 83 84 84 83 81 79 80 79 77 78 78 78 79 78 77 77 77 77 77 78 79 80 82 84
68 64 63 61 56 55 56 56 56 57 60 64 67 70 71 75 76 76 76 74 73 73 74 73 71 70 69 69 69 68 67 68 67 66 66 66 66 67 68 69 70 71 72
69 64 60 57 56 56 57 57 57 58 59 61 63 65 68 71 72 71 68 68 66 64 64 64 62 61 60 60 59 59 58 57 57 57 57 57 57 57 58 58 59 59 61
70 66 61 55 53 52 51 51 52 53 55 57 59 61 61 62 64 65 63 61 59 57 56 55 54 53 52 51 50 49 49 48 48 48 48 48 48 48 48 49 49 51 51
67 65 59 55 52 50 48 48 48 50 52 54 55 58 60 60 58 56 55 54 52 50 48 47 46 45 45 44 43 42 41 40 39 38 38 38 38 38 38 39 40 41 43
72 67 61 57 53 49 48 48 48 48 49 52 56 58 58 55 53 52 49 47 45 44 42 40 39 38 37 37 35 33 31 29 28 27 28 28 29 30 30 31 32 34 36
73 70 65 60 56 52 49 48 47 47 52 55 56 54 53 51 50 45 43 41 39 37 35 33 32 32 31 29 27 25 23 21 20 20 21 22 22 23 24 25 27 28 32
74 70 66 61 58 54 49 47 48 52 54 54 52 51 50 47 42 40 38 35 33 31 30 28 28 26 24 22 19 17 15 15 15 15 15 16 17 18 20 22 24 26 28
74 70 67 61 58 53 48 48 51 55 55 52 50 49 46 42 38 36 34 30 29 27 26 25 23 22 19 17 14 12 10 10 9 9 9 10 11 13 15 19 21 24 26

GFSGL_250_spd_114.txt.gz
Wind_Speed
20 21 20 17 21 26 31 37 44 47 47 47 53 58 64 72 75 76 78 81 84 87 90 94 96 99 102 105 107 109 111 111 109 104 102 102 105 105 106 103 101 100 97
25 23 21 21 21 23 25 30 36 40 45 51 55 58 62 65 68 72 74 78 81 82 85 88 91 94 96 99 99 100 101 100 98 96 99 100 99 100 100 99 101 100 97
25 22 23 25 26 25 26 28 30 33 37 39 42 47 52 57 62 68 71 73 76 79 82 83 84 89 90 90 91 93 94 91 91 89 89 91 90 90 88 88 90 89 89
30 27 24 22 23 24 28 30 31 34 37 39 43 46 49 50 53 56 62 67 72 75 77 79 82 85 86 88 89 89 90 91 91 89 88 88 88 87 84 82 81 80 80
35 34 33 32 29 27 27 29 31 31 33 36 41 43 44 46 49 50 52 56 60 64 68 71 74 77 78 80 81 82 83 85 85 84 83 81 79 78 77 76 77 76 76
36 37 36 34 33 34 34 32 32 35 37 39 40 40 41 41 44 46 49 52 54 56 60 62 65 68 70 72 74 76 78 77 76 74 73 75 72 75 72 71 72 69 70
39 39 39 39 40 40 39 40 40 40 40 40 41 42 44 45 46 48 49 52 53 56 58 60 62 64 65 66 69 70 72 71 71 71 71 70 63 69 69 70 70 69 70
44 45 46 46 47 47 46 46 47 47 47 47 48 48 48 47 48 50 50 52 55 57 59 60 61 62 63 65 66 65 67 69 69 70 70 71 71 78 76 72 75 70 70
47 48 48 50 52 54 56 57 57 56 56 56 56 57 58 57 57 58 57 57 57 59 62 65 65 65 67 68 66 66 68 70 70 71 74 75 78 79 78 81 80 79 78
51 52 52 54 56 57 59 62 65 67 68 67 67 66 67 67 67 66 66 67 68 69 70 70 71 71 72 74 73 73 72 74 75 78 79 80 81 82 85 86 85 84 82
49 52 54 57 58 60 62 64 66 69 71 72 75 77 77 76 76 76 76 76 76 77 79 80 80 82 82 82 83 83 82 82 82 83 85 87 88 88 89 89 90 88 88
51 54 56 58 60 63 64 65 67 69 70 70 73 75 78 81 84 85 86 86 86 86 87 88 89 90 89 89 90 91 91 90 91 91 92 94 97 99 97 97 97 97 95
55 57 60 61 65 68 69 68 67 66 67 69 70 72 75 76 78 81 87 91 95 96 97 97 99 101 101 101 102 102 102 101 101 103 104 106 108 108 108 108 107 107 106
60 63 65 65 68 71 71 70 68 63 64 65 68 70 72 76 77 80 83 86 92 95 98 101 104 106 107 109 110 111 111 112 111 112 114 117 118 118 119 119 118 117 115
64 67 68 69 69 70 69 66 64 61 60 63 65 67 68 72 74 77 80 84 87 90 91 93 96 98 100 99 99 101 103 103 102 104 106 108 109 112 116 116 121 124 123
69 70 71 72 70 67 63 61 59 57 57 57 58 61 64 65 69 72 76 79 83 84 85 87 89 89 91 92 93 94 95 96 98 100 102 102 104 105 105 107 107 108 109
73 73 72 72 71 66 64 62 59 55 53 53 54 57 60 64 67 70 73 77 81 82 83 84 85 86 87 88 90 91 93 94 95 96 96 97 98 99 100 102 103 104 104
75 76 74 71 68 66 64 60 58 57 55 53 53 57 61 64 68 71 75 78 81 82 82 83 84 83 83 82 82 82 82 83 83 83 84 85 86 87 88 90 91 92 92
76 77 77 75 71 68 65 59 56 53 53 53 55 56 59 63 65 66 68 68 70 70 68 67 67 69 69 69 69 70 71 72 72 72 72 72 73 74 75 76 77 78 78
76 77 77 76 74 70 68 63 58 54 52 52 52 54 56 59 60 61 60 59 59 58 57 57 57 57 57 57 57 57 57 58 59 59 60 60 61 62 62 63 63 64 65
75 77 76 76 74 71 69 64 60 55 50 49 47 47 52 56 59 60 59 56 54 52 51 50 49 49 49 48 48 48 49 49 49 49 50 51 52 52 52 52 53 54 55
75 76 75 75 73 71 70 66 62 56 50 47 46 50 54 56 55 53 51 49 49 48 46 44 42 42 41 40 40 40 41 41 41 41 40 40 40 41 41 42 43 43 43
75 75 75 74 73 72 69 68 63 58 51 47 49 53 56 55 53 50 48 47 44 42 40 38 37 37 36 35 34 34 34 34 34 33 32 32 31 31 32 32 33 33 34
74 74 75 74 74 72 70 68 64 59 52 49 51 54 54 53 52 49 46 42 40 37 35 35 34 32 31 30 30 29 27 26 26 24 23 23 23 23 23 23 24 26 28
74 73 73 74 73 72 70 69 64 59 53 50 52 53 52 51 48 47 44 40 37 34 33 31 29 28 27 26 25 23 22 21 19 18 16 16 16 16 15 16 17 19 20
74 72 72 73 72 71 69 68 63 59 52 50 52 51 50 48 47 45 41 38 35 32 30 27 25 24 24 22 20 18 16 15 13 12 11 10 10 10 9 10 12 14 16

GFSGL_250_spd_117.txt.gz
Wind_Speed
32 28 23 24 20 18 21 22 22 27 30 33 39 46 53 60 65 71 73 67 70 79 82 87 92 97 99 100 100 100 101 102 101 103 108 109 109 112 112 111 105 98 97
32 32 30 27 23 20 19 20 24 25 28 32 37 43 49 50 54 60 60 67 73 81 85 88 89 91 93 94 96 97 99 103 104 105 107 104 105 104 102 101 102 99 92
36 35 34 31 28 25 23 21 20 23 25 31 35 39 44 50 57 62 66 69 71 76 78 78 80 82 85 89 94 94 96 100 101 101 101 101 100 98 97 96 93 92 87
40 38 37 36 36 35 32 29 26 24 26 29 32 35 37 43 49 54 56 59 62 65 69 71 74 78 81 83 86 88 91 93 91 93 90 91 91 91 90 89 89 88 86
40 39 38 38 39 39 39 38 38 38 36 34 35 38 40 42 45 48 50 52 53 55 58 62 66 70 73 77 79 82 85 87 88 88 88 87 88 88 90 90 87 86 85
38 38 39 40 40 40 41 43 44 45 45 46 47 46 44 44 46 51 53 53 54 54 56 58 59 61 65 71 75 80 82 83 83 85 86 88 88 87 85 82 80 80 80
43 43 42 41 40 42 43 45 45 47 50 52 54 55 56 57 56 55 54 54 55 56 57 58 58 59 61 63 66 69 72 75 78 80 81 81 81 82 81 79 77 73 72
48 49 47 47 47 47 46 46 48 50 52 53 56 58 61 64 65 65 64 64 62 60 59 59 60 61 63 64 66 67 69 71 72 73 74 75 75 76 74 74 73 73 72
47 47 49 50 51 53 54 55 55 55 55 57 59 61 63 64 67 70 72 72 72 72 71 70 67 66 65 64 66 69 71 72 71 71 71 72 73 73 73 73 73 72 71
48 47 49 50 51 52 53 56 59 61 62 63 63 64 66 68 68 69 71 74 77 79 79 78 77 77 77 75 74 72 74 74 73 75 75 76 75 75 75 74 74 72 71
54 53 52 51 53 55 55 57 58 61 64 67 68 67 67 68 68 69 71 71 74 79 82 84 84 84 84 84 84 82 82 82 82 81 81 80 79 78 78 77 76 76 75
58 57 55 55 55 57 57 60 62 63 66 68 69 67 64 63 64 66 68 69 71 73 77 80 84 86 88 89 90 91 91 91 91 91 90 90 90 89 87 86 86 84 83
63 62 60 60 61 61 60 63 63 63 63 63 63 64 62 60 60 63 66 69 71 73 75 80 83 85 87 89 91 94 95 96 98 99 98 98 99 99 98 96 93 92 91
67 65 64 64 66 66 63 63 63 61 61 61 59 57 58 57 57 58 60 65 68 70 73 79 82 85 87 88 89 91 92 93 95 98 102 105 106 106 106 106 104 102 98
69 68 66 68 69 69 68 66 65 61 61 60 56 53 54 54 55 57 59 62 64 67 70 73 77 79 81 83 85 87 89 89 89 90 93 97 100 103 108 110 110 111 108
71 69 68 69 70 73 74 72 68 65 62 61 57 53 52 52 54 56 59 62 64 67 70 72 73 73 74 75 77 79 80 82 83 83 85 87 89 91 93 97 99 100 103
72 71 71 70 71 73 75 74 74 69 63 62 59 54 51 51 52 54 57 60 62 64 66 67 67 68 69 70 71 72 74 75 76 78 81 83 86 88 90 91 92 92 94
72 73 72 71 71 73 75 74 74 71 69 66 61 57 53 50 50 52 54 56 61 63 63 64 64 64 64 65 65 65 66 67 68 69 70 72 73 75 78 80 84 86 89
73 74 73 72 70 73 75 76 75 72 70 68 65 60 56 51 47 46 49 53 55 58 58 58 57 57 58 59 60 61 61 62 62 63 64 65 66 67 69 70 72 74 76
74 74 74 73 70 73 74 76 76 73 71 69 66 62 58 52 50 53 55 54 52 50 50 49 49 48 48 48 49 50 52 53 54 54 55 56 57 58 60 61 62 63 65
73 73 73 73 71 73 74 76 77 74 73 71 67 61 57 51 52 58 57 53 50 47 46 44 43 43 43 42 43 43 44 45 46 47 48 49 49 50 51 52 53 54 55
72 73 72 72 71 72 74 76 77 74 72 71 67 61 57 51 53 55 52 49 46 45 43 41 41 40 37 36 36 36 36 37 38 39 39 40 40 41 42 43 44 45 47
71 71 71 71 70 72 74 76 77 75 72 71 66 62 55 52 54 53 50 48 45 43 40 40 38 36 34 33 33 32 31 31 31 31 31 31 31 32 32 33 33 34 36
70 69 69 69 69 71 73 75 75 74 72 71 66 62 54 52 53 51 49 47 44 41 39 37 35 32 30 29 28 28 27 26 26 26 26 26 25 25 26 26 26 27 28
68 67 68 68 68 69 71 74 75 73 71 71 65 61 53 52 50 48 48 46 42 40 37 34 32 30 27 26 25 24 22 22 21 21 20 20 20 19 19 19 19 20 22
66 66 66 66 66 69 71 73 74 72 70 70 64 59 53 51 48 46 46 45 41 39 35 32 29 27 25 24 22 20 19 18 17 16 14 14 13 12 12 12 13 15 15

GFSGL_250_spd_120.txt.gz
Wind_Speed
33 33 33 35 34 33 31 31 31 25 22 21 21 22 27 32 41 57 67 76 82 89 92 92 90 91 87 83 90 88 83 84 88 98 105 106 106 107 107 110 111 114 106
38 37 36 33 33 33 32 31 28 28 28 24 22 26 28 33 38 42 49 53 63 72 76 80 76 74 79 75 79 86 88 87 93 97 104 105 108 107 108 107 106 109 106
40 39 38 38 37 36 35 33 31 29 29 29 27 28 29 34 39 46 51 57 65 66 65 67 70 72 74 78 83 87 89 91 95 95 95 99 103 103 104 106 108 108 107
42 41 41 41 41 40 38 37 37 37 35 33 33 33 35 38 42 46 51 57 63 71 76 78 81 82 82 85 85 83 87 88 85 86 88 94 96 96 96 97 99 100 102
49 48 46 44 43 42 42 42 41 39 39 40 41 42 42 43 47 50 52 56 59 62 66 68 71 72 73 77 79 79 79 80 83 86 87 85 86 89 89 89 89 89 90
49 49 49 50 50 49 49 47 46 46 46 45 44 45 48 50 53 55 56 57 60 62 66 69 70 70 72 73 73 73 72 73 73 73 76 82 85 85 82 83 83 85 87
50 49 49 50 50 50 51 51 52 53 54 54 53 53 54 55 56 57 60 61 62 64 66 67 68 68 69 71 72 72 70 68 67 68 70 71 73 77 80 80 80 80 82
55 53 51 51 52 52 51 51 51 54 56 56 57 60 62 63 63 63 64 65 66 67 68 69 70 71 71 72 71 70 71 73 71 69 69 70 70 72 73 75 77 77 78
60 57 54 54 54 54 52 52 53 53 55 57 58 61 63 65 67 66 67 69 70 72 73 73 73 75 75 75 75 75 75 72 68 68 71 73 72 71 71 71 72 71 72
65 63 60 58 57 57 57 57 57 57 57 57 57 61 64 64 64 66 69 71 73 74 76 77 77 79 79 78 77 78 80 80 77 74 73 71 70 73 73 73 73 71 71
65 65 65 62 61 60 61 62 62 62 61 61 59 59 59 63 64 63 65 67 68 71 75 77 77 78 79 79 79 80 82 83 83 82 80 79 79 76 76 74 73 73 72
65 66 66 65 65 63 63 64 65 66 67 65 62 60 57 56 58 60 60 62 66 68 69 72 75 76 78 81 82 83 84 84 85 87 87 87 87 85 83 82 80 78 76
67 67 67 66 67 66 66 65 67 68 69 69 66 64 61 57 55 55 56 57 59 62 65 68 71 76 79 81 82 84 85 87 88 89 90 92 93 93 92 91 88 86 85
68 68 68 68 68 67 68 67 68 70 71 71 69 67 66 64 60 59 56 53 55 58 61 64 67 71 75 79 81 82 83 85 87 87 88 90 93 95 96 95 95 94 92
68 68 69 70 70 70 69 69 68 69 70 71 70 69 68 67 64 63 60 55 53 53 56 60 64 68 72 75 77 79 79 79 79 80 82 85 88 90 93 95 95 96 96
66 67 69 71 72 71 71 71 69 70 70 70 70 70 68 67 66 65 62 57 54 52 52 53 56 60 63 67 69 71 73 75 76 77 78 79 81 83 85 89 91 93 94
66 66 69 71 73 73 72 73 71 71 70 71 70 70 68 69 67 67 63 60 54 51 51 53 55 56 58 59 59 59 60 61 63 66 71 74 77 81 83 85 85 85 88
68 65 67 70 73 73 72 73 72 73 73 75 71 70 69 68 67 66 62 59 53 50 54 57 57 56 57 57 56 57 57 57 57 58 60 63 65 69 73 75 78 80 83
69 66 68 71 72 74 72 74 71 73 72 74 75 72 71 68 68 64 60 54 53 55 55 53 53 52 51 50 51 52 52 52 52 53 53 53 55 57 60 63 67 69 71
67 65 68 70 72 73 71 74 71 72 72 73 74 76 74 70 69 64 57 52 54 54 52 50 49 48 47 46 45 45 44 45 45 46 46 47 48 49 51 53 55 57 61
66 64 67 69 70 72 71 73 72 73 72 73 74 75 74 72 70 65 58 55 55 54 52 49 46 44 42 40 41 40 39 39 39 40 41 42 42 43 43 45 46 49 51
66 66 67 68 70 71 71 72 71 72 72 73 74 75 74 72 68 62 55 55 54 51 49 46 42 41 38 37 37 37 36 36 35 35 35 36 37 38 39 39 40 41 43
65 66 67 67 68 69 69 70 70 70 71 72 74 75 74 72 66 59 53 53 52 49 45 41 39 37 35 35 35 34 33 31 30 30 30 29 29 29 30 31 33 34 36
64 65 67 66 67 68 68 68 69 68 69 71 72 75 73 71 64 56 53 52 50 47 43 39 38 35 34 33 31 30 29 28 28 26 25 24 22 21 21 22 23 24 25
61 63 65 65 66 66 66 66 66 66 67 70 72 73 72 68 62 54 53 50 48 45 40 38 36 33 32 31 29 27 27 25 24 22 21 20 18 17 16 16 16 17 19
59 62 64 63 64 64 63 65 63 65 66 68 71 72 71 65 58 51 51 48 46 43 39 37 35 31 29 28 27 26 25 22 21 19 18 16 14 13 12 11 12 12 13

GFSGL_250_spd_123.txt.gz
Wind_Speed
37 38 38 38 39 37 36 36 37 37 38 37 38 37 33 31 32 29 29 36 40 48 56 64 71 81 85 91 94 96 94 93 93 95 94 96 103 103 100 102 106 108 106
48 48 48 45 43 41 39 37 37 36 35 35 37 37 38 39 33 33 33 34 37 40 51 63 71 81 87 90 92 93 84 84 80 78 76 80 85 86 92 94 94 98 104
51 51 52 52 52 51 49 46 44 41 41 38 34 34 37 39 41 41 38 41 41 44 50 52 56 65 80 84 83 77 73 72 73 75 80 81 80 81 85 90 95 97 99
53 53 52 52 52 52 51 51 51 50 47 44 42 41 40 38 40 42 45 47 49 51 52 55 58 63 67 71 74 76 80 84 79 75 77 81 82 84 87 92 97 97 97
56 53 52 52 52 53 53 53 53 52 50 49 48 49 48 47 46 45 46 50 52 55 57 60 63 66 68 72 76 79 79 86 86 85 85 86 88 90 90 89 89 90 89
59 58 56 53 53 53 53 54 54 54 53 51 51 51 50 51 55 57 55 53 54 58 61 64 67 69 72 73 74 76 76 78 80 79 80 82 82 81 82 83 82 86 85
64 63 60 58 56 55 55 55 56 55 55 55 53 53 53 52 54 58 61 62 64 63 62 65 69 71 72 74 76 78 79 79 78 78 80 81 80 78 81 81 79 79 79
65 65 64 62 60 58 57 57 57 57 58 59 57 54 54 53 54 57 60 64 64 65 69 70 68 70 73 75 76 77 79 80 81 80 79 79 78 80 77 75 75 73 74
63 63 64 64 65 62 60 58 59 59 60 61 61 61 57 56 56 55 58 60 64 66 64 65 68 70 71 75 78 79 80 81 79 79 81 82 82 79 76 72 72 71 71
63 64 65 66 67 67 65 63 61 61 61 62 63 64 63 60 59 59 59 58 58 60 62 64 64 68 72 73 76 79 82 85 83 81 81 83 84 83 80 76 73 71 70
69 67 67 69 68 69 68 69 66 65 64 63 63 64 64 64 62 62 60 60 59 58 58 59 61 64 69 72 74 76 78 82 84 84 85 85 85 84 84 82 79 77 73
70 70 70 70 70 69 68 69 69 69 66 66 65 67 65 65 63 64 61 60 59 59 58 59 60 61 62 66 69 73 77 79 82 84 85 87 87 88 88 87 85 83 80
70 73 71 71 69 68 69 70 70 70 70 68 68 69 68 67 67 67 64 61 60 58 59 59 58 58 60 62 64 67 72 77 81 83 84 85 85 87 88 89 89 89 86
75 73 72 70 68 69 68 69 70 70 71 69 69 70 70 69 69 67 66 64 61 60 60 58 56 56 57 59 62 63 66 70 75 79 82 83 83 83 84 85 84 86 87
80 77 77 75 71 70 70 69 70 71 70 71 70 71 71 71 71 70 69 66 62 62 60 58 56 55 55 54 56 59 62 65 68 70 73 77 79 81 82 82 82 83 82
83 76 77 74 71 70 70 70 71 72 71 71 71 71 72 73 74 74 72 69 64 63 61 58 54 53 52 53 54 56 56 57 59 62 65 67 70 72 76 80 80 79 80
84 76 76 74 70 68 71 70 70 70 71 72 71 71 71 73 73 75 74 70 67 65 62 56 54 54 55 54 55 56 55 54 55 55 56 58 61 64 66 68 71 75 79
82 75 75 73 67 67 70 68 70 71 72 72 71 71 70 72 73 74 74 72 70 64 61 56 55 54 54 52 51 51 50 51 50 49 50 51 52 53 56 61 65 65 67
75 73 71 68 63 65 67 66 69 71 72 72 72 70 71 71 72 74 73 72 70 66 61 56 55 52 50 48 47 46 46 47 46 45 45 46 46 48 50 51 53 57 61
72 65 64 62 62 63 63 65 68 69 70 70 70 71 72 72 72 74 72 71 66 62 58 56 53 51 48 46 44 44 43 41 40 39 38 39 40 41 41 44 47 49 52
63 60 58 59 60 60 62 64 66 67 68 68 67 69 71 71 73 74 73 71 66 60 57 54 51 48 45 43 42 40 37 36 35 35 34 34 34 35 36 37 39 41 44
58 54 55 57 57 59 61 63 64 66 67 67 66 67 69 70 72 73 72 70 64 58 54 52 48 46 43 41 37 34 33 33 32 32 31 30 30 30 31 32 34 35 37
53 53 56 55 55 57 60 61 62 64 65 65 65 66 67 68 71 72 71 68 62 56 52 51 46 42 41 38 35 33 32 30 30 29 28 28 27 26 26 27 29 30 31
51 53 54 54 55 57 57 58 60 63 63 62 63 65 66 68 70 70 69 65 58 53 50 48 44 41 39 36 33 31 30 28 27 27 27 25 23 22 22 22 22 24 26
48 51 54 56 55 55 54 56 59 59 60 60 61 63 63 67 68 68 67 62 55 51 48 46 41 38 37 33 31 29 28 26 27 26 24 23 22 20 18 17 16 17 18
46 50 51 52 53 52 53 55 56 56 57 57 60 60 62 66 66 65 65 59 51 49 47 45 40 37 35 31 29 27 26 25 23 23 21 20 19 17 15 13 12 12 12